<?xml version="1.0" encoding="UTF-8" standalone="no" ?>
<gpx xmlns="http://www.topografix.com/GPX/1/1" xmlns:xsi="http://www.w3.org/2001/XMLSchema-instance" xsi:schemaLocation="http://www.topografix.com/GPX/1/1 http://www.topografix.com/GPX/1/1/gpx.xsd" version="1.1" creator="VisuGPX - https://www.visugpx.com">
  <metadata>
    <name>Rabastens - Les Perelles  2019-02-06</name>
    <desc><![CDATA[
]]></desc>
  </metadata>
  <trk>
    <name><![CDATA[Rabastens - Les Perelles  2019-02-06]]></name>
    <trkseg>
      <trkpt lat="43.82162" lon="1.71784">
        <ele>92</ele>
        <time>2019-02-06T08:41:38.000Z</time>
      </trkpt>
      <trkpt lat="43.82162" lon="1.71784">
        <ele>96.7</ele>
        <time>2019-02-06T08:41:39.000Z</time>
      </trkpt>
      <trkpt lat="43.82162" lon="1.71786">
        <ele>168</ele>
        <time>2019-02-06T08:43:3.000Z</time>
      </trkpt>
      <trkpt lat="43.82152" lon="1.71787">
        <ele>169.7</ele>
        <time>2019-02-06T08:48:47.000Z</time>
      </trkpt>
      <trkpt lat="43.82143" lon="1.71786">
        <ele>169.7</ele>
        <time>2019-02-06T08:48:55.000Z</time>
      </trkpt>
      <trkpt lat="43.82135" lon="1.71791">
        <ele>169.7</ele>
        <time>2019-02-06T08:49:5.000Z</time>
      </trkpt>
      <trkpt lat="43.82126" lon="1.71794">
        <ele>169.7</ele>
        <time>2019-02-06T08:49:14.000Z</time>
      </trkpt>
      <trkpt lat="43.82117" lon="1.71799">
        <ele>168.6</ele>
        <time>2019-02-06T08:49:22.000Z</time>
      </trkpt>
      <trkpt lat="43.82107" lon="1.71798">
        <ele>169.1</ele>
        <time>2019-02-06T08:49:34.000Z</time>
      </trkpt>
      <trkpt lat="43.82097" lon="1.71797">
        <ele>169.8</ele>
        <time>2019-02-06T08:49:42.000Z</time>
      </trkpt>
      <trkpt lat="43.82088" lon="1.718">
        <ele>170.1</ele>
        <time>2019-02-06T08:49:53.000Z</time>
      </trkpt>
      <trkpt lat="43.82078" lon="1.718">
        <ele>169.6</ele>
        <time>2019-02-06T08:50:1.000Z</time>
      </trkpt>
      <trkpt lat="43.82069" lon="1.71801">
        <ele>168.7</ele>
        <time>2019-02-06T08:50:8.000Z</time>
      </trkpt>
      <trkpt lat="43.8206" lon="1.71798">
        <ele>168.9</ele>
        <time>2019-02-06T08:50:16.000Z</time>
      </trkpt>
      <trkpt lat="43.8205" lon="1.71796">
        <ele>169.1</ele>
        <time>2019-02-06T08:50:25.000Z</time>
      </trkpt>
      <trkpt lat="43.82039" lon="1.71795">
        <ele>169.1</ele>
        <time>2019-02-06T08:50:33.000Z</time>
      </trkpt>
      <trkpt lat="43.8203" lon="1.71794">
        <ele>168.5</ele>
        <time>2019-02-06T08:50:41.000Z</time>
      </trkpt>
      <trkpt lat="43.8202" lon="1.71792">
        <ele>168.5</ele>
        <time>2019-02-06T08:50:49.000Z</time>
      </trkpt>
      <trkpt lat="43.82011" lon="1.71791">
        <ele>168.2</ele>
        <time>2019-02-06T08:50:57.000Z</time>
      </trkpt>
      <trkpt lat="43.82002" lon="1.71787">
        <ele>167.9</ele>
        <time>2019-02-06T08:51:6.000Z</time>
      </trkpt>
      <trkpt lat="43.81993" lon="1.71789">
        <ele>167.9</ele>
        <time>2019-02-06T08:51:14.000Z</time>
      </trkpt>
      <trkpt lat="43.81983" lon="1.7179">
        <ele>167.8</ele>
        <time>2019-02-06T08:51:22.000Z</time>
      </trkpt>
      <trkpt lat="43.81974" lon="1.71789">
        <ele>167.7</ele>
        <time>2019-02-06T08:51:30.000Z</time>
      </trkpt>
      <trkpt lat="43.81965" lon="1.71793">
        <ele>167.4</ele>
        <time>2019-02-06T08:51:37.000Z</time>
      </trkpt>
      <trkpt lat="43.81955" lon="1.71796">
        <ele>167</ele>
        <time>2019-02-06T08:51:44.000Z</time>
      </trkpt>
      <trkpt lat="43.81946" lon="1.7179">
        <ele>166.9</ele>
        <time>2019-02-06T08:51:54.000Z</time>
      </trkpt>
      <trkpt lat="43.81943" lon="1.71777">
        <ele>166.4</ele>
        <time>2019-02-06T08:52:4.000Z</time>
      </trkpt>
      <trkpt lat="43.81942" lon="1.71765">
        <ele>166.8</ele>
        <time>2019-02-06T08:52:13.000Z</time>
      </trkpt>
      <trkpt lat="43.81939" lon="1.71751">
        <ele>166.5</ele>
        <time>2019-02-06T08:52:22.000Z</time>
      </trkpt>
      <trkpt lat="43.81937" lon="1.71738">
        <ele>166.4</ele>
        <time>2019-02-06T08:52:31.000Z</time>
      </trkpt>
      <trkpt lat="43.81935" lon="1.71724">
        <ele>166.1</ele>
        <time>2019-02-06T08:52:39.000Z</time>
      </trkpt>
      <trkpt lat="43.81931" lon="1.71712">
        <ele>166</ele>
        <time>2019-02-06T08:52:47.000Z</time>
      </trkpt>
      <trkpt lat="43.81931" lon="1.71699">
        <ele>166.2</ele>
        <time>2019-02-06T08:52:54.000Z</time>
      </trkpt>
      <trkpt lat="43.81932" lon="1.71685">
        <ele>166</ele>
        <time>2019-02-06T08:53:2.000Z</time>
      </trkpt>
      <trkpt lat="43.81934" lon="1.71672">
        <ele>165.8</ele>
        <time>2019-02-06T08:53:9.000Z</time>
      </trkpt>
      <trkpt lat="43.81936" lon="1.71658">
        <ele>166.2</ele>
        <time>2019-02-06T08:53:17.000Z</time>
      </trkpt>
      <trkpt lat="43.81938" lon="1.71645">
        <ele>166.2</ele>
        <time>2019-02-06T08:53:25.000Z</time>
      </trkpt>
      <trkpt lat="43.81941" lon="1.71633">
        <ele>166.1</ele>
        <time>2019-02-06T08:53:33.000Z</time>
      </trkpt>
      <trkpt lat="43.81945" lon="1.7162">
        <ele>166.3</ele>
        <time>2019-02-06T08:53:42.000Z</time>
      </trkpt>
      <trkpt lat="43.81949" lon="1.71608">
        <ele>166.5</ele>
        <time>2019-02-06T08:53:49.000Z</time>
      </trkpt>
      <trkpt lat="43.81952" lon="1.71595">
        <ele>166.6</ele>
        <time>2019-02-06T08:53:57.000Z</time>
      </trkpt>
      <trkpt lat="43.81954" lon="1.71583">
        <ele>166.8</ele>
        <time>2019-02-06T08:54:6.000Z</time>
      </trkpt>
      <trkpt lat="43.81957" lon="1.7157">
        <ele>167.3</ele>
        <time>2019-02-06T08:54:14.000Z</time>
      </trkpt>
      <trkpt lat="43.81957" lon="1.71555">
        <ele>167.6</ele>
        <time>2019-02-06T08:54:21.000Z</time>
      </trkpt>
      <trkpt lat="43.8196" lon="1.71543">
        <ele>168.1</ele>
        <time>2019-02-06T08:54:30.000Z</time>
      </trkpt>
      <trkpt lat="43.81961" lon="1.7153">
        <ele>168.3</ele>
        <time>2019-02-06T08:54:39.000Z</time>
      </trkpt>
      <trkpt lat="43.81958" lon="1.71518">
        <ele>169</ele>
        <time>2019-02-06T08:54:49.000Z</time>
      </trkpt>
      <trkpt lat="43.81954" lon="1.71506">
        <ele>169.9</ele>
        <time>2019-02-06T08:54:59.000Z</time>
      </trkpt>
      <trkpt lat="43.8195" lon="1.71494">
        <ele>170.9</ele>
        <time>2019-02-06T08:55:9.000Z</time>
      </trkpt>
      <trkpt lat="43.81944" lon="1.71485">
        <ele>172</ele>
        <time>2019-02-06T08:55:18.000Z</time>
      </trkpt>
      <trkpt lat="43.81942" lon="1.71473">
        <ele>172.8</ele>
        <time>2019-02-06T08:55:26.000Z</time>
      </trkpt>
      <trkpt lat="43.81939" lon="1.71459">
        <ele>173.7</ele>
        <time>2019-02-06T08:55:33.000Z</time>
      </trkpt>
      <trkpt lat="43.81934" lon="1.71448">
        <ele>174.7</ele>
        <time>2019-02-06T08:55:42.000Z</time>
      </trkpt>
      <trkpt lat="43.8193" lon="1.71436">
        <ele>175.6</ele>
        <time>2019-02-06T08:55:51.000Z</time>
      </trkpt>
      <trkpt lat="43.81921" lon="1.71431">
        <ele>176.5</ele>
        <time>2019-02-06T08:55:59.000Z</time>
      </trkpt>
      <trkpt lat="43.81914" lon="1.71422">
        <ele>177.4</ele>
        <time>2019-02-06T08:56:7.000Z</time>
      </trkpt>
      <trkpt lat="43.81905" lon="1.71416">
        <ele>178.4</ele>
        <time>2019-02-06T08:56:16.000Z</time>
      </trkpt>
      <trkpt lat="43.81897" lon="1.71408">
        <ele>179.3</ele>
        <time>2019-02-06T08:56:25.000Z</time>
      </trkpt>
      <trkpt lat="43.8189" lon="1.714">
        <ele>180.1</ele>
        <time>2019-02-06T08:56:34.000Z</time>
      </trkpt>
      <trkpt lat="43.81887" lon="1.71388">
        <ele>181.1</ele>
        <time>2019-02-06T08:56:43.000Z</time>
      </trkpt>
      <trkpt lat="43.81885" lon="1.71376">
        <ele>182.4</ele>
        <time>2019-02-06T08:56:54.000Z</time>
      </trkpt>
      <trkpt lat="43.81888" lon="1.71363">
        <ele>184</ele>
        <time>2019-02-06T08:57:5.000Z</time>
      </trkpt>
      <trkpt lat="43.81894" lon="1.71353">
        <ele>184.8</ele>
        <time>2019-02-06T08:57:14.000Z</time>
      </trkpt>
      <trkpt lat="43.81899" lon="1.71341">
        <ele>185.9</ele>
        <time>2019-02-06T08:57:24.000Z</time>
      </trkpt>
      <trkpt lat="43.8189" lon="1.71345">
        <ele>188.2</ele>
        <time>2019-02-06T08:57:49.000Z</time>
      </trkpt>
      <trkpt lat="43.8188" lon="1.71342">
        <ele>189</ele>
        <time>2019-02-06T08:57:58.000Z</time>
      </trkpt>
      <trkpt lat="43.81871" lon="1.71338">
        <ele>189.2</ele>
        <time>2019-02-06T08:58:7.000Z</time>
      </trkpt>
      <trkpt lat="43.81863" lon="1.7133">
        <ele>189.6</ele>
        <time>2019-02-06T08:58:17.000Z</time>
      </trkpt>
      <trkpt lat="43.81854" lon="1.71324">
        <ele>189.8</ele>
        <time>2019-02-06T08:58:25.000Z</time>
      </trkpt>
      <trkpt lat="43.81845" lon="1.71317">
        <ele>190</ele>
        <time>2019-02-06T08:58:33.000Z</time>
      </trkpt>
      <trkpt lat="43.81839" lon="1.71307">
        <ele>190.3</ele>
        <time>2019-02-06T08:58:41.000Z</time>
      </trkpt>
      <trkpt lat="43.81832" lon="1.71297">
        <ele>190.5</ele>
        <time>2019-02-06T08:58:51.000Z</time>
      </trkpt>
      <trkpt lat="43.81827" lon="1.71285">
        <ele>190.7</ele>
        <time>2019-02-06T08:59:0.000Z</time>
      </trkpt>
      <trkpt lat="43.81819" lon="1.71277">
        <ele>190.9</ele>
        <time>2019-02-06T08:59:8.000Z</time>
      </trkpt>
      <trkpt lat="43.81812" lon="1.71269">
        <ele>191.2</ele>
        <time>2019-02-06T08:59:16.000Z</time>
      </trkpt>
      <trkpt lat="43.81806" lon="1.71258">
        <ele>191.4</ele>
        <time>2019-02-06T08:59:24.000Z</time>
      </trkpt>
      <trkpt lat="43.81799" lon="1.7125">
        <ele>191.8</ele>
        <time>2019-02-06T08:59:31.000Z</time>
      </trkpt>
      <trkpt lat="43.81793" lon="1.71241">
        <ele>191.7</ele>
        <time>2019-02-06T08:59:38.000Z</time>
      </trkpt>
      <trkpt lat="43.81787" lon="1.7123">
        <ele>191.8</ele>
        <time>2019-02-06T08:59:47.000Z</time>
      </trkpt>
      <trkpt lat="43.8178" lon="1.71219">
        <ele>191.9</ele>
        <time>2019-02-06T08:59:55.000Z</time>
      </trkpt>
      <trkpt lat="43.81773" lon="1.7121">
        <ele>192.1</ele>
        <time>2019-02-06T09:00:4.000Z</time>
      </trkpt>
      <trkpt lat="43.81765" lon="1.71202">
        <ele>192.4</ele>
        <time>2019-02-06T09:00:13.000Z</time>
      </trkpt>
      <trkpt lat="43.81756" lon="1.71197">
        <ele>192.7</ele>
        <time>2019-02-06T09:00:21.000Z</time>
      </trkpt>
      <trkpt lat="43.81748" lon="1.71191">
        <ele>192.7</ele>
        <time>2019-02-06T09:00:29.000Z</time>
      </trkpt>
      <trkpt lat="43.8174" lon="1.71183">
        <ele>193</ele>
        <time>2019-02-06T09:00:38.000Z</time>
      </trkpt>
      <trkpt lat="43.81732" lon="1.71177">
        <ele>193.1</ele>
        <time>2019-02-06T09:00:46.000Z</time>
      </trkpt>
      <trkpt lat="43.81723" lon="1.7117">
        <ele>193.2</ele>
        <time>2019-02-06T09:00:54.000Z</time>
      </trkpt>
      <trkpt lat="43.81715" lon="1.71162">
        <ele>193.3</ele>
        <time>2019-02-06T09:01:3.000Z</time>
      </trkpt>
      <trkpt lat="43.81706" lon="1.71155">
        <ele>193.4</ele>
        <time>2019-02-06T09:01:11.000Z</time>
      </trkpt>
      <trkpt lat="43.81698" lon="1.71149">
        <ele>193.5</ele>
        <time>2019-02-06T09:01:19.000Z</time>
      </trkpt>
      <trkpt lat="43.81689" lon="1.71144">
        <ele>193.5</ele>
        <time>2019-02-06T09:01:27.000Z</time>
      </trkpt>
      <trkpt lat="43.8168" lon="1.71139">
        <ele>193.2</ele>
        <time>2019-02-06T09:01:34.000Z</time>
      </trkpt>
      <trkpt lat="43.81671" lon="1.71133">
        <ele>193.4</ele>
        <time>2019-02-06T09:01:42.000Z</time>
      </trkpt>
      <trkpt lat="43.81663" lon="1.71128">
        <ele>193.6</ele>
        <time>2019-02-06T09:01:50.000Z</time>
      </trkpt>
      <trkpt lat="43.81653" lon="1.71122">
        <ele>194.1</ele>
        <time>2019-02-06T09:01:59.000Z</time>
      </trkpt>
      <trkpt lat="43.81645" lon="1.71116">
        <ele>194.3</ele>
        <time>2019-02-06T09:02:9.000Z</time>
      </trkpt>
      <trkpt lat="43.81637" lon="1.71108">
        <ele>194.7</ele>
        <time>2019-02-06T09:02:21.000Z</time>
      </trkpt>
      <trkpt lat="43.8163" lon="1.71099">
        <ele>195.1</ele>
        <time>2019-02-06T09:02:30.000Z</time>
      </trkpt>
      <trkpt lat="43.81627" lon="1.71087">
        <ele>195.5</ele>
        <time>2019-02-06T09:02:38.000Z</time>
      </trkpt>
      <trkpt lat="43.81631" lon="1.71074">
        <ele>196.2</ele>
        <time>2019-02-06T09:02:47.000Z</time>
      </trkpt>
      <trkpt lat="43.81634" lon="1.71061">
        <ele>196.6</ele>
        <time>2019-02-06T09:02:56.000Z</time>
      </trkpt>
      <trkpt lat="43.81632" lon="1.71049">
        <ele>197.4</ele>
        <time>2019-02-06T09:03:6.000Z</time>
      </trkpt>
      <trkpt lat="43.81628" lon="1.71037">
        <ele>198.2</ele>
        <time>2019-02-06T09:03:17.000Z</time>
      </trkpt>
      <trkpt lat="43.81621" lon="1.7103">
        <ele>199</ele>
        <time>2019-02-06T09:03:27.000Z</time>
      </trkpt>
      <trkpt lat="43.81616" lon="1.71019">
        <ele>200</ele>
        <time>2019-02-06T09:03:37.000Z</time>
      </trkpt>
      <trkpt lat="43.81608" lon="1.71014">
        <ele>200.7</ele>
        <time>2019-02-06T09:03:46.000Z</time>
      </trkpt>
      <trkpt lat="43.81598" lon="1.71009">
        <ele>201.5</ele>
        <time>2019-02-06T09:03:55.000Z</time>
      </trkpt>
      <trkpt lat="43.81589" lon="1.71004">
        <ele>202</ele>
        <time>2019-02-06T09:04:4.000Z</time>
      </trkpt>
      <trkpt lat="43.8158" lon="1.70998">
        <ele>202.5</ele>
        <time>2019-02-06T09:04:12.000Z</time>
      </trkpt>
      <trkpt lat="43.81571" lon="1.70993">
        <ele>203.2</ele>
        <time>2019-02-06T09:04:20.000Z</time>
      </trkpt>
      <trkpt lat="43.81563" lon="1.70988">
        <ele>203.6</ele>
        <time>2019-02-06T09:04:28.000Z</time>
      </trkpt>
      <trkpt lat="43.81555" lon="1.70979">
        <ele>203.8</ele>
        <time>2019-02-06T09:04:38.000Z</time>
      </trkpt>
      <trkpt lat="43.81547" lon="1.70974">
        <ele>203.6</ele>
        <time>2019-02-06T09:04:47.000Z</time>
      </trkpt>
      <trkpt lat="43.81538" lon="1.70967">
        <ele>202.9</ele>
        <time>2019-02-06T09:04:56.000Z</time>
      </trkpt>
      <trkpt lat="43.8153" lon="1.70961">
        <ele>202</ele>
        <time>2019-02-06T09:05:4.000Z</time>
      </trkpt>
      <trkpt lat="43.81521" lon="1.70955">
        <ele>201.3</ele>
        <time>2019-02-06T09:05:11.000Z</time>
      </trkpt>
      <trkpt lat="43.81513" lon="1.70948">
        <ele>200.4</ele>
        <time>2019-02-06T09:05:19.000Z</time>
      </trkpt>
      <trkpt lat="43.81505" lon="1.70942">
        <ele>199.4</ele>
        <time>2019-02-06T09:05:27.000Z</time>
      </trkpt>
      <trkpt lat="43.81497" lon="1.70936">
        <ele>198.5</ele>
        <time>2019-02-06T09:05:35.000Z</time>
      </trkpt>
      <trkpt lat="43.81489" lon="1.70929">
        <ele>197.5</ele>
        <time>2019-02-06T09:05:43.000Z</time>
      </trkpt>
      <trkpt lat="43.81481" lon="1.70922">
        <ele>196.4</ele>
        <time>2019-02-06T09:05:52.000Z</time>
      </trkpt>
      <trkpt lat="43.81472" lon="1.70919">
        <ele>195.7</ele>
        <time>2019-02-06T09:05:59.000Z</time>
      </trkpt>
      <trkpt lat="43.81463" lon="1.70915">
        <ele>194.6</ele>
        <time>2019-02-06T09:06:7.000Z</time>
      </trkpt>
      <trkpt lat="43.81455" lon="1.7091">
        <ele>193.6</ele>
        <time>2019-02-06T09:06:14.000Z</time>
      </trkpt>
      <trkpt lat="43.81446" lon="1.70905">
        <ele>192.4</ele>
        <time>2019-02-06T09:06:23.000Z</time>
      </trkpt>
      <trkpt lat="43.81437" lon="1.709">
        <ele>190.8</ele>
        <time>2019-02-06T09:06:34.000Z</time>
      </trkpt>
      <trkpt lat="43.81428" lon="1.70896">
        <ele>189.9</ele>
        <time>2019-02-06T09:06:41.000Z</time>
      </trkpt>
      <trkpt lat="43.8142" lon="1.7089">
        <ele>188.9</ele>
        <time>2019-02-06T09:06:50.000Z</time>
      </trkpt>
      <trkpt lat="43.81411" lon="1.70886">
        <ele>187.6</ele>
        <time>2019-02-06T09:06:59.000Z</time>
      </trkpt>
      <trkpt lat="43.81402" lon="1.70881">
        <ele>186.6</ele>
        <time>2019-02-06T09:07:8.000Z</time>
      </trkpt>
      <trkpt lat="43.81394" lon="1.70875">
        <ele>185.6</ele>
        <time>2019-02-06T09:07:17.000Z</time>
      </trkpt>
      <trkpt lat="43.81386" lon="1.70868">
        <ele>184.8</ele>
        <time>2019-02-06T09:07:25.000Z</time>
      </trkpt>
      <trkpt lat="43.81378" lon="1.70861">
        <ele>184.2</ele>
        <time>2019-02-06T09:07:32.000Z</time>
      </trkpt>
      <trkpt lat="43.81371" lon="1.70851">
        <ele>183.5</ele>
        <time>2019-02-06T09:07:41.000Z</time>
      </trkpt>
      <trkpt lat="43.81364" lon="1.70843">
        <ele>182.7</ele>
        <time>2019-02-06T09:07:49.000Z</time>
      </trkpt>
      <trkpt lat="43.81357" lon="1.70833">
        <ele>182.1</ele>
        <time>2019-02-06T09:07:58.000Z</time>
      </trkpt>
      <trkpt lat="43.81351" lon="1.70822">
        <ele>181.6</ele>
        <time>2019-02-06T09:08:7.000Z</time>
      </trkpt>
      <trkpt lat="43.81344" lon="1.70812">
        <ele>181.3</ele>
        <time>2019-02-06T09:08:14.000Z</time>
      </trkpt>
      <trkpt lat="43.81338" lon="1.70802">
        <ele>181.1</ele>
        <time>2019-02-06T09:08:21.000Z</time>
      </trkpt>
      <trkpt lat="43.81332" lon="1.70791">
        <ele>180.7</ele>
        <time>2019-02-06T09:08:29.000Z</time>
      </trkpt>
      <trkpt lat="43.81326" lon="1.70782">
        <ele>180.5</ele>
        <time>2019-02-06T09:08:37.000Z</time>
      </trkpt>
      <trkpt lat="43.81319" lon="1.70773">
        <ele>180.2</ele>
        <time>2019-02-06T09:08:45.000Z</time>
      </trkpt>
      <trkpt lat="43.81313" lon="1.70763">
        <ele>179.9</ele>
        <time>2019-02-06T09:08:52.000Z</time>
      </trkpt>
      <trkpt lat="43.81305" lon="1.70754">
        <ele>179.6</ele>
        <time>2019-02-06T09:09:1.000Z</time>
      </trkpt>
      <trkpt lat="43.81299" lon="1.70744">
        <ele>179.4</ele>
        <time>2019-02-06T09:09:9.000Z</time>
      </trkpt>
      <trkpt lat="43.81292" lon="1.70735">
        <ele>179.2</ele>
        <time>2019-02-06T09:09:17.000Z</time>
      </trkpt>
      <trkpt lat="43.81286" lon="1.70724">
        <ele>179</ele>
        <time>2019-02-06T09:09:25.000Z</time>
      </trkpt>
      <trkpt lat="43.81278" lon="1.70718">
        <ele>178.8</ele>
        <time>2019-02-06T09:09:33.000Z</time>
      </trkpt>
      <trkpt lat="43.8127" lon="1.70709">
        <ele>178.7</ele>
        <time>2019-02-06T09:09:42.000Z</time>
      </trkpt>
      <trkpt lat="43.81261" lon="1.70702">
        <ele>178.6</ele>
        <time>2019-02-06T09:09:51.000Z</time>
      </trkpt>
      <trkpt lat="43.81253" lon="1.70697">
        <ele>178.6</ele>
        <time>2019-02-06T09:09:58.000Z</time>
      </trkpt>
      <trkpt lat="43.81245" lon="1.7069">
        <ele>178.7</ele>
        <time>2019-02-06T09:10:6.000Z</time>
      </trkpt>
      <trkpt lat="43.81237" lon="1.70683">
        <ele>178.8</ele>
        <time>2019-02-06T09:10:14.000Z</time>
      </trkpt>
      <trkpt lat="43.81228" lon="1.70677">
        <ele>178.8</ele>
        <time>2019-02-06T09:10:23.000Z</time>
      </trkpt>
      <trkpt lat="43.81221" lon="1.70668">
        <ele>178.9</ele>
        <time>2019-02-06T09:10:31.000Z</time>
      </trkpt>
      <trkpt lat="43.81213" lon="1.7066">
        <ele>179</ele>
        <time>2019-02-06T09:10:39.000Z</time>
      </trkpt>
      <trkpt lat="43.81206" lon="1.70651">
        <ele>179.1</ele>
        <time>2019-02-06T09:10:48.000Z</time>
      </trkpt>
      <trkpt lat="43.81198" lon="1.70644">
        <ele>179.3</ele>
        <time>2019-02-06T09:10:56.000Z</time>
      </trkpt>
      <trkpt lat="43.81191" lon="1.70637">
        <ele>179.5</ele>
        <time>2019-02-06T09:11:4.000Z</time>
      </trkpt>
      <trkpt lat="43.81182" lon="1.70629">
        <ele>179.6</ele>
        <time>2019-02-06T09:11:13.000Z</time>
      </trkpt>
      <trkpt lat="43.81174" lon="1.70621">
        <ele>180.1</ele>
        <time>2019-02-06T09:11:22.000Z</time>
      </trkpt>
      <trkpt lat="43.81166" lon="1.70613">
        <ele>180.5</ele>
        <time>2019-02-06T09:11:31.000Z</time>
      </trkpt>
      <trkpt lat="43.81159" lon="1.70604">
        <ele>181</ele>
        <time>2019-02-06T09:11:40.000Z</time>
      </trkpt>
      <trkpt lat="43.81153" lon="1.70595">
        <ele>181.4</ele>
        <time>2019-02-06T09:11:48.000Z</time>
      </trkpt>
      <trkpt lat="43.8115" lon="1.70582">
        <ele>181.8</ele>
        <time>2019-02-06T09:11:56.000Z</time>
      </trkpt>
      <trkpt lat="43.8115" lon="1.70569">
        <ele>182.4</ele>
        <time>2019-02-06T09:12:6.000Z</time>
      </trkpt>
      <trkpt lat="43.81153" lon="1.70557">
        <ele>183</ele>
        <time>2019-02-06T09:12:16.000Z</time>
      </trkpt>
      <trkpt lat="43.81154" lon="1.70543">
        <ele>183.8</ele>
        <time>2019-02-06T09:12:25.000Z</time>
      </trkpt>
      <trkpt lat="43.81155" lon="1.7053">
        <ele>184.6</ele>
        <time>2019-02-06T09:12:35.000Z</time>
      </trkpt>
      <trkpt lat="43.81157" lon="1.70516">
        <ele>185.2</ele>
        <time>2019-02-06T09:12:44.000Z</time>
      </trkpt>
      <trkpt lat="43.8116" lon="1.70504">
        <ele>185.8</ele>
        <time>2019-02-06T09:12:52.000Z</time>
      </trkpt>
      <trkpt lat="43.81161" lon="1.70491">
        <ele>186.3</ele>
        <time>2019-02-06T09:13:0.000Z</time>
      </trkpt>
      <trkpt lat="43.81162" lon="1.70478">
        <ele>186.9</ele>
        <time>2019-02-06T09:13:10.000Z</time>
      </trkpt>
      <trkpt lat="43.81164" lon="1.70466">
        <ele>187.2</ele>
        <time>2019-02-06T09:13:18.000Z</time>
      </trkpt>
      <trkpt lat="43.81163" lon="1.70453">
        <ele>187.8</ele>
        <time>2019-02-06T09:13:27.000Z</time>
      </trkpt>
      <trkpt lat="43.81166" lon="1.7044">
        <ele>188.3</ele>
        <time>2019-02-06T09:13:36.000Z</time>
      </trkpt>
      <trkpt lat="43.81169" lon="1.70427">
        <ele>188.9</ele>
        <time>2019-02-06T09:13:45.000Z</time>
      </trkpt>
      <trkpt lat="43.81172" lon="1.70415">
        <ele>189.6</ele>
        <time>2019-02-06T09:13:53.000Z</time>
      </trkpt>
      <trkpt lat="43.81177" lon="1.70403">
        <ele>190.2</ele>
        <time>2019-02-06T09:14:1.000Z</time>
      </trkpt>
      <trkpt lat="43.81181" lon="1.70391">
        <ele>190.9</ele>
        <time>2019-02-06T09:14:10.000Z</time>
      </trkpt>
      <trkpt lat="43.81182" lon="1.70378">
        <ele>191.6</ele>
        <time>2019-02-06T09:14:21.000Z</time>
      </trkpt>
      <trkpt lat="43.81183" lon="1.70365">
        <ele>192.2</ele>
        <time>2019-02-06T09:14:30.000Z</time>
      </trkpt>
      <trkpt lat="43.81184" lon="1.70352">
        <ele>192.7</ele>
        <time>2019-02-06T09:14:39.000Z</time>
      </trkpt>
      <trkpt lat="43.81179" lon="1.7034">
        <ele>193.4</ele>
        <time>2019-02-06T09:14:49.000Z</time>
      </trkpt>
      <trkpt lat="43.81171" lon="1.70334">
        <ele>194.4</ele>
        <time>2019-02-06T09:15:1.000Z</time>
      </trkpt>
      <trkpt lat="43.81161" lon="1.70332">
        <ele>195.2</ele>
        <time>2019-02-06T09:15:10.000Z</time>
      </trkpt>
      <trkpt lat="43.81152" lon="1.70336">
        <ele>195.8</ele>
        <time>2019-02-06T09:15:19.000Z</time>
      </trkpt>
      <trkpt lat="43.81144" lon="1.70342">
        <ele>196.5</ele>
        <time>2019-02-06T09:15:27.000Z</time>
      </trkpt>
      <trkpt lat="43.81136" lon="1.70348">
        <ele>197</ele>
        <time>2019-02-06T09:15:34.000Z</time>
      </trkpt>
      <trkpt lat="43.81127" lon="1.70354">
        <ele>197.5</ele>
        <time>2019-02-06T09:15:42.000Z</time>
      </trkpt>
      <trkpt lat="43.8112" lon="1.70361">
        <ele>198.1</ele>
        <time>2019-02-06T09:15:51.000Z</time>
      </trkpt>
      <trkpt lat="43.81112" lon="1.70368">
        <ele>198.6</ele>
        <time>2019-02-06T09:16:1.000Z</time>
      </trkpt>
      <trkpt lat="43.81104" lon="1.70374">
        <ele>199.2</ele>
        <time>2019-02-06T09:16:11.000Z</time>
      </trkpt>
      <trkpt lat="43.81096" lon="1.70381">
        <ele>199.9</ele>
        <time>2019-02-06T09:16:20.000Z</time>
      </trkpt>
      <trkpt lat="43.81088" lon="1.70386">
        <ele>200.4</ele>
        <time>2019-02-06T09:16:28.000Z</time>
      </trkpt>
      <trkpt lat="43.81078" lon="1.70386">
        <ele>201</ele>
        <time>2019-02-06T09:16:37.000Z</time>
      </trkpt>
      <trkpt lat="43.81069" lon="1.7039">
        <ele>201.6</ele>
        <time>2019-02-06T09:16:46.000Z</time>
      </trkpt>
      <trkpt lat="43.81059" lon="1.70393">
        <ele>188.6</ele>
        <time>2019-02-06T09:22:34.000Z</time>
      </trkpt>
      <trkpt lat="43.81056" lon="1.70391">
        <ele>189</ele>
        <time>2019-02-06T09:24:37.000Z</time>
      </trkpt>
      <trkpt lat="43.8105" lon="1.70387">
        <ele>189.7</ele>
        <time>2019-02-06T09:24:49.000Z</time>
      </trkpt>
      <trkpt lat="43.81042" lon="1.7038">
        <ele>190.8</ele>
        <time>2019-02-06T09:25:0.000Z</time>
      </trkpt>
      <trkpt lat="43.8104" lon="1.70373">
        <ele>191.2</ele>
        <time>2019-02-06T09:25:11.000Z</time>
      </trkpt>
      <trkpt lat="43.81036" lon="1.70364">
        <ele>200.3</ele>
        <time>2019-02-06T09:25:20.000Z</time>
      </trkpt>
      <trkpt lat="43.81034" lon="1.7035">
        <ele>199.9</ele>
        <time>2019-02-06T09:25:29.000Z</time>
      </trkpt>
      <trkpt lat="43.81029" lon="1.70339">
        <ele>199.4</ele>
        <time>2019-02-06T09:25:39.000Z</time>
      </trkpt>
      <trkpt lat="43.81026" lon="1.70326">
        <ele>199</ele>
        <time>2019-02-06T09:25:49.000Z</time>
      </trkpt>
      <trkpt lat="43.81024" lon="1.70313">
        <ele>198.6</ele>
        <time>2019-02-06T09:25:59.000Z</time>
      </trkpt>
      <trkpt lat="43.81022" lon="1.70301">
        <ele>197.9</ele>
        <time>2019-02-06T09:26:9.000Z</time>
      </trkpt>
      <trkpt lat="43.81021" lon="1.70287">
        <ele>197.4</ele>
        <time>2019-02-06T09:26:19.000Z</time>
      </trkpt>
      <trkpt lat="43.8102" lon="1.70274">
        <ele>196.8</ele>
        <time>2019-02-06T09:26:27.000Z</time>
      </trkpt>
      <trkpt lat="43.8102" lon="1.7026">
        <ele>196</ele>
        <time>2019-02-06T09:26:36.000Z</time>
      </trkpt>
      <trkpt lat="43.81019" lon="1.70247">
        <ele>195.4</ele>
        <time>2019-02-06T09:26:44.000Z</time>
      </trkpt>
      <trkpt lat="43.8102" lon="1.70234">
        <ele>194.8</ele>
        <time>2019-02-06T09:26:52.000Z</time>
      </trkpt>
      <trkpt lat="43.81021" lon="1.70221">
        <ele>194.1</ele>
        <time>2019-02-06T09:27:1.000Z</time>
      </trkpt>
      <trkpt lat="43.81022" lon="1.70207">
        <ele>193.2</ele>
        <time>2019-02-06T09:27:10.000Z</time>
      </trkpt>
      <trkpt lat="43.81022" lon="1.70195">
        <ele>192.6</ele>
        <time>2019-02-06T09:27:18.000Z</time>
      </trkpt>
      <trkpt lat="43.81021" lon="1.70182">
        <ele>191.7</ele>
        <time>2019-02-06T09:27:27.000Z</time>
      </trkpt>
      <trkpt lat="43.81022" lon="1.70169">
        <ele>190.9</ele>
        <time>2019-02-06T09:27:36.000Z</time>
      </trkpt>
      <trkpt lat="43.81024" lon="1.70155">
        <ele>190</ele>
        <time>2019-02-06T09:27:45.000Z</time>
      </trkpt>
      <trkpt lat="43.81024" lon="1.70141">
        <ele>189.3</ele>
        <time>2019-02-06T09:27:53.000Z</time>
      </trkpt>
      <trkpt lat="43.81025" lon="1.70128">
        <ele>188.4</ele>
        <time>2019-02-06T09:28:2.000Z</time>
      </trkpt>
      <trkpt lat="43.81025" lon="1.70114">
        <ele>187.6</ele>
        <time>2019-02-06T09:28:11.000Z</time>
      </trkpt>
      <trkpt lat="43.81024" lon="1.70101">
        <ele>186.9</ele>
        <time>2019-02-06T09:28:19.000Z</time>
      </trkpt>
      <trkpt lat="43.81022" lon="1.70089">
        <ele>185.8</ele>
        <time>2019-02-06T09:28:29.000Z</time>
      </trkpt>
      <trkpt lat="43.81027" lon="1.70077">
        <ele>184.8</ele>
        <time>2019-02-06T09:28:39.000Z</time>
      </trkpt>
      <trkpt lat="43.81033" lon="1.70067">
        <ele>184.2</ele>
        <time>2019-02-06T09:28:49.000Z</time>
      </trkpt>
      <trkpt lat="43.81039" lon="1.70057">
        <ele>184.6</ele>
        <time>2019-02-06T09:28:59.000Z</time>
      </trkpt>
      <trkpt lat="43.81044" lon="1.70046">
        <ele>184.5</ele>
        <time>2019-02-06T09:29:7.000Z</time>
      </trkpt>
      <trkpt lat="43.81049" lon="1.70035">
        <ele>184.4</ele>
        <time>2019-02-06T09:29:15.000Z</time>
      </trkpt>
      <trkpt lat="43.81054" lon="1.70024">
        <ele>184</ele>
        <time>2019-02-06T09:29:25.000Z</time>
      </trkpt>
      <trkpt lat="43.8106" lon="1.70014">
        <ele>184.2</ele>
        <time>2019-02-06T09:29:33.000Z</time>
      </trkpt>
      <trkpt lat="43.81065" lon="1.70002">
        <ele>184.3</ele>
        <time>2019-02-06T09:29:43.000Z</time>
      </trkpt>
      <trkpt lat="43.81071" lon="1.69992">
        <ele>183.8</ele>
        <time>2019-02-06T09:29:53.000Z</time>
      </trkpt>
      <trkpt lat="43.81076" lon="1.69981">
        <ele>183.9</ele>
        <time>2019-02-06T09:30:2.000Z</time>
      </trkpt>
      <trkpt lat="43.81085" lon="1.69984">
        <ele>184.1</ele>
        <time>2019-02-06T09:30:17.000Z</time>
      </trkpt>
      <trkpt lat="43.81092" lon="1.69994">
        <ele>184.2</ele>
        <time>2019-02-06T09:30:31.000Z</time>
      </trkpt>
      <trkpt lat="43.811" lon="1.70001">
        <ele>184.9</ele>
        <time>2019-02-06T09:30:42.000Z</time>
      </trkpt>
      <trkpt lat="43.81106" lon="1.70011">
        <ele>185.4</ele>
        <time>2019-02-06T09:30:53.000Z</time>
      </trkpt>
      <trkpt lat="43.81112" lon="1.70021">
        <ele>186.1</ele>
        <time>2019-02-06T09:31:4.000Z</time>
      </trkpt>
      <trkpt lat="43.81119" lon="1.70029">
        <ele>187.1</ele>
        <time>2019-02-06T09:31:16.000Z</time>
      </trkpt>
      <trkpt lat="43.81126" lon="1.70038">
        <ele>188</ele>
        <time>2019-02-06T09:31:28.000Z</time>
      </trkpt>
      <trkpt lat="43.81133" lon="1.70047">
        <ele>189</ele>
        <time>2019-02-06T09:31:40.000Z</time>
      </trkpt>
      <trkpt lat="43.8114" lon="1.70055">
        <ele>190.2</ele>
        <time>2019-02-06T09:31:54.000Z</time>
      </trkpt>
      <trkpt lat="43.81147" lon="1.70064">
        <ele>191.4</ele>
        <time>2019-02-06T09:32:5.000Z</time>
      </trkpt>
      <trkpt lat="43.81154" lon="1.70074">
        <ele>192.7</ele>
        <time>2019-02-06T09:32:17.000Z</time>
      </trkpt>
      <trkpt lat="43.81161" lon="1.70082">
        <ele>193.9</ele>
        <time>2019-02-06T09:32:29.000Z</time>
      </trkpt>
      <trkpt lat="43.81168" lon="1.70092">
        <ele>195.7</ele>
        <time>2019-02-06T09:32:48.000Z</time>
      </trkpt>
      <trkpt lat="43.81175" lon="1.70084">
        <ele>196.5</ele>
        <time>2019-02-06T09:33:9.000Z</time>
      </trkpt>
      <trkpt lat="43.81181" lon="1.70073">
        <ele>196.7</ele>
        <time>2019-02-06T09:33:22.000Z</time>
      </trkpt>
      <trkpt lat="43.81187" lon="1.70064">
        <ele>196.4</ele>
        <time>2019-02-06T09:33:33.000Z</time>
      </trkpt>
      <trkpt lat="43.81192" lon="1.70053">
        <ele>196</ele>
        <time>2019-02-06T09:33:44.000Z</time>
      </trkpt>
      <trkpt lat="43.81199" lon="1.70043">
        <ele>195.3</ele>
        <time>2019-02-06T09:33:53.000Z</time>
      </trkpt>
      <trkpt lat="43.81204" lon="1.70032">
        <ele>194.3</ele>
        <time>2019-02-06T09:34:4.000Z</time>
      </trkpt>
      <trkpt lat="43.8121" lon="1.70021">
        <ele>193.4</ele>
        <time>2019-02-06T09:34:13.000Z</time>
      </trkpt>
      <trkpt lat="43.81212" lon="1.70009">
        <ele>192</ele>
        <time>2019-02-06T09:34:26.000Z</time>
      </trkpt>
      <trkpt lat="43.81216" lon="1.69997">
        <ele>190.5</ele>
        <time>2019-02-06T09:34:38.000Z</time>
      </trkpt>
      <trkpt lat="43.81223" lon="1.69987">
        <ele>189</ele>
        <time>2019-02-06T09:34:50.000Z</time>
      </trkpt>
      <trkpt lat="43.81228" lon="1.69977">
        <ele>187.8</ele>
        <time>2019-02-06T09:35:4.000Z</time>
      </trkpt>
      <trkpt lat="43.81232" lon="1.69965">
        <ele>187.1</ele>
        <time>2019-02-06T09:35:17.000Z</time>
      </trkpt>
      <trkpt lat="43.81232" lon="1.69953">
        <ele>186.1</ele>
        <time>2019-02-06T09:35:30.000Z</time>
      </trkpt>
      <trkpt lat="43.81229" lon="1.6994">
        <ele>185.1</ele>
        <time>2019-02-06T09:35:42.000Z</time>
      </trkpt>
      <trkpt lat="43.81225" lon="1.69929">
        <ele>184.2</ele>
        <time>2019-02-06T09:35:54.000Z</time>
      </trkpt>
      <trkpt lat="43.8122" lon="1.69918">
        <ele>183.8</ele>
        <time>2019-02-06T09:36:5.000Z</time>
      </trkpt>
      <trkpt lat="43.81215" lon="1.69907">
        <ele>183.2</ele>
        <time>2019-02-06T09:36:15.000Z</time>
      </trkpt>
      <trkpt lat="43.81209" lon="1.69896">
        <ele>182.7</ele>
        <time>2019-02-06T09:36:28.000Z</time>
      </trkpt>
      <trkpt lat="43.81203" lon="1.69887">
        <ele>182.4</ele>
        <time>2019-02-06T09:36:39.000Z</time>
      </trkpt>
      <trkpt lat="43.81204" lon="1.69874">
        <ele>181.5</ele>
        <time>2019-02-06T09:37:1.000Z</time>
      </trkpt>
      <trkpt lat="43.81212" lon="1.69869">
        <ele>180.5</ele>
        <time>2019-02-06T09:37:12.000Z</time>
      </trkpt>
      <trkpt lat="43.81222" lon="1.69866">
        <ele>179.5</ele>
        <time>2019-02-06T09:37:22.000Z</time>
      </trkpt>
      <trkpt lat="43.8123" lon="1.69861">
        <ele>178.6</ele>
        <time>2019-02-06T09:37:31.000Z</time>
      </trkpt>
      <trkpt lat="43.81238" lon="1.69853">
        <ele>177.6</ele>
        <time>2019-02-06T09:37:41.000Z</time>
      </trkpt>
      <trkpt lat="43.81245" lon="1.69844">
        <ele>174.5</ele>
        <time>2019-02-06T09:38:44.000Z</time>
      </trkpt>
      <trkpt lat="43.81249" lon="1.69834">
        <ele>174.3</ele>
        <time>2019-02-06T09:39:1.000Z</time>
      </trkpt>
      <trkpt lat="43.81255" lon="1.69824">
        <ele>173.2</ele>
        <time>2019-02-06T09:39:19.000Z</time>
      </trkpt>
      <trkpt lat="43.81261" lon="1.69815">
        <ele>172</ele>
        <time>2019-02-06T09:39:37.000Z</time>
      </trkpt>
      <trkpt lat="43.81268" lon="1.69806">
        <ele>171</ele>
        <time>2019-02-06T09:39:51.000Z</time>
      </trkpt>
      <trkpt lat="43.81276" lon="1.69799">
        <ele>169.6</ele>
        <time>2019-02-06T09:40:4.000Z</time>
      </trkpt>
      <trkpt lat="43.81284" lon="1.69791">
        <ele>168.3</ele>
        <time>2019-02-06T09:40:25.000Z</time>
      </trkpt>
      <trkpt lat="43.81293" lon="1.69787">
        <ele>167.4</ele>
        <time>2019-02-06T09:40:37.000Z</time>
      </trkpt>
      <trkpt lat="43.81301" lon="1.69781">
        <ele>166.3</ele>
        <time>2019-02-06T09:40:49.000Z</time>
      </trkpt>
      <trkpt lat="43.81309" lon="1.69773">
        <ele>165.3</ele>
        <time>2019-02-06T09:41:2.000Z</time>
      </trkpt>
      <trkpt lat="43.81316" lon="1.69767">
        <ele>164.7</ele>
        <time>2019-02-06T09:41:13.000Z</time>
      </trkpt>
      <trkpt lat="43.81324" lon="1.69759">
        <ele>163.9</ele>
        <time>2019-02-06T09:41:25.000Z</time>
      </trkpt>
      <trkpt lat="43.81333" lon="1.69754">
        <ele>162.9</ele>
        <time>2019-02-06T09:41:37.000Z</time>
      </trkpt>
      <trkpt lat="43.81342" lon="1.69752">
        <ele>162.3</ele>
        <time>2019-02-06T09:41:51.000Z</time>
      </trkpt>
      <trkpt lat="43.8135" lon="1.69746">
        <ele>161.8</ele>
        <time>2019-02-06T09:42:0.000Z</time>
      </trkpt>
      <trkpt lat="43.81358" lon="1.6974">
        <ele>160.9</ele>
        <time>2019-02-06T09:42:11.000Z</time>
      </trkpt>
      <trkpt lat="43.81366" lon="1.69732">
        <ele>159.7</ele>
        <time>2019-02-06T09:42:27.000Z</time>
      </trkpt>
      <trkpt lat="43.81374" lon="1.69726">
        <ele>157.7</ele>
        <time>2019-02-06T09:42:52.000Z</time>
      </trkpt>
      <trkpt lat="43.81381" lon="1.69728">
        <ele>146.7</ele>
        <time>2019-02-06T09:43:4.000Z</time>
      </trkpt>
      <trkpt lat="43.81393" lon="1.69723">
        <ele>145.7</ele>
        <time>2019-02-06T09:43:21.000Z</time>
      </trkpt>
      <trkpt lat="43.81399" lon="1.69723">
        <ele>145.1</ele>
        <time>2019-02-06T09:43:36.000Z</time>
      </trkpt>
      <trkpt lat="43.81408" lon="1.69725">
        <ele>144.3</ele>
        <time>2019-02-06T09:43:52.000Z</time>
      </trkpt>
      <trkpt lat="43.81416" lon="1.69728">
        <ele>143.6</ele>
        <time>2019-02-06T09:44:6.000Z</time>
      </trkpt>
      <trkpt lat="43.81423" lon="1.69727">
        <ele>153.1</ele>
        <time>2019-02-06T09:44:20.000Z</time>
      </trkpt>
      <trkpt lat="43.81427" lon="1.69738">
        <ele>153</ele>
        <time>2019-02-06T09:44:37.000Z</time>
      </trkpt>
      <trkpt lat="43.81424" lon="1.6975">
        <ele>154</ele>
        <time>2019-02-06T09:45:3.000Z</time>
      </trkpt>
      <trkpt lat="43.81427" lon="1.69763">
        <ele>154.6</ele>
        <time>2019-02-06T09:45:19.000Z</time>
      </trkpt>
      <trkpt lat="43.81425" lon="1.69775">
        <ele>155.2</ele>
        <time>2019-02-06T09:45:34.000Z</time>
      </trkpt>
      <trkpt lat="43.81427" lon="1.69788">
        <ele>155.7</ele>
        <time>2019-02-06T09:45:47.000Z</time>
      </trkpt>
      <trkpt lat="43.81436" lon="1.69792">
        <ele>156.5</ele>
        <time>2019-02-06T09:46:7.000Z</time>
      </trkpt>
      <trkpt lat="43.81445" lon="1.6979">
        <ele>156.1</ele>
        <time>2019-02-06T09:46:28.000Z</time>
      </trkpt>
      <trkpt lat="43.81453" lon="1.69797">
        <ele>155.7</ele>
        <time>2019-02-06T09:46:37.000Z</time>
      </trkpt>
      <trkpt lat="43.81461" lon="1.69806">
        <ele>155.1</ele>
        <time>2019-02-06T09:46:45.000Z</time>
      </trkpt>
      <trkpt lat="43.8147" lon="1.69806">
        <ele>154.7</ele>
        <time>2019-02-06T09:46:52.000Z</time>
      </trkpt>
      <trkpt lat="43.8148" lon="1.69806">
        <ele>154.1</ele>
        <time>2019-02-06T09:47:2.000Z</time>
      </trkpt>
      <trkpt lat="43.81489" lon="1.69807">
        <ele>153.4</ele>
        <time>2019-02-06T09:47:12.000Z</time>
      </trkpt>
      <trkpt lat="43.81498" lon="1.69811">
        <ele>153</ele>
        <time>2019-02-06T09:47:22.000Z</time>
      </trkpt>
      <trkpt lat="43.81508" lon="1.69815">
        <ele>152.5</ele>
        <time>2019-02-06T09:47:36.000Z</time>
      </trkpt>
      <trkpt lat="43.81517" lon="1.69817">
        <ele>152.3</ele>
        <time>2019-02-06T09:47:47.000Z</time>
      </trkpt>
      <trkpt lat="43.81527" lon="1.69818">
        <ele>151.6</ele>
        <time>2019-02-06T09:47:57.000Z</time>
      </trkpt>
      <trkpt lat="43.81536" lon="1.69819">
        <ele>150.4</ele>
        <time>2019-02-06T09:48:14.000Z</time>
      </trkpt>
      <trkpt lat="43.81545" lon="1.69817">
        <ele>148.9</ele>
        <time>2019-02-06T09:48:31.000Z</time>
      </trkpt>
      <trkpt lat="43.81554" lon="1.69819">
        <ele>146.1</ele>
        <time>2019-02-06T09:48:56.000Z</time>
      </trkpt>
      <trkpt lat="43.81552" lon="1.69833">
        <ele>146.5</ele>
        <time>2019-02-06T09:50:18.000Z</time>
      </trkpt>
      <trkpt lat="43.81556" lon="1.69844">
        <ele>146.8</ele>
        <time>2019-02-06T09:50:33.000Z</time>
      </trkpt>
      <trkpt lat="43.81555" lon="1.69857">
        <ele>147</ele>
        <time>2019-02-06T09:50:47.000Z</time>
      </trkpt>
      <trkpt lat="43.81557" lon="1.69867">
        <ele>147.3</ele>
        <time>2019-02-06T09:50:59.000Z</time>
      </trkpt>
      <trkpt lat="43.81558" lon="1.69879">
        <ele>147.4</ele>
        <time>2019-02-06T09:51:16.000Z</time>
      </trkpt>
      <trkpt lat="43.81557" lon="1.69892">
        <ele>147.6</ele>
        <time>2019-02-06T09:51:29.000Z</time>
      </trkpt>
      <trkpt lat="43.81558" lon="1.69902">
        <ele>147.8</ele>
        <time>2019-02-06T09:51:41.000Z</time>
      </trkpt>
      <trkpt lat="43.81556" lon="1.69913">
        <ele>147.9</ele>
        <time>2019-02-06T09:51:50.000Z</time>
      </trkpt>
      <trkpt lat="43.81555" lon="1.69925">
        <ele>147.9</ele>
        <time>2019-02-06T09:52:0.000Z</time>
      </trkpt>
      <trkpt lat="43.81554" lon="1.6994">
        <ele>147.7</ele>
        <time>2019-02-06T09:52:11.000Z</time>
      </trkpt>
      <trkpt lat="43.81554" lon="1.69952">
        <ele>152.3</ele>
        <time>2019-02-06T09:52:22.000Z</time>
      </trkpt>
      <trkpt lat="43.81553" lon="1.69964">
        <ele>152.7</ele>
        <time>2019-02-06T09:52:31.000Z</time>
      </trkpt>
      <trkpt lat="43.81549" lon="1.69976">
        <ele>153.2</ele>
        <time>2019-02-06T09:52:42.000Z</time>
      </trkpt>
      <trkpt lat="43.81548" lon="1.69989">
        <ele>153.5</ele>
        <time>2019-02-06T09:52:51.000Z</time>
      </trkpt>
      <trkpt lat="43.81546" lon="1.70002">
        <ele>153.8</ele>
        <time>2019-02-06T09:53:1.000Z</time>
      </trkpt>
      <trkpt lat="43.81546" lon="1.70015">
        <ele>154.1</ele>
        <time>2019-02-06T09:53:11.000Z</time>
      </trkpt>
      <trkpt lat="43.81546" lon="1.70029">
        <ele>154.2</ele>
        <time>2019-02-06T09:53:20.000Z</time>
      </trkpt>
      <trkpt lat="43.81546" lon="1.70042">
        <ele>154.5</ele>
        <time>2019-02-06T09:53:29.000Z</time>
      </trkpt>
      <trkpt lat="43.81545" lon="1.70054">
        <ele>154.8</ele>
        <time>2019-02-06T09:53:38.000Z</time>
      </trkpt>
      <trkpt lat="43.81546" lon="1.70067">
        <ele>155.2</ele>
        <time>2019-02-06T09:53:48.000Z</time>
      </trkpt>
      <trkpt lat="43.81548" lon="1.7008">
        <ele>155.7</ele>
        <time>2019-02-06T09:53:59.000Z</time>
      </trkpt>
      <trkpt lat="43.81551" lon="1.70092">
        <ele>156.2</ele>
        <time>2019-02-06T09:54:9.000Z</time>
      </trkpt>
      <trkpt lat="43.81551" lon="1.70106">
        <ele>156.5</ele>
        <time>2019-02-06T09:54:19.000Z</time>
      </trkpt>
      <trkpt lat="43.81553" lon="1.70118">
        <ele>156.9</ele>
        <time>2019-02-06T09:54:30.000Z</time>
      </trkpt>
      <trkpt lat="43.81554" lon="1.70131">
        <ele>157.2</ele>
        <time>2019-02-06T09:54:39.000Z</time>
      </trkpt>
      <trkpt lat="43.81556" lon="1.70144">
        <ele>157.3</ele>
        <time>2019-02-06T09:54:49.000Z</time>
      </trkpt>
      <trkpt lat="43.81557" lon="1.70156">
        <ele>157.6</ele>
        <time>2019-02-06T09:54:58.000Z</time>
      </trkpt>
      <trkpt lat="43.81558" lon="1.70169">
        <ele>157.9</ele>
        <time>2019-02-06T09:55:7.000Z</time>
      </trkpt>
      <trkpt lat="43.81559" lon="1.70182">
        <ele>158.4</ele>
        <time>2019-02-06T09:55:17.000Z</time>
      </trkpt>
      <trkpt lat="43.81561" lon="1.70195">
        <ele>158.8</ele>
        <time>2019-02-06T09:55:27.000Z</time>
      </trkpt>
      <trkpt lat="43.81562" lon="1.70208">
        <ele>159.2</ele>
        <time>2019-02-06T09:55:37.000Z</time>
      </trkpt>
      <trkpt lat="43.81563" lon="1.7022">
        <ele>159.5</ele>
        <time>2019-02-06T09:55:46.000Z</time>
      </trkpt>
      <trkpt lat="43.81562" lon="1.70233">
        <ele>159.5</ele>
        <time>2019-02-06T09:55:55.000Z</time>
      </trkpt>
      <trkpt lat="43.81559" lon="1.70245">
        <ele>159.5</ele>
        <time>2019-02-06T09:56:4.000Z</time>
      </trkpt>
      <trkpt lat="43.81556" lon="1.70257">
        <ele>159.4</ele>
        <time>2019-02-06T09:56:13.000Z</time>
      </trkpt>
      <trkpt lat="43.81552" lon="1.7027">
        <ele>159.3</ele>
        <time>2019-02-06T09:56:23.000Z</time>
      </trkpt>
      <trkpt lat="43.81548" lon="1.70282">
        <ele>159.1</ele>
        <time>2019-02-06T09:56:35.000Z</time>
      </trkpt>
      <trkpt lat="43.81546" lon="1.70294">
        <ele>159.2</ele>
        <time>2019-02-06T09:56:45.000Z</time>
      </trkpt>
      <trkpt lat="43.81542" lon="1.70306">
        <ele>159.4</ele>
        <time>2019-02-06T09:56:54.000Z</time>
      </trkpt>
      <trkpt lat="43.8154" lon="1.70319">
        <ele>159.6</ele>
        <time>2019-02-06T09:57:6.000Z</time>
      </trkpt>
      <trkpt lat="43.81545" lon="1.70331">
        <ele>159.3</ele>
        <time>2019-02-06T09:57:24.000Z</time>
      </trkpt>
      <trkpt lat="43.81552" lon="1.7034">
        <ele>158.4</ele>
        <time>2019-02-06T09:57:34.000Z</time>
      </trkpt>
      <trkpt lat="43.8156" lon="1.70349">
        <ele>157.9</ele>
        <time>2019-02-06T09:57:44.000Z</time>
      </trkpt>
      <trkpt lat="43.81567" lon="1.70357">
        <ele>157.5</ele>
        <time>2019-02-06T09:57:52.000Z</time>
      </trkpt>
      <trkpt lat="43.81575" lon="1.70365">
        <ele>157.2</ele>
        <time>2019-02-06T09:58:0.000Z</time>
      </trkpt>
      <trkpt lat="43.81582" lon="1.70372">
        <ele>156.9</ele>
        <time>2019-02-06T09:58:9.000Z</time>
      </trkpt>
      <trkpt lat="43.81591" lon="1.70378">
        <ele>156.5</ele>
        <time>2019-02-06T09:58:19.000Z</time>
      </trkpt>
      <trkpt lat="43.81599" lon="1.70385">
        <ele>156.1</ele>
        <time>2019-02-06T09:58:27.000Z</time>
      </trkpt>
      <trkpt lat="43.81606" lon="1.70393">
        <ele>155.8</ele>
        <time>2019-02-06T09:58:36.000Z</time>
      </trkpt>
      <trkpt lat="43.81614" lon="1.70401">
        <ele>155.5</ele>
        <time>2019-02-06T09:58:45.000Z</time>
      </trkpt>
      <trkpt lat="43.81621" lon="1.70409">
        <ele>155.2</ele>
        <time>2019-02-06T09:58:54.000Z</time>
      </trkpt>
      <trkpt lat="43.8163" lon="1.70415">
        <ele>154.4</ele>
        <time>2019-02-06T09:59:6.000Z</time>
      </trkpt>
      <trkpt lat="43.81639" lon="1.70414">
        <ele>153.4</ele>
        <time>2019-02-06T09:59:21.000Z</time>
      </trkpt>
      <trkpt lat="43.81648" lon="1.70411">
        <ele>152.5</ele>
        <time>2019-02-06T09:59:33.000Z</time>
      </trkpt>
      <trkpt lat="43.81657" lon="1.70407">
        <ele>151.9</ele>
        <time>2019-02-06T09:59:45.000Z</time>
      </trkpt>
      <trkpt lat="43.81666" lon="1.7041">
        <ele>151.6</ele>
        <time>2019-02-06T09:59:59.000Z</time>
      </trkpt>
      <trkpt lat="43.81682" lon="1.70411">
        <ele>150</ele>
        <time>2019-02-06T10:00:52.000Z</time>
      </trkpt>
      <trkpt lat="43.81692" lon="1.70409">
        <ele>150.3</ele>
        <time>2019-02-06T10:01:5.000Z</time>
      </trkpt>
      <trkpt lat="43.81702" lon="1.7041">
        <ele>150.2</ele>
        <time>2019-02-06T10:01:15.000Z</time>
      </trkpt>
      <trkpt lat="43.81711" lon="1.70409">
        <ele>150.1</ele>
        <time>2019-02-06T10:01:24.000Z</time>
      </trkpt>
      <trkpt lat="43.8172" lon="1.7041">
        <ele>149.9</ele>
        <time>2019-02-06T10:01:32.000Z</time>
      </trkpt>
      <trkpt lat="43.81729" lon="1.7041">
        <ele>150.2</ele>
        <time>2019-02-06T10:01:40.000Z</time>
      </trkpt>
      <trkpt lat="43.81738" lon="1.70412">
        <ele>150.4</ele>
        <time>2019-02-06T10:01:48.000Z</time>
      </trkpt>
      <trkpt lat="43.81748" lon="1.70414">
        <ele>150.2</ele>
        <time>2019-02-06T10:01:58.000Z</time>
      </trkpt>
      <trkpt lat="43.81757" lon="1.70416">
        <ele>150.2</ele>
        <time>2019-02-06T10:02:10.000Z</time>
      </trkpt>
      <trkpt lat="43.81766" lon="1.70417">
        <ele>150.3</ele>
        <time>2019-02-06T10:02:20.000Z</time>
      </trkpt>
      <trkpt lat="43.81774" lon="1.70421">
        <ele>150.4</ele>
        <time>2019-02-06T10:02:27.000Z</time>
      </trkpt>
      <trkpt lat="43.81784" lon="1.70424">
        <ele>150.3</ele>
        <time>2019-02-06T10:02:35.000Z</time>
      </trkpt>
      <trkpt lat="43.81793" lon="1.70426">
        <ele>150.4</ele>
        <time>2019-02-06T10:02:44.000Z</time>
      </trkpt>
      <trkpt lat="43.81802" lon="1.70428">
        <ele>150.3</ele>
        <time>2019-02-06T10:02:53.000Z</time>
      </trkpt>
      <trkpt lat="43.81811" lon="1.70432">
        <ele>150.4</ele>
        <time>2019-02-06T10:03:4.000Z</time>
      </trkpt>
      <trkpt lat="43.81821" lon="1.70433">
        <ele>151</ele>
        <time>2019-02-06T10:03:16.000Z</time>
      </trkpt>
      <trkpt lat="43.8183" lon="1.70436">
        <ele>151.4</ele>
        <time>2019-02-06T10:03:26.000Z</time>
      </trkpt>
      <trkpt lat="43.81839" lon="1.70439">
        <ele>151.3</ele>
        <time>2019-02-06T10:03:35.000Z</time>
      </trkpt>
      <trkpt lat="43.81848" lon="1.70443">
        <ele>151.5</ele>
        <time>2019-02-06T10:03:42.000Z</time>
      </trkpt>
      <trkpt lat="43.81857" lon="1.70445">
        <ele>151.3</ele>
        <time>2019-02-06T10:03:49.000Z</time>
      </trkpt>
      <trkpt lat="43.81866" lon="1.7045">
        <ele>151.1</ele>
        <time>2019-02-06T10:03:58.000Z</time>
      </trkpt>
      <trkpt lat="43.81876" lon="1.70452">
        <ele>150.9</ele>
        <time>2019-02-06T10:04:8.000Z</time>
      </trkpt>
      <trkpt lat="43.81886" lon="1.70453">
        <ele>151</ele>
        <time>2019-02-06T10:04:17.000Z</time>
      </trkpt>
      <trkpt lat="43.81896" lon="1.70451">
        <ele>151.2</ele>
        <time>2019-02-06T10:04:28.000Z</time>
      </trkpt>
      <trkpt lat="43.81905" lon="1.70448">
        <ele>151.1</ele>
        <time>2019-02-06T10:04:37.000Z</time>
      </trkpt>
      <trkpt lat="43.81914" lon="1.70447">
        <ele>151.2</ele>
        <time>2019-02-06T10:04:45.000Z</time>
      </trkpt>
      <trkpt lat="43.81922" lon="1.70439">
        <ele>151.4</ele>
        <time>2019-02-06T10:05:0.000Z</time>
      </trkpt>
      <trkpt lat="43.81926" lon="1.70427">
        <ele>151.5</ele>
        <time>2019-02-06T10:05:9.000Z</time>
      </trkpt>
      <trkpt lat="43.81929" lon="1.70415">
        <ele>151.2</ele>
        <time>2019-02-06T10:05:17.000Z</time>
      </trkpt>
      <trkpt lat="43.81932" lon="1.70403">
        <ele>151</ele>
        <time>2019-02-06T10:05:25.000Z</time>
      </trkpt>
      <trkpt lat="43.81937" lon="1.70391">
        <ele>151</ele>
        <time>2019-02-06T10:05:35.000Z</time>
      </trkpt>
      <trkpt lat="43.81941" lon="1.70379">
        <ele>151</ele>
        <time>2019-02-06T10:05:44.000Z</time>
      </trkpt>
      <trkpt lat="43.81944" lon="1.70366">
        <ele>151</ele>
        <time>2019-02-06T10:05:54.000Z</time>
      </trkpt>
      <trkpt lat="43.81948" lon="1.70355">
        <ele>151.2</ele>
        <time>2019-02-06T10:06:4.000Z</time>
      </trkpt>
      <trkpt lat="43.81953" lon="1.70343">
        <ele>151.4</ele>
        <time>2019-02-06T10:06:14.000Z</time>
      </trkpt>
      <trkpt lat="43.81955" lon="1.70331">
        <ele>151.2</ele>
        <time>2019-02-06T10:06:23.000Z</time>
      </trkpt>
      <trkpt lat="43.8196" lon="1.70319">
        <ele>151.3</ele>
        <time>2019-02-06T10:06:31.000Z</time>
      </trkpt>
      <trkpt lat="43.81964" lon="1.70306">
        <ele>151.4</ele>
        <time>2019-02-06T10:06:39.000Z</time>
      </trkpt>
      <trkpt lat="43.81963" lon="1.70295">
        <ele>154.5</ele>
        <time>2019-02-06T10:06:48.000Z</time>
      </trkpt>
      <trkpt lat="43.81967" lon="1.70285">
        <ele>155.2</ele>
        <time>2019-02-06T10:06:55.000Z</time>
      </trkpt>
      <trkpt lat="43.81968" lon="1.70272">
        <ele>155.8</ele>
        <time>2019-02-06T10:07:6.000Z</time>
      </trkpt>
      <trkpt lat="43.81972" lon="1.7026">
        <ele>156.6</ele>
        <time>2019-02-06T10:07:16.000Z</time>
      </trkpt>
      <trkpt lat="43.81976" lon="1.70248">
        <ele>157.2</ele>
        <time>2019-02-06T10:07:26.000Z</time>
      </trkpt>
      <trkpt lat="43.81978" lon="1.70237">
        <ele>157.6</ele>
        <time>2019-02-06T10:07:36.000Z</time>
      </trkpt>
      <trkpt lat="43.81981" lon="1.70228">
        <ele>158</ele>
        <time>2019-02-06T10:07:47.000Z</time>
      </trkpt>
      <trkpt lat="43.81986" lon="1.70216">
        <ele>158.6</ele>
        <time>2019-02-06T10:07:53.000Z</time>
      </trkpt>
      <trkpt lat="43.81988" lon="1.70198">
        <ele>159.3</ele>
        <time>2019-02-06T10:08:6.000Z</time>
      </trkpt>
      <trkpt lat="43.81993" lon="1.70187">
        <ele>159.9</ele>
        <time>2019-02-06T10:08:19.000Z</time>
      </trkpt>
      <trkpt lat="43.81997" lon="1.70176">
        <ele>160.5</ele>
        <time>2019-02-06T10:08:31.000Z</time>
      </trkpt>
      <trkpt lat="43.82" lon="1.70166">
        <ele>161</ele>
        <time>2019-02-06T10:08:41.000Z</time>
      </trkpt>
      <trkpt lat="43.82004" lon="1.70152">
        <ele>162</ele>
        <time>2019-02-06T10:08:51.000Z</time>
      </trkpt>
      <trkpt lat="43.8201" lon="1.70143">
        <ele>158.1</ele>
        <time>2019-02-06T10:08:56.000Z</time>
      </trkpt>
      <trkpt lat="43.82018" lon="1.70137">
        <ele>159.9</ele>
        <time>2019-02-06T10:09:34.000Z</time>
      </trkpt>
      <trkpt lat="43.82027" lon="1.7014">
        <ele>160.1</ele>
        <time>2019-02-06T10:09:48.000Z</time>
      </trkpt>
      <trkpt lat="43.82036" lon="1.70143">
        <ele>160.2</ele>
        <time>2019-02-06T10:10:0.000Z</time>
      </trkpt>
      <trkpt lat="43.82045" lon="1.70146">
        <ele>160.4</ele>
        <time>2019-02-06T10:10:13.000Z</time>
      </trkpt>
      <trkpt lat="43.82055" lon="1.70146">
        <ele>161</ele>
        <time>2019-02-06T10:10:24.000Z</time>
      </trkpt>
      <trkpt lat="43.82064" lon="1.70147">
        <ele>161.9</ele>
        <time>2019-02-06T10:10:39.000Z</time>
      </trkpt>
      <trkpt lat="43.82073" lon="1.70144">
        <ele>162.8</ele>
        <time>2019-02-06T10:10:51.000Z</time>
      </trkpt>
      <trkpt lat="43.82082" lon="1.70139">
        <ele>163.6</ele>
        <time>2019-02-06T10:11:2.000Z</time>
      </trkpt>
      <trkpt lat="43.8209" lon="1.70132">
        <ele>164.4</ele>
        <time>2019-02-06T10:11:12.000Z</time>
      </trkpt>
      <trkpt lat="43.82098" lon="1.70126">
        <ele>165.5</ele>
        <time>2019-02-06T10:11:22.000Z</time>
      </trkpt>
      <trkpt lat="43.82106" lon="1.70118">
        <ele>166.7</ele>
        <time>2019-02-06T10:11:36.000Z</time>
      </trkpt>
      <trkpt lat="43.82114" lon="1.70111">
        <ele>167.7</ele>
        <time>2019-02-06T10:11:49.000Z</time>
      </trkpt>
      <trkpt lat="43.82122" lon="1.70104">
        <ele>168.5</ele>
        <time>2019-02-06T10:12:0.000Z</time>
      </trkpt>
      <trkpt lat="43.8213" lon="1.70095">
        <ele>169.7</ele>
        <time>2019-02-06T10:12:20.000Z</time>
      </trkpt>
      <trkpt lat="43.82137" lon="1.70088">
        <ele>170.1</ele>
        <time>2019-02-06T10:12:30.000Z</time>
      </trkpt>
      <trkpt lat="43.82144" lon="1.70079">
        <ele>171.1</ele>
        <time>2019-02-06T10:12:42.000Z</time>
      </trkpt>
      <trkpt lat="43.82151" lon="1.7007">
        <ele>171.9</ele>
        <time>2019-02-06T10:12:53.000Z</time>
      </trkpt>
      <trkpt lat="43.82158" lon="1.70061">
        <ele>172.8</ele>
        <time>2019-02-06T10:13:4.000Z</time>
      </trkpt>
      <trkpt lat="43.82164" lon="1.70051">
        <ele>173.7</ele>
        <time>2019-02-06T10:13:16.000Z</time>
      </trkpt>
      <trkpt lat="43.8217" lon="1.70041">
        <ele>174.8</ele>
        <time>2019-02-06T10:13:27.000Z</time>
      </trkpt>
      <trkpt lat="43.82177" lon="1.70032">
        <ele>176.5</ele>
        <time>2019-02-06T10:13:44.000Z</time>
      </trkpt>
      <trkpt lat="43.82184" lon="1.70024">
        <ele>177.9</ele>
        <time>2019-02-06T10:14:1.000Z</time>
      </trkpt>
      <trkpt lat="43.82192" lon="1.70015">
        <ele>178.9</ele>
        <time>2019-02-06T10:14:12.000Z</time>
      </trkpt>
      <trkpt lat="43.822" lon="1.70007">
        <ele>179.9</ele>
        <time>2019-02-06T10:14:23.000Z</time>
      </trkpt>
      <trkpt lat="43.82206" lon="1.69999">
        <ele>181</ele>
        <time>2019-02-06T10:14:33.000Z</time>
      </trkpt>
      <trkpt lat="43.82213" lon="1.6999">
        <ele>181.9</ele>
        <time>2019-02-06T10:14:43.000Z</time>
      </trkpt>
      <trkpt lat="43.82221" lon="1.69982">
        <ele>183.1</ele>
        <time>2019-02-06T10:14:58.000Z</time>
      </trkpt>
      <trkpt lat="43.82228" lon="1.69974">
        <ele>184</ele>
        <time>2019-02-06T10:15:10.000Z</time>
      </trkpt>
      <trkpt lat="43.82234" lon="1.69964">
        <ele>185.1</ele>
        <time>2019-02-06T10:15:22.000Z</time>
      </trkpt>
      <trkpt lat="43.8224" lon="1.69955">
        <ele>186.2</ele>
        <time>2019-02-06T10:15:34.000Z</time>
      </trkpt>
      <trkpt lat="43.82245" lon="1.69944">
        <ele>187.4</ele>
        <time>2019-02-06T10:15:44.000Z</time>
      </trkpt>
      <trkpt lat="43.82251" lon="1.69935">
        <ele>188.7</ele>
        <time>2019-02-06T10:15:57.000Z</time>
      </trkpt>
      <trkpt lat="43.82259" lon="1.69926">
        <ele>189.9</ele>
        <time>2019-02-06T10:16:10.000Z</time>
      </trkpt>
      <trkpt lat="43.82266" lon="1.69918">
        <ele>190.7</ele>
        <time>2019-02-06T10:16:20.000Z</time>
      </trkpt>
      <trkpt lat="43.82272" lon="1.69908">
        <ele>191.5</ele>
        <time>2019-02-06T10:16:30.000Z</time>
      </trkpt>
      <trkpt lat="43.82279" lon="1.69899">
        <ele>192.1</ele>
        <time>2019-02-06T10:16:39.000Z</time>
      </trkpt>
      <trkpt lat="43.82287" lon="1.69891">
        <ele>192.7</ele>
        <time>2019-02-06T10:16:48.000Z</time>
      </trkpt>
      <trkpt lat="43.82295" lon="1.69884">
        <ele>193.3</ele>
        <time>2019-02-06T10:16:58.000Z</time>
      </trkpt>
      <trkpt lat="43.82301" lon="1.69874">
        <ele>193.9</ele>
        <time>2019-02-06T10:17:8.000Z</time>
      </trkpt>
      <trkpt lat="43.82309" lon="1.69865">
        <ele>194.3</ele>
        <time>2019-02-06T10:17:17.000Z</time>
      </trkpt>
      <trkpt lat="43.82316" lon="1.69855">
        <ele>194.7</ele>
        <time>2019-02-06T10:17:31.000Z</time>
      </trkpt>
      <trkpt lat="43.82322" lon="1.69846">
        <ele>195.2</ele>
        <time>2019-02-06T10:17:41.000Z</time>
      </trkpt>
      <trkpt lat="43.82328" lon="1.69837">
        <ele>195.8</ele>
        <time>2019-02-06T10:17:51.000Z</time>
      </trkpt>
      <trkpt lat="43.82335" lon="1.69829">
        <ele>196.4</ele>
        <time>2019-02-06T10:18:4.000Z</time>
      </trkpt>
      <trkpt lat="43.82342" lon="1.6982">
        <ele>196.8</ele>
        <time>2019-02-06T10:18:18.000Z</time>
      </trkpt>
      <trkpt lat="43.82349" lon="1.69811">
        <ele>196.9</ele>
        <time>2019-02-06T10:18:31.000Z</time>
      </trkpt>
      <trkpt lat="43.82356" lon="1.69803">
        <ele>197.2</ele>
        <time>2019-02-06T10:18:43.000Z</time>
      </trkpt>
      <trkpt lat="43.82362" lon="1.69793">
        <ele>197.7</ele>
        <time>2019-02-06T10:18:53.000Z</time>
      </trkpt>
      <trkpt lat="43.82369" lon="1.69785">
        <ele>198</ele>
        <time>2019-02-06T10:19:2.000Z</time>
      </trkpt>
      <trkpt lat="43.82376" lon="1.69776">
        <ele>198.4</ele>
        <time>2019-02-06T10:19:11.000Z</time>
      </trkpt>
      <trkpt lat="43.82382" lon="1.69767">
        <ele>198.7</ele>
        <time>2019-02-06T10:19:20.000Z</time>
      </trkpt>
      <trkpt lat="43.82388" lon="1.69756">
        <ele>199.4</ele>
        <time>2019-02-06T10:19:34.000Z</time>
      </trkpt>
      <trkpt lat="43.82395" lon="1.69746">
        <ele>199.8</ele>
        <time>2019-02-06T10:19:47.000Z</time>
      </trkpt>
      <trkpt lat="43.82401" lon="1.69737">
        <ele>200.1</ele>
        <time>2019-02-06T10:19:57.000Z</time>
      </trkpt>
      <trkpt lat="43.82407" lon="1.69727">
        <ele>200.5</ele>
        <time>2019-02-06T10:20:5.000Z</time>
      </trkpt>
      <trkpt lat="43.82415" lon="1.6972">
        <ele>200.8</ele>
        <time>2019-02-06T10:20:16.000Z</time>
      </trkpt>
      <trkpt lat="43.82421" lon="1.6971">
        <ele>201.2</ele>
        <time>2019-02-06T10:20:29.000Z</time>
      </trkpt>
      <trkpt lat="43.82426" lon="1.69699">
        <ele>201.6</ele>
        <time>2019-02-06T10:20:43.000Z</time>
      </trkpt>
      <trkpt lat="43.82433" lon="1.69689">
        <ele>202.3</ele>
        <time>2019-02-06T10:20:55.000Z</time>
      </trkpt>
      <trkpt lat="43.8244" lon="1.6968">
        <ele>203.2</ele>
        <time>2019-02-06T10:21:8.000Z</time>
      </trkpt>
      <trkpt lat="43.82448" lon="1.69672">
        <ele>204</ele>
        <time>2019-02-06T10:21:19.000Z</time>
      </trkpt>
      <trkpt lat="43.82457" lon="1.69667">
        <ele>204.5</ele>
        <time>2019-02-06T10:21:29.000Z</time>
      </trkpt>
      <trkpt lat="43.82464" lon="1.69658">
        <ele>204.8</ele>
        <time>2019-02-06T10:21:40.000Z</time>
      </trkpt>
      <trkpt lat="43.82471" lon="1.69649">
        <ele>205</ele>
        <time>2019-02-06T10:21:51.000Z</time>
      </trkpt>
      <trkpt lat="43.82479" lon="1.69643">
        <ele>205.1</ele>
        <time>2019-02-06T10:22:2.000Z</time>
      </trkpt>
      <trkpt lat="43.82485" lon="1.69632">
        <ele>205</ele>
        <time>2019-02-06T10:22:15.000Z</time>
      </trkpt>
      <trkpt lat="43.82493" lon="1.69626">
        <ele>204.5</ele>
        <time>2019-02-06T10:22:24.000Z</time>
      </trkpt>
      <trkpt lat="43.82502" lon="1.6962">
        <ele>204.3</ele>
        <time>2019-02-06T10:22:35.000Z</time>
      </trkpt>
      <trkpt lat="43.82511" lon="1.69615">
        <ele>204.1</ele>
        <time>2019-02-06T10:22:44.000Z</time>
      </trkpt>
      <trkpt lat="43.82518" lon="1.69607">
        <ele>204.1</ele>
        <time>2019-02-06T10:22:55.000Z</time>
      </trkpt>
      <trkpt lat="43.8253" lon="1.69597">
        <ele>205</ele>
        <time>2019-02-06T10:30:18.000Z</time>
      </trkpt>
      <trkpt lat="43.82536" lon="1.69588">
        <ele>204.2</ele>
        <time>2019-02-06T10:30:27.000Z</time>
      </trkpt>
      <trkpt lat="43.82544" lon="1.69579">
        <ele>203.7</ele>
        <time>2019-02-06T10:30:38.000Z</time>
      </trkpt>
      <trkpt lat="43.82551" lon="1.69571">
        <ele>203.5</ele>
        <time>2019-02-06T10:30:48.000Z</time>
      </trkpt>
      <trkpt lat="43.82559" lon="1.69564">
        <ele>203.3</ele>
        <time>2019-02-06T10:30:59.000Z</time>
      </trkpt>
      <trkpt lat="43.82566" lon="1.69555">
        <ele>203.1</ele>
        <time>2019-02-06T10:31:16.000Z</time>
      </trkpt>
      <trkpt lat="43.82573" lon="1.69547">
        <ele>202.5</ele>
        <time>2019-02-06T10:31:30.000Z</time>
      </trkpt>
      <trkpt lat="43.82579" lon="1.69538">
        <ele>202.6</ele>
        <time>2019-02-06T10:31:38.000Z</time>
      </trkpt>
      <trkpt lat="43.82587" lon="1.6953">
        <ele>202.5</ele>
        <time>2019-02-06T10:31:50.000Z</time>
      </trkpt>
      <trkpt lat="43.82596" lon="1.69523">
        <ele>202.4</ele>
        <time>2019-02-06T10:32:0.000Z</time>
      </trkpt>
      <trkpt lat="43.82604" lon="1.69516">
        <ele>202.3</ele>
        <time>2019-02-06T10:32:9.000Z</time>
      </trkpt>
      <trkpt lat="43.82611" lon="1.69508">
        <ele>202.4</ele>
        <time>2019-02-06T10:32:21.000Z</time>
      </trkpt>
      <trkpt lat="43.82619" lon="1.695">
        <ele>202.5</ele>
        <time>2019-02-06T10:32:31.000Z</time>
      </trkpt>
      <trkpt lat="43.82626" lon="1.6949">
        <ele>202.7</ele>
        <time>2019-02-06T10:32:43.000Z</time>
      </trkpt>
      <trkpt lat="43.82633" lon="1.69481">
        <ele>202.9</ele>
        <time>2019-02-06T10:32:54.000Z</time>
      </trkpt>
      <trkpt lat="43.8264" lon="1.69472">
        <ele>203</ele>
        <time>2019-02-06T10:33:3.000Z</time>
      </trkpt>
      <trkpt lat="43.82645" lon="1.69461">
        <ele>203.3</ele>
        <time>2019-02-06T10:33:13.000Z</time>
      </trkpt>
      <trkpt lat="43.82651" lon="1.69452">
        <ele>203.4</ele>
        <time>2019-02-06T10:33:24.000Z</time>
      </trkpt>
      <trkpt lat="43.82658" lon="1.69443">
        <ele>203.5</ele>
        <time>2019-02-06T10:33:37.000Z</time>
      </trkpt>
      <trkpt lat="43.82665" lon="1.69433">
        <ele>203.5</ele>
        <time>2019-02-06T10:33:49.000Z</time>
      </trkpt>
      <trkpt lat="43.82673" lon="1.69426">
        <ele>203.3</ele>
        <time>2019-02-06T10:34:1.000Z</time>
      </trkpt>
      <trkpt lat="43.8268" lon="1.69424">
        <ele>200.7</ele>
        <time>2019-02-06T10:34:10.000Z</time>
      </trkpt>
      <trkpt lat="43.82689" lon="1.69416">
        <ele>203.2</ele>
        <time>2019-02-06T10:34:25.000Z</time>
      </trkpt>
      <trkpt lat="43.82698" lon="1.69409">
        <ele>203.5</ele>
        <time>2019-02-06T10:34:34.000Z</time>
      </trkpt>
      <trkpt lat="43.82704" lon="1.69399">
        <ele>203.8</ele>
        <time>2019-02-06T10:34:41.000Z</time>
      </trkpt>
      <trkpt lat="43.82712" lon="1.69392">
        <ele>204</ele>
        <time>2019-02-06T10:34:51.000Z</time>
      </trkpt>
      <trkpt lat="43.82719" lon="1.69383">
        <ele>204.3</ele>
        <time>2019-02-06T10:35:4.000Z</time>
      </trkpt>
      <trkpt lat="43.82725" lon="1.69372">
        <ele>204.8</ele>
        <time>2019-02-06T10:35:17.000Z</time>
      </trkpt>
      <trkpt lat="43.82731" lon="1.69362">
        <ele>205</ele>
        <time>2019-02-06T10:35:25.000Z</time>
      </trkpt>
      <trkpt lat="43.82737" lon="1.69352">
        <ele>204.9</ele>
        <time>2019-02-06T10:35:33.000Z</time>
      </trkpt>
      <trkpt lat="43.82742" lon="1.69341">
        <ele>205.1</ele>
        <time>2019-02-06T10:35:42.000Z</time>
      </trkpt>
      <trkpt lat="43.82746" lon="1.6933">
        <ele>205.3</ele>
        <time>2019-02-06T10:35:52.000Z</time>
      </trkpt>
      <trkpt lat="43.82751" lon="1.69318">
        <ele>205.4</ele>
        <time>2019-02-06T10:36:3.000Z</time>
      </trkpt>
      <trkpt lat="43.82754" lon="1.69305">
        <ele>205.3</ele>
        <time>2019-02-06T10:36:15.000Z</time>
      </trkpt>
      <trkpt lat="43.82759" lon="1.69293">
        <ele>203.8</ele>
        <time>2019-02-06T10:36:36.000Z</time>
      </trkpt>
      <trkpt lat="43.82759" lon="1.6928">
        <ele>203.9</ele>
        <time>2019-02-06T10:36:44.000Z</time>
      </trkpt>
      <trkpt lat="43.82763" lon="1.69268">
        <ele>203.9</ele>
        <time>2019-02-06T10:36:53.000Z</time>
      </trkpt>
      <trkpt lat="43.82768" lon="1.69257">
        <ele>203.8</ele>
        <time>2019-02-06T10:37:3.000Z</time>
      </trkpt>
      <trkpt lat="43.82773" lon="1.69246">
        <ele>203.8</ele>
        <time>2019-02-06T10:37:18.000Z</time>
      </trkpt>
      <trkpt lat="43.82779" lon="1.69236">
        <ele>203.4</ele>
        <time>2019-02-06T10:37:27.000Z</time>
      </trkpt>
      <trkpt lat="43.82785" lon="1.69224">
        <ele>203.2</ele>
        <time>2019-02-06T10:37:36.000Z</time>
      </trkpt>
      <trkpt lat="43.82791" lon="1.69214">
        <ele>203.2</ele>
        <time>2019-02-06T10:37:45.000Z</time>
      </trkpt>
      <trkpt lat="43.82796" lon="1.69203">
        <ele>203.3</ele>
        <time>2019-02-06T10:37:54.000Z</time>
      </trkpt>
      <trkpt lat="43.82801" lon="1.69191">
        <ele>203.5</ele>
        <time>2019-02-06T10:38:3.000Z</time>
      </trkpt>
      <trkpt lat="43.82806" lon="1.69179">
        <ele>203.7</ele>
        <time>2019-02-06T10:38:11.000Z</time>
      </trkpt>
      <trkpt lat="43.82811" lon="1.69169">
        <ele>203.9</ele>
        <time>2019-02-06T10:38:19.000Z</time>
      </trkpt>
      <trkpt lat="43.82816" lon="1.69158">
        <ele>204</ele>
        <time>2019-02-06T10:38:28.000Z</time>
      </trkpt>
      <trkpt lat="43.8282" lon="1.69146">
        <ele>204.2</ele>
        <time>2019-02-06T10:38:37.000Z</time>
      </trkpt>
      <trkpt lat="43.82826" lon="1.69136">
        <ele>204.5</ele>
        <time>2019-02-06T10:38:46.000Z</time>
      </trkpt>
      <trkpt lat="43.82831" lon="1.69124">
        <ele>204.6</ele>
        <time>2019-02-06T10:38:56.000Z</time>
      </trkpt>
      <trkpt lat="43.82836" lon="1.69113">
        <ele>204.7</ele>
        <time>2019-02-06T10:39:5.000Z</time>
      </trkpt>
      <trkpt lat="43.82842" lon="1.69103">
        <ele>204.9</ele>
        <time>2019-02-06T10:39:15.000Z</time>
      </trkpt>
      <trkpt lat="43.8285" lon="1.69094">
        <ele>205.2</ele>
        <time>2019-02-06T10:39:24.000Z</time>
      </trkpt>
      <trkpt lat="43.82857" lon="1.69085">
        <ele>205.3</ele>
        <time>2019-02-06T10:39:32.000Z</time>
      </trkpt>
      <trkpt lat="43.82864" lon="1.69078">
        <ele>205.5</ele>
        <time>2019-02-06T10:39:41.000Z</time>
      </trkpt>
      <trkpt lat="43.82873" lon="1.69072">
        <ele>205.9</ele>
        <time>2019-02-06T10:39:53.000Z</time>
      </trkpt>
      <trkpt lat="43.8288" lon="1.69062">
        <ele>206.4</ele>
        <time>2019-02-06T10:40:5.000Z</time>
      </trkpt>
      <trkpt lat="43.82886" lon="1.69053">
        <ele>206.6</ele>
        <time>2019-02-06T10:40:15.000Z</time>
      </trkpt>
      <trkpt lat="43.82893" lon="1.69044">
        <ele>207</ele>
        <time>2019-02-06T10:40:24.000Z</time>
      </trkpt>
      <trkpt lat="43.829" lon="1.69036">
        <ele>207.5</ele>
        <time>2019-02-06T10:40:36.000Z</time>
      </trkpt>
      <trkpt lat="43.82907" lon="1.69028">
        <ele>207.7</ele>
        <time>2019-02-06T10:40:47.000Z</time>
      </trkpt>
      <trkpt lat="43.82916" lon="1.69022">
        <ele>207.9</ele>
        <time>2019-02-06T10:40:59.000Z</time>
      </trkpt>
      <trkpt lat="43.82924" lon="1.69012">
        <ele>208.2</ele>
        <time>2019-02-06T10:41:20.000Z</time>
      </trkpt>
      <trkpt lat="43.82933" lon="1.69017">
        <ele>208.3</ele>
        <time>2019-02-06T10:43:37.000Z</time>
      </trkpt>
      <trkpt lat="43.8294" lon="1.69026">
        <ele>208.8</ele>
        <time>2019-02-06T10:43:48.000Z</time>
      </trkpt>
      <trkpt lat="43.82948" lon="1.69034">
        <ele>209.1</ele>
        <time>2019-02-06T10:43:56.000Z</time>
      </trkpt>
      <trkpt lat="43.82953" lon="1.69045">
        <ele>211</ele>
        <time>2019-02-06T10:44:3.000Z</time>
      </trkpt>
      <trkpt lat="43.82959" lon="1.69055">
        <ele>211.4</ele>
        <time>2019-02-06T10:44:10.000Z</time>
      </trkpt>
      <trkpt lat="43.82966" lon="1.69064">
        <ele>211.5</ele>
        <time>2019-02-06T10:44:17.000Z</time>
      </trkpt>
      <trkpt lat="43.82972" lon="1.69074">
        <ele>211.4</ele>
        <time>2019-02-06T10:44:26.000Z</time>
      </trkpt>
      <trkpt lat="43.82979" lon="1.69083">
        <ele>211.8</ele>
        <time>2019-02-06T10:44:37.000Z</time>
      </trkpt>
      <trkpt lat="43.82987" lon="1.6909">
        <ele>212.4</ele>
        <time>2019-02-06T10:44:52.000Z</time>
      </trkpt>
      <trkpt lat="43.82996" lon="1.69097">
        <ele>213.1</ele>
        <time>2019-02-06T10:45:3.000Z</time>
      </trkpt>
      <trkpt lat="43.83005" lon="1.69104">
        <ele>214.2</ele>
        <time>2019-02-06T10:45:15.000Z</time>
      </trkpt>
      <trkpt lat="43.83012" lon="1.69111">
        <ele>214.9</ele>
        <time>2019-02-06T10:45:25.000Z</time>
      </trkpt>
      <trkpt lat="43.83022" lon="1.69113">
        <ele>215.9</ele>
        <time>2019-02-06T10:45:37.000Z</time>
      </trkpt>
      <trkpt lat="43.83032" lon="1.69115">
        <ele>216.8</ele>
        <time>2019-02-06T10:45:46.000Z</time>
      </trkpt>
      <trkpt lat="43.83041" lon="1.69115">
        <ele>217.6</ele>
        <time>2019-02-06T10:45:55.000Z</time>
      </trkpt>
      <trkpt lat="43.83051" lon="1.69117">
        <ele>218.3</ele>
        <time>2019-02-06T10:46:4.000Z</time>
      </trkpt>
      <trkpt lat="43.8306" lon="1.6912">
        <ele>219.3</ele>
        <time>2019-02-06T10:46:16.000Z</time>
      </trkpt>
      <trkpt lat="43.83069" lon="1.69124">
        <ele>219.9</ele>
        <time>2019-02-06T10:46:25.000Z</time>
      </trkpt>
      <trkpt lat="43.83079" lon="1.69132">
        <ele>220.5</ele>
        <time>2019-02-06T10:46:35.000Z</time>
      </trkpt>
      <trkpt lat="43.83088" lon="1.69137">
        <ele>220.8</ele>
        <time>2019-02-06T10:46:39.000Z</time>
      </trkpt>
      <trkpt lat="43.83097" lon="1.69139">
        <ele>221.6</ele>
        <time>2019-02-06T10:46:53.000Z</time>
      </trkpt>
      <trkpt lat="43.83106" lon="1.69145">
        <ele>222</ele>
        <time>2019-02-06T10:47:2.000Z</time>
      </trkpt>
      <trkpt lat="43.83117" lon="1.69152">
        <ele>222.3</ele>
        <time>2019-02-06T10:47:8.000Z</time>
      </trkpt>
      <trkpt lat="43.83127" lon="1.69159">
        <ele>222.5</ele>
        <time>2019-02-06T10:47:13.000Z</time>
      </trkpt>
      <trkpt lat="43.83134" lon="1.69167">
        <ele>222.7</ele>
        <time>2019-02-06T10:47:19.000Z</time>
      </trkpt>
      <trkpt lat="43.83141" lon="1.69175">
        <ele>222.8</ele>
        <time>2019-02-06T10:47:26.000Z</time>
      </trkpt>
      <trkpt lat="43.83145" lon="1.69188">
        <ele>203.2</ele>
        <time>2019-02-06T10:47:33.000Z</time>
      </trkpt>
      <trkpt lat="43.83149" lon="1.69196">
        <ele>203.2</ele>
        <time>2019-02-06T10:47:38.000Z</time>
      </trkpt>
      <trkpt lat="43.83153" lon="1.69203">
        <ele>203.2</ele>
        <time>2019-02-06T10:47:42.000Z</time>
      </trkpt>
      <trkpt lat="43.83159" lon="1.69211">
        <ele>203.3</ele>
        <time>2019-02-06T10:47:52.000Z</time>
      </trkpt>
      <trkpt lat="43.83164" lon="1.69223">
        <ele>203.7</ele>
        <time>2019-02-06T10:48:1.000Z</time>
      </trkpt>
      <trkpt lat="43.83169" lon="1.69232">
        <ele>221.6</ele>
        <time>2019-02-06T10:48:11.000Z</time>
      </trkpt>
      <trkpt lat="43.83177" lon="1.69241">
        <ele>221.4</ele>
        <time>2019-02-06T10:48:19.000Z</time>
      </trkpt>
      <trkpt lat="43.83183" lon="1.69251">
        <ele>221.1</ele>
        <time>2019-02-06T10:48:27.000Z</time>
      </trkpt>
      <trkpt lat="43.83192" lon="1.69258">
        <ele>220.5</ele>
        <time>2019-02-06T10:48:37.000Z</time>
      </trkpt>
      <trkpt lat="43.83203" lon="1.69261">
        <ele>220</ele>
        <time>2019-02-06T10:48:42.000Z</time>
      </trkpt>
      <trkpt lat="43.8321" lon="1.69269">
        <ele>219.2</ele>
        <time>2019-02-06T10:48:50.000Z</time>
      </trkpt>
      <trkpt lat="43.83219" lon="1.69271">
        <ele>218.6</ele>
        <time>2019-02-06T10:48:58.000Z</time>
      </trkpt>
      <trkpt lat="43.83227" lon="1.69279">
        <ele>216.9</ele>
        <time>2019-02-06T10:49:8.000Z</time>
      </trkpt>
      <trkpt lat="43.83234" lon="1.69288">
        <ele>215.3</ele>
        <time>2019-02-06T10:49:21.000Z</time>
      </trkpt>
      <trkpt lat="43.83243" lon="1.69292">
        <ele>214.7</ele>
        <time>2019-02-06T10:49:27.000Z</time>
      </trkpt>
      <trkpt lat="43.83252" lon="1.69297">
        <ele>213.3</ele>
        <time>2019-02-06T10:49:39.000Z</time>
      </trkpt>
      <trkpt lat="43.83262" lon="1.69303">
        <ele>212.5</ele>
        <time>2019-02-06T10:49:47.000Z</time>
      </trkpt>
      <trkpt lat="43.83269" lon="1.69313">
        <ele>211.5</ele>
        <time>2019-02-06T10:49:56.000Z</time>
      </trkpt>
      <trkpt lat="43.83279" lon="1.69315">
        <ele>210.5</ele>
        <time>2019-02-06T10:50:6.000Z</time>
      </trkpt>
      <trkpt lat="43.83287" lon="1.69321">
        <ele>208.9</ele>
        <time>2019-02-06T10:50:21.000Z</time>
      </trkpt>
      <trkpt lat="43.83297" lon="1.69323">
        <ele>208.6</ele>
        <time>2019-02-06T10:50:27.000Z</time>
      </trkpt>
      <trkpt lat="43.83305" lon="1.69327">
        <ele>208.2</ele>
        <time>2019-02-06T10:50:36.000Z</time>
      </trkpt>
      <trkpt lat="43.83314" lon="1.6933">
        <ele>207.8</ele>
        <time>2019-02-06T10:50:45.000Z</time>
      </trkpt>
      <trkpt lat="43.83324" lon="1.69332">
        <ele>207.5</ele>
        <time>2019-02-06T10:50:54.000Z</time>
      </trkpt>
      <trkpt lat="43.83333" lon="1.69333">
        <ele>207.3</ele>
        <time>2019-02-06T10:51:2.000Z</time>
      </trkpt>
      <trkpt lat="43.83343" lon="1.69332">
        <ele>206.9</ele>
        <time>2019-02-06T10:51:11.000Z</time>
      </trkpt>
      <trkpt lat="43.83352" lon="1.6933">
        <ele>206.1</ele>
        <time>2019-02-06T10:51:19.000Z</time>
      </trkpt>
      <trkpt lat="43.83362" lon="1.6933">
        <ele>205.9</ele>
        <time>2019-02-06T10:51:28.000Z</time>
      </trkpt>
      <trkpt lat="43.83371" lon="1.69327">
        <ele>206.1</ele>
        <time>2019-02-06T10:51:36.000Z</time>
      </trkpt>
      <trkpt lat="43.83381" lon="1.69325">
        <ele>206.2</ele>
        <time>2019-02-06T10:51:47.000Z</time>
      </trkpt>
      <trkpt lat="43.8339" lon="1.69323">
        <ele>205.9</ele>
        <time>2019-02-06T10:52:19.000Z</time>
      </trkpt>
      <trkpt lat="43.834" lon="1.6932">
        <ele>205.5</ele>
        <time>2019-02-06T10:52:37.000Z</time>
      </trkpt>
      <trkpt lat="43.83408" lon="1.69314">
        <ele>205.5</ele>
        <time>2019-02-06T10:52:51.000Z</time>
      </trkpt>
      <trkpt lat="43.83415" lon="1.69306">
        <ele>205.4</ele>
        <time>2019-02-06T10:52:59.000Z</time>
      </trkpt>
      <trkpt lat="43.83423" lon="1.69298">
        <ele>205.3</ele>
        <time>2019-02-06T10:53:8.000Z</time>
      </trkpt>
      <trkpt lat="43.83432" lon="1.69295">
        <ele>205.5</ele>
        <time>2019-02-06T10:53:18.000Z</time>
      </trkpt>
      <trkpt lat="43.83441" lon="1.69289">
        <ele>205.6</ele>
        <time>2019-02-06T10:53:26.000Z</time>
      </trkpt>
      <trkpt lat="43.83448" lon="1.69283">
        <ele>205.6</ele>
        <time>2019-02-06T10:53:36.000Z</time>
      </trkpt>
      <trkpt lat="43.83457" lon="1.69277">
        <ele>205.9</ele>
        <time>2019-02-06T10:53:46.000Z</time>
      </trkpt>
      <trkpt lat="43.83466" lon="1.69271">
        <ele>205.8</ele>
        <time>2019-02-06T10:53:54.000Z</time>
      </trkpt>
      <trkpt lat="43.83473" lon="1.69264">
        <ele>206.1</ele>
        <time>2019-02-06T10:54:3.000Z</time>
      </trkpt>
      <trkpt lat="43.83479" lon="1.69254">
        <ele>206.4</ele>
        <time>2019-02-06T10:54:11.000Z</time>
      </trkpt>
      <trkpt lat="43.83486" lon="1.69246">
        <ele>206.8</ele>
        <time>2019-02-06T10:54:21.000Z</time>
      </trkpt>
      <trkpt lat="43.83494" lon="1.69236">
        <ele>207.1</ele>
        <time>2019-02-06T10:54:31.000Z</time>
      </trkpt>
      <trkpt lat="43.83502" lon="1.69228">
        <ele>207.3</ele>
        <time>2019-02-06T10:54:40.000Z</time>
      </trkpt>
      <trkpt lat="43.83509" lon="1.69219">
        <ele>207.5</ele>
        <time>2019-02-06T10:54:50.000Z</time>
      </trkpt>
      <trkpt lat="43.83515" lon="1.69209">
        <ele>207.6</ele>
        <time>2019-02-06T10:55:0.000Z</time>
      </trkpt>
      <trkpt lat="43.83519" lon="1.69197">
        <ele>207.5</ele>
        <time>2019-02-06T10:55:9.000Z</time>
      </trkpt>
      <trkpt lat="43.83524" lon="1.69187">
        <ele>207.9</ele>
        <time>2019-02-06T10:55:18.000Z</time>
      </trkpt>
      <trkpt lat="43.83528" lon="1.69175">
        <ele>208.2</ele>
        <time>2019-02-06T10:55:28.000Z</time>
      </trkpt>
      <trkpt lat="43.83535" lon="1.69166">
        <ele>208.6</ele>
        <time>2019-02-06T10:55:36.000Z</time>
      </trkpt>
      <trkpt lat="43.83542" lon="1.69156">
        <ele>209.1</ele>
        <time>2019-02-06T10:55:44.000Z</time>
      </trkpt>
      <trkpt lat="43.8355" lon="1.69151">
        <ele>209.5</ele>
        <time>2019-02-06T10:55:53.000Z</time>
      </trkpt>
      <trkpt lat="43.83558" lon="1.69146">
        <ele>209.9</ele>
        <time>2019-02-06T10:56:2.000Z</time>
      </trkpt>
      <trkpt lat="43.83568" lon="1.69146">
        <ele>210.2</ele>
        <time>2019-02-06T10:56:12.000Z</time>
      </trkpt>
      <trkpt lat="43.83577" lon="1.69149">
        <ele>209.9</ele>
        <time>2019-02-06T10:56:18.000Z</time>
      </trkpt>
      <trkpt lat="43.83586" lon="1.69152">
        <ele>210.1</ele>
        <time>2019-02-06T10:56:25.000Z</time>
      </trkpt>
      <trkpt lat="43.83595" lon="1.69152">
        <ele>210.1</ele>
        <time>2019-02-06T10:56:31.000Z</time>
      </trkpt>
      <trkpt lat="43.83605" lon="1.69149">
        <ele>210.1</ele>
        <time>2019-02-06T10:56:38.000Z</time>
      </trkpt>
      <trkpt lat="43.83613" lon="1.69144">
        <ele>209.9</ele>
        <time>2019-02-06T10:56:45.000Z</time>
      </trkpt>
      <trkpt lat="43.8362" lon="1.69132">
        <ele>209.2</ele>
        <time>2019-02-06T10:56:52.000Z</time>
      </trkpt>
      <trkpt lat="43.83622" lon="1.69119">
        <ele>208.9</ele>
        <time>2019-02-06T10:56:57.000Z</time>
      </trkpt>
      <trkpt lat="43.83626" lon="1.69107">
        <ele>208.5</ele>
        <time>2019-02-06T10:57:4.000Z</time>
      </trkpt>
      <trkpt lat="43.8363" lon="1.69091">
        <ele>207.9</ele>
        <time>2019-02-06T10:57:11.000Z</time>
      </trkpt>
      <trkpt lat="43.83632" lon="1.69078">
        <ele>207.5</ele>
        <time>2019-02-06T10:57:20.000Z</time>
      </trkpt>
      <trkpt lat="43.83639" lon="1.69069">
        <ele>211.4</ele>
        <time>2019-02-06T10:57:28.000Z</time>
      </trkpt>
      <trkpt lat="43.83646" lon="1.69055">
        <ele>210.2</ele>
        <time>2019-02-06T10:57:36.000Z</time>
      </trkpt>
      <trkpt lat="43.83647" lon="1.69043">
        <ele>209.1</ele>
        <time>2019-02-06T10:57:44.000Z</time>
      </trkpt>
      <trkpt lat="43.8365" lon="1.69031">
        <ele>208</ele>
        <time>2019-02-06T10:57:52.000Z</time>
      </trkpt>
      <trkpt lat="43.83655" lon="1.69018">
        <ele>206.7</ele>
        <time>2019-02-06T10:58:0.000Z</time>
      </trkpt>
      <trkpt lat="43.83658" lon="1.69001">
        <ele>205.1</ele>
        <time>2019-02-06T10:58:10.000Z</time>
      </trkpt>
      <trkpt lat="43.83665" lon="1.68988">
        <ele>204.4</ele>
        <time>2019-02-06T10:58:19.000Z</time>
      </trkpt>
      <trkpt lat="43.8367" lon="1.68978">
        <ele>203.8</ele>
        <time>2019-02-06T10:58:27.000Z</time>
      </trkpt>
      <trkpt lat="43.83677" lon="1.68975">
        <ele>203.1</ele>
        <time>2019-02-06T10:58:41.000Z</time>
      </trkpt>
      <trkpt lat="43.83683" lon="1.68984">
        <ele>203.2</ele>
        <time>2019-02-06T10:58:50.000Z</time>
      </trkpt>
      <trkpt lat="43.83687" lon="1.69001">
        <ele>204</ele>
        <time>2019-02-06T10:58:59.000Z</time>
      </trkpt>
      <trkpt lat="43.8369" lon="1.69013">
        <ele>205</ele>
        <time>2019-02-06T10:59:11.000Z</time>
      </trkpt>
      <trkpt lat="43.83691" lon="1.69022">
        <ele>206</ele>
        <time>2019-02-06T10:59:18.000Z</time>
      </trkpt>
      <trkpt lat="43.83696" lon="1.69033">
        <ele>206.9</ele>
        <time>2019-02-06T10:59:27.000Z</time>
      </trkpt>
      <trkpt lat="43.83699" lon="1.69042">
        <ele>207.6</ele>
        <time>2019-02-06T10:59:36.000Z</time>
      </trkpt>
      <trkpt lat="43.83706" lon="1.69048">
        <ele>216.3</ele>
        <time>2019-02-06T11:00:5.000Z</time>
      </trkpt>
      <trkpt lat="43.83715" lon="1.69049">
        <ele>216.8</ele>
        <time>2019-02-06T11:00:17.000Z</time>
      </trkpt>
      <trkpt lat="43.83725" lon="1.69051">
        <ele>216.9</ele>
        <time>2019-02-06T11:00:25.000Z</time>
      </trkpt>
      <trkpt lat="43.83734" lon="1.69058">
        <ele>216.9</ele>
        <time>2019-02-06T11:00:30.000Z</time>
      </trkpt>
      <trkpt lat="43.83742" lon="1.69064">
        <ele>217.1</ele>
        <time>2019-02-06T11:00:38.000Z</time>
      </trkpt>
      <trkpt lat="43.83751" lon="1.69069">
        <ele>217.5</ele>
        <time>2019-02-06T11:00:44.000Z</time>
      </trkpt>
      <trkpt lat="43.8376" lon="1.69075">
        <ele>217.7</ele>
        <time>2019-02-06T11:00:51.000Z</time>
      </trkpt>
      <trkpt lat="43.83768" lon="1.69082">
        <ele>217.8</ele>
        <time>2019-02-06T11:00:58.000Z</time>
      </trkpt>
      <trkpt lat="43.83778" lon="1.69086">
        <ele>218</ele>
        <time>2019-02-06T11:01:6.000Z</time>
      </trkpt>
      <trkpt lat="43.83787" lon="1.69092">
        <ele>218.3</ele>
        <time>2019-02-06T11:01:12.000Z</time>
      </trkpt>
      <trkpt lat="43.83796" lon="1.69095">
        <ele>218.9</ele>
        <time>2019-02-06T11:01:23.000Z</time>
      </trkpt>
      <trkpt lat="43.83807" lon="1.69102">
        <ele>219.2</ele>
        <time>2019-02-06T11:01:30.000Z</time>
      </trkpt>
      <trkpt lat="43.83815" lon="1.69107">
        <ele>219.4</ele>
        <time>2019-02-06T11:01:34.000Z</time>
      </trkpt>
      <trkpt lat="43.83825" lon="1.69112">
        <ele>219.7</ele>
        <time>2019-02-06T11:01:46.000Z</time>
      </trkpt>
      <trkpt lat="43.83836" lon="1.69117">
        <ele>219.9</ele>
        <time>2019-02-06T11:01:53.000Z</time>
      </trkpt>
      <trkpt lat="43.83845" lon="1.69122">
        <ele>220.2</ele>
        <time>2019-02-06T11:02:2.000Z</time>
      </trkpt>
      <trkpt lat="43.83853" lon="1.69129">
        <ele>220.3</ele>
        <time>2019-02-06T11:02:7.000Z</time>
      </trkpt>
      <trkpt lat="43.83862" lon="1.69135">
        <ele>220.7</ele>
        <time>2019-02-06T11:02:15.000Z</time>
      </trkpt>
      <trkpt lat="43.83871" lon="1.6914">
        <ele>221.1</ele>
        <time>2019-02-06T11:02:22.000Z</time>
      </trkpt>
      <trkpt lat="43.83879" lon="1.69147">
        <ele>221.6</ele>
        <time>2019-02-06T11:02:30.000Z</time>
      </trkpt>
      <trkpt lat="43.83887" lon="1.69155">
        <ele>222.1</ele>
        <time>2019-02-06T11:02:39.000Z</time>
      </trkpt>
      <trkpt lat="43.83892" lon="1.69165">
        <ele>222.7</ele>
        <time>2019-02-06T11:02:53.000Z</time>
      </trkpt>
      <trkpt lat="43.83894" lon="1.69178">
        <ele>222.9</ele>
        <time>2019-02-06T11:03:4.000Z</time>
      </trkpt>
      <trkpt lat="43.83891" lon="1.69189">
        <ele>222.7</ele>
        <time>2019-02-06T11:03:17.000Z</time>
      </trkpt>
      <trkpt lat="43.83889" lon="1.69203">
        <ele>221.5</ele>
        <time>2019-02-06T11:03:31.000Z</time>
      </trkpt>
      <trkpt lat="43.83886" lon="1.69217">
        <ele>220.9</ele>
        <time>2019-02-06T11:03:41.000Z</time>
      </trkpt>
      <trkpt lat="43.83882" lon="1.6923">
        <ele>220.2</ele>
        <time>2019-02-06T11:03:49.000Z</time>
      </trkpt>
      <trkpt lat="43.83876" lon="1.69243">
        <ele>219.2</ele>
        <time>2019-02-06T11:03:57.000Z</time>
      </trkpt>
      <trkpt lat="43.83872" lon="1.69254">
        <ele>218.2</ele>
        <time>2019-02-06T11:04:4.000Z</time>
      </trkpt>
      <trkpt lat="43.83868" lon="1.69267">
        <ele>216.4</ele>
        <time>2019-02-06T11:04:12.000Z</time>
      </trkpt>
      <trkpt lat="43.83867" lon="1.6928">
        <ele>214.8</ele>
        <time>2019-02-06T11:04:22.000Z</time>
      </trkpt>
      <trkpt lat="43.83866" lon="1.69292">
        <ele>213.4</ele>
        <time>2019-02-06T11:04:30.000Z</time>
      </trkpt>
      <trkpt lat="43.83864" lon="1.69306">
        <ele>211.7</ele>
        <time>2019-02-06T11:04:39.000Z</time>
      </trkpt>
      <trkpt lat="43.83861" lon="1.69319">
        <ele>209.9</ele>
        <time>2019-02-06T11:04:48.000Z</time>
      </trkpt>
      <trkpt lat="43.83861" lon="1.69331">
        <ele>208.8</ele>
        <time>2019-02-06T11:04:56.000Z</time>
      </trkpt>
      <trkpt lat="43.83859" lon="1.69345">
        <ele>207.7</ele>
        <time>2019-02-06T11:05:5.000Z</time>
      </trkpt>
      <trkpt lat="43.83857" lon="1.69359">
        <ele>206.6</ele>
        <time>2019-02-06T11:05:14.000Z</time>
      </trkpt>
      <trkpt lat="43.83854" lon="1.69372">
        <ele>205.2</ele>
        <time>2019-02-06T11:05:23.000Z</time>
      </trkpt>
      <trkpt lat="43.83853" lon="1.69386">
        <ele>203.6</ele>
        <time>2019-02-06T11:05:32.000Z</time>
      </trkpt>
      <trkpt lat="43.83853" lon="1.694">
        <ele>202.1</ele>
        <time>2019-02-06T11:05:41.000Z</time>
      </trkpt>
      <trkpt lat="43.83846" lon="1.69407">
        <ele>200.7</ele>
        <time>2019-02-06T11:05:48.000Z</time>
      </trkpt>
      <trkpt lat="43.83843" lon="1.6942">
        <ele>199</ele>
        <time>2019-02-06T11:05:56.000Z</time>
      </trkpt>
      <trkpt lat="43.8384" lon="1.69433">
        <ele>196.9</ele>
        <time>2019-02-06T11:06:7.000Z</time>
      </trkpt>
      <trkpt lat="43.83838" lon="1.69448">
        <ele>195.1</ele>
        <time>2019-02-06T11:06:17.000Z</time>
      </trkpt>
      <trkpt lat="43.83836" lon="1.69461">
        <ele>193.8</ele>
        <time>2019-02-06T11:06:24.000Z</time>
      </trkpt>
      <trkpt lat="43.83832" lon="1.69472">
        <ele>192.1</ele>
        <time>2019-02-06T11:06:34.000Z</time>
      </trkpt>
      <trkpt lat="43.83828" lon="1.69484">
        <ele>190.9</ele>
        <time>2019-02-06T11:06:44.000Z</time>
      </trkpt>
      <trkpt lat="43.83826" lon="1.69497">
        <ele>190.2</ele>
        <time>2019-02-06T11:06:53.000Z</time>
      </trkpt>
      <trkpt lat="43.83824" lon="1.6951">
        <ele>189.5</ele>
        <time>2019-02-06T11:07:1.000Z</time>
      </trkpt>
      <trkpt lat="43.83821" lon="1.69523">
        <ele>188.9</ele>
        <time>2019-02-06T11:07:9.000Z</time>
      </trkpt>
      <trkpt lat="43.8382" lon="1.69536">
        <ele>188.4</ele>
        <time>2019-02-06T11:07:17.000Z</time>
      </trkpt>
      <trkpt lat="43.83817" lon="1.69549">
        <ele>187.6</ele>
        <time>2019-02-06T11:07:25.000Z</time>
      </trkpt>
      <trkpt lat="43.83812" lon="1.69559">
        <ele>186.8</ele>
        <time>2019-02-06T11:07:34.000Z</time>
      </trkpt>
      <trkpt lat="43.83808" lon="1.69572">
        <ele>186.3</ele>
        <time>2019-02-06T11:07:43.000Z</time>
      </trkpt>
      <trkpt lat="43.83804" lon="1.69584">
        <ele>186</ele>
        <time>2019-02-06T11:07:51.000Z</time>
      </trkpt>
      <trkpt lat="43.838" lon="1.69597">
        <ele>185.5</ele>
        <time>2019-02-06T11:07:59.000Z</time>
      </trkpt>
      <trkpt lat="43.83794" lon="1.69608">
        <ele>184.8</ele>
        <time>2019-02-06T11:08:7.000Z</time>
      </trkpt>
      <trkpt lat="43.83787" lon="1.69616">
        <ele>184.4</ele>
        <time>2019-02-06T11:08:14.000Z</time>
      </trkpt>
      <trkpt lat="43.83781" lon="1.69626">
        <ele>183.9</ele>
        <time>2019-02-06T11:08:22.000Z</time>
      </trkpt>
      <trkpt lat="43.83774" lon="1.69636">
        <ele>183.4</ele>
        <time>2019-02-06T11:08:30.000Z</time>
      </trkpt>
      <trkpt lat="43.83767" lon="1.69646">
        <ele>183</ele>
        <time>2019-02-06T11:08:37.000Z</time>
      </trkpt>
      <trkpt lat="43.83761" lon="1.69656">
        <ele>182.5</ele>
        <time>2019-02-06T11:08:44.000Z</time>
      </trkpt>
      <trkpt lat="43.83756" lon="1.69667">
        <ele>181.8</ele>
        <time>2019-02-06T11:08:52.000Z</time>
      </trkpt>
      <trkpt lat="43.83751" lon="1.69678">
        <ele>181.4</ele>
        <time>2019-02-06T11:09:0.000Z</time>
      </trkpt>
      <trkpt lat="43.83745" lon="1.69688">
        <ele>180.9</ele>
        <time>2019-02-06T11:09:9.000Z</time>
      </trkpt>
      <trkpt lat="43.8374" lon="1.69701">
        <ele>180.5</ele>
        <time>2019-02-06T11:09:18.000Z</time>
      </trkpt>
      <trkpt lat="43.83733" lon="1.69708">
        <ele>180.2</ele>
        <time>2019-02-06T11:09:25.000Z</time>
      </trkpt>
      <trkpt lat="43.83728" lon="1.69721">
        <ele>179.2</ele>
        <time>2019-02-06T11:09:33.000Z</time>
      </trkpt>
      <trkpt lat="43.83724" lon="1.69732">
        <ele>178.8</ele>
        <time>2019-02-06T11:09:42.000Z</time>
      </trkpt>
      <trkpt lat="43.8372" lon="1.69744">
        <ele>178.6</ele>
        <time>2019-02-06T11:09:53.000Z</time>
      </trkpt>
      <trkpt lat="43.83714" lon="1.69753">
        <ele>178.6</ele>
        <time>2019-02-06T11:10:3.000Z</time>
      </trkpt>
      <trkpt lat="43.83705" lon="1.69758">
        <ele>178.5</ele>
        <time>2019-02-06T11:10:11.000Z</time>
      </trkpt>
      <trkpt lat="43.83697" lon="1.69769">
        <ele>178.7</ele>
        <time>2019-02-06T11:10:39.000Z</time>
      </trkpt>
      <trkpt lat="43.83704" lon="1.69776">
        <ele>179.6</ele>
        <time>2019-02-06T11:11:34.000Z</time>
      </trkpt>
      <trkpt lat="43.83697" lon="1.69783">
        <ele>179.1</ele>
        <time>2019-02-06T11:11:58.000Z</time>
      </trkpt>
      <trkpt lat="43.83689" lon="1.69791">
        <ele>179.1</ele>
        <time>2019-02-06T11:12:6.000Z</time>
      </trkpt>
      <trkpt lat="43.83682" lon="1.69797">
        <ele>179.1</ele>
        <time>2019-02-06T11:12:14.000Z</time>
      </trkpt>
      <trkpt lat="43.83673" lon="1.69801">
        <ele>178.9</ele>
        <time>2019-02-06T11:12:21.000Z</time>
      </trkpt>
      <trkpt lat="43.83663" lon="1.69805">
        <ele>179.1</ele>
        <time>2019-02-06T11:12:29.000Z</time>
      </trkpt>
      <trkpt lat="43.83653" lon="1.69807">
        <ele>179.3</ele>
        <time>2019-02-06T11:12:36.000Z</time>
      </trkpt>
      <trkpt lat="43.83644" lon="1.69808">
        <ele>179.5</ele>
        <time>2019-02-06T11:12:42.000Z</time>
      </trkpt>
      <trkpt lat="43.83633" lon="1.69808">
        <ele>179.8</ele>
        <time>2019-02-06T11:12:49.000Z</time>
      </trkpt>
      <trkpt lat="43.83624" lon="1.6981">
        <ele>180.2</ele>
        <time>2019-02-06T11:12:57.000Z</time>
      </trkpt>
      <trkpt lat="43.83615" lon="1.6981">
        <ele>180.4</ele>
        <time>2019-02-06T11:13:5.000Z</time>
      </trkpt>
      <trkpt lat="43.83606" lon="1.69808">
        <ele>180.6</ele>
        <time>2019-02-06T11:13:11.000Z</time>
      </trkpt>
      <trkpt lat="43.83597" lon="1.69811">
        <ele>180.9</ele>
        <time>2019-02-06T11:13:24.000Z</time>
      </trkpt>
      <trkpt lat="43.83589" lon="1.69818">
        <ele>181.4</ele>
        <time>2019-02-06T11:13:35.000Z</time>
      </trkpt>
      <trkpt lat="43.8358" lon="1.69826">
        <ele>181.7</ele>
        <time>2019-02-06T11:13:43.000Z</time>
      </trkpt>
      <trkpt lat="43.83571" lon="1.69832">
        <ele>182</ele>
        <time>2019-02-06T11:13:51.000Z</time>
      </trkpt>
      <trkpt lat="43.83561" lon="1.69836">
        <ele>182.3</ele>
        <time>2019-02-06T11:13:58.000Z</time>
      </trkpt>
      <trkpt lat="43.83551" lon="1.69837">
        <ele>182.5</ele>
        <time>2019-02-06T11:14:7.000Z</time>
      </trkpt>
      <trkpt lat="43.83542" lon="1.69838">
        <ele>182.5</ele>
        <time>2019-02-06T11:14:16.000Z</time>
      </trkpt>
      <trkpt lat="43.83531" lon="1.69842">
        <ele>182.6</ele>
        <time>2019-02-06T11:14:21.000Z</time>
      </trkpt>
      <trkpt lat="43.83521" lon="1.69845">
        <ele>182.8</ele>
        <time>2019-02-06T11:14:27.000Z</time>
      </trkpt>
      <trkpt lat="43.83512" lon="1.69846">
        <ele>182.8</ele>
        <time>2019-02-06T11:14:33.000Z</time>
      </trkpt>
      <trkpt lat="43.83502" lon="1.69847">
        <ele>182.9</ele>
        <time>2019-02-06T11:14:40.000Z</time>
      </trkpt>
      <trkpt lat="43.83492" lon="1.69847">
        <ele>182.6</ele>
        <time>2019-02-06T11:14:49.000Z</time>
      </trkpt>
      <trkpt lat="43.83483" lon="1.69848">
        <ele>182.7</ele>
        <time>2019-02-06T11:14:54.000Z</time>
      </trkpt>
      <trkpt lat="43.83473" lon="1.6985">
        <ele>182.9</ele>
        <time>2019-02-06T11:15:1.000Z</time>
      </trkpt>
      <trkpt lat="43.83464" lon="1.69854">
        <ele>183.2</ele>
        <time>2019-02-06T11:15:10.000Z</time>
      </trkpt>
      <trkpt lat="43.83455" lon="1.69855">
        <ele>183.5</ele>
        <time>2019-02-06T11:15:17.000Z</time>
      </trkpt>
      <trkpt lat="43.83446" lon="1.69858">
        <ele>183.4</ele>
        <time>2019-02-06T11:15:25.000Z</time>
      </trkpt>
      <trkpt lat="43.83437" lon="1.69861">
        <ele>183.6</ele>
        <time>2019-02-06T11:15:33.000Z</time>
      </trkpt>
      <trkpt lat="43.83427" lon="1.69864">
        <ele>183.7</ele>
        <time>2019-02-06T11:15:42.000Z</time>
      </trkpt>
      <trkpt lat="43.83417" lon="1.69868">
        <ele>184.2</ele>
        <time>2019-02-06T11:15:51.000Z</time>
      </trkpt>
      <trkpt lat="43.83408" lon="1.69872">
        <ele>184.5</ele>
        <time>2019-02-06T11:15:59.000Z</time>
      </trkpt>
      <trkpt lat="43.83398" lon="1.69875">
        <ele>184.5</ele>
        <time>2019-02-06T11:16:6.000Z</time>
      </trkpt>
      <trkpt lat="43.83389" lon="1.6988">
        <ele>184.4</ele>
        <time>2019-02-06T11:16:15.000Z</time>
      </trkpt>
      <trkpt lat="43.8338" lon="1.69883">
        <ele>184.3</ele>
        <time>2019-02-06T11:16:23.000Z</time>
      </trkpt>
      <trkpt lat="43.83371" lon="1.69885">
        <ele>184.3</ele>
        <time>2019-02-06T11:16:31.000Z</time>
      </trkpt>
      <trkpt lat="43.83362" lon="1.69888">
        <ele>184.4</ele>
        <time>2019-02-06T11:16:38.000Z</time>
      </trkpt>
      <trkpt lat="43.83352" lon="1.69892">
        <ele>184.6</ele>
        <time>2019-02-06T11:16:44.000Z</time>
      </trkpt>
      <trkpt lat="43.83344" lon="1.69896">
        <ele>184.7</ele>
        <time>2019-02-06T11:16:50.000Z</time>
      </trkpt>
      <trkpt lat="43.83334" lon="1.69899">
        <ele>184.6</ele>
        <time>2019-02-06T11:16:56.000Z</time>
      </trkpt>
      <trkpt lat="43.83324" lon="1.69904">
        <ele>184.7</ele>
        <time>2019-02-06T11:17:4.000Z</time>
      </trkpt>
      <trkpt lat="43.83315" lon="1.69909">
        <ele>184.9</ele>
        <time>2019-02-06T11:17:11.000Z</time>
      </trkpt>
      <trkpt lat="43.83306" lon="1.69914">
        <ele>185</ele>
        <time>2019-02-06T11:17:18.000Z</time>
      </trkpt>
      <trkpt lat="43.83298" lon="1.69922">
        <ele>185.1</ele>
        <time>2019-02-06T11:17:26.000Z</time>
      </trkpt>
      <trkpt lat="43.83289" lon="1.69929">
        <ele>185</ele>
        <time>2019-02-06T11:17:34.000Z</time>
      </trkpt>
      <trkpt lat="43.83281" lon="1.69935">
        <ele>184.9</ele>
        <time>2019-02-06T11:17:41.000Z</time>
      </trkpt>
      <trkpt lat="43.83273" lon="1.69942">
        <ele>185</ele>
        <time>2019-02-06T11:17:47.000Z</time>
      </trkpt>
      <trkpt lat="43.83266" lon="1.69952">
        <ele>185</ele>
        <time>2019-02-06T11:17:55.000Z</time>
      </trkpt>
      <trkpt lat="43.83261" lon="1.69963">
        <ele>185.3</ele>
        <time>2019-02-06T11:18:3.000Z</time>
      </trkpt>
      <trkpt lat="43.83257" lon="1.69975">
        <ele>185.5</ele>
        <time>2019-02-06T11:18:11.000Z</time>
      </trkpt>
      <trkpt lat="43.83252" lon="1.69987">
        <ele>185.7</ele>
        <time>2019-02-06T11:18:20.000Z</time>
      </trkpt>
      <trkpt lat="43.83246" lon="1.69998">
        <ele>185.6</ele>
        <time>2019-02-06T11:18:26.000Z</time>
      </trkpt>
      <trkpt lat="43.83241" lon="1.70008">
        <ele>185.8</ele>
        <time>2019-02-06T11:18:33.000Z</time>
      </trkpt>
      <trkpt lat="43.83235" lon="1.7002">
        <ele>186</ele>
        <time>2019-02-06T11:18:41.000Z</time>
      </trkpt>
      <trkpt lat="43.83229" lon="1.70031">
        <ele>186.3</ele>
        <time>2019-02-06T11:18:48.000Z</time>
      </trkpt>
      <trkpt lat="43.83223" lon="1.70041">
        <ele>186.4</ele>
        <time>2019-02-06T11:18:55.000Z</time>
      </trkpt>
      <trkpt lat="43.83217" lon="1.70051">
        <ele>186.5</ele>
        <time>2019-02-06T11:19:3.000Z</time>
      </trkpt>
      <trkpt lat="43.8321" lon="1.7006">
        <ele>186.6</ele>
        <time>2019-02-06T11:19:11.000Z</time>
      </trkpt>
      <trkpt lat="43.83201" lon="1.70065">
        <ele>186.6</ele>
        <time>2019-02-06T11:19:22.000Z</time>
      </trkpt>
      <trkpt lat="43.83192" lon="1.70067">
        <ele>186</ele>
        <time>2019-02-06T11:19:29.000Z</time>
      </trkpt>
      <trkpt lat="43.83181" lon="1.70066">
        <ele>185.2</ele>
        <time>2019-02-06T11:19:38.000Z</time>
      </trkpt>
      <trkpt lat="43.83172" lon="1.70061">
        <ele>184.6</ele>
        <time>2019-02-06T11:19:47.000Z</time>
      </trkpt>
      <trkpt lat="43.83165" lon="1.70053">
        <ele>184.3</ele>
        <time>2019-02-06T11:19:54.000Z</time>
      </trkpt>
      <trkpt lat="43.83158" lon="1.70043">
        <ele>184.1</ele>
        <time>2019-02-06T11:20:3.000Z</time>
      </trkpt>
      <trkpt lat="43.83151" lon="1.70033">
        <ele>184.1</ele>
        <time>2019-02-06T11:20:10.000Z</time>
      </trkpt>
      <trkpt lat="43.83144" lon="1.70025">
        <ele>184.1</ele>
        <time>2019-02-06T11:20:17.000Z</time>
      </trkpt>
      <trkpt lat="43.83136" lon="1.70016">
        <ele>184.1</ele>
        <time>2019-02-06T11:20:25.000Z</time>
      </trkpt>
      <trkpt lat="43.83132" lon="1.70009">
        <ele>185.5</ele>
        <time>2019-02-06T11:24:22.000Z</time>
      </trkpt>
      <trkpt lat="43.83121" lon="1.70002">
        <ele>176.7</ele>
        <time>2019-02-06T11:59:6.000Z</time>
      </trkpt>
      <trkpt lat="43.83114" lon="1.69997">
        <ele>176.7</ele>
        <time>2019-02-06T11:59:41.000Z</time>
      </trkpt>
      <trkpt lat="43.83108" lon="1.69993">
        <ele>176.7</ele>
        <time>2019-02-06T11:59:51.000Z</time>
      </trkpt>
      <trkpt lat="43.83101" lon="1.69977">
        <ele>175.9</ele>
        <time>2019-02-06T12:00:2.000Z</time>
      </trkpt>
      <trkpt lat="43.83102" lon="1.69968">
        <ele>175.4</ele>
        <time>2019-02-06T12:00:18.000Z</time>
      </trkpt>
      <trkpt lat="43.83103" lon="1.69956">
        <ele>174.7</ele>
        <time>2019-02-06T12:00:32.000Z</time>
      </trkpt>
      <trkpt lat="43.831" lon="1.69946">
        <ele>202</ele>
        <time>2019-02-06T12:00:52.000Z</time>
      </trkpt>
      <trkpt lat="43.83099" lon="1.69934">
        <ele>202.1</ele>
        <time>2019-02-06T12:01:22.000Z</time>
      </trkpt>
      <trkpt lat="43.83102" lon="1.69921">
        <ele>201.8</ele>
        <time>2019-02-06T12:01:56.000Z</time>
      </trkpt>
      <trkpt lat="43.831" lon="1.69909">
        <ele>201.9</ele>
        <time>2019-02-06T12:02:13.000Z</time>
      </trkpt>
      <trkpt lat="43.83097" lon="1.69896">
        <ele>201.6</ele>
        <time>2019-02-06T12:02:25.000Z</time>
      </trkpt>
      <trkpt lat="43.83097" lon="1.69882">
        <ele>201.9</ele>
        <time>2019-02-06T12:02:35.000Z</time>
      </trkpt>
      <trkpt lat="43.83096" lon="1.69868">
        <ele>202.1</ele>
        <time>2019-02-06T12:02:43.000Z</time>
      </trkpt>
      <trkpt lat="43.83096" lon="1.69855">
        <ele>202.2</ele>
        <time>2019-02-06T12:02:53.000Z</time>
      </trkpt>
      <trkpt lat="43.83095" lon="1.69842">
        <ele>202.3</ele>
        <time>2019-02-06T12:03:5.000Z</time>
      </trkpt>
      <trkpt lat="43.83095" lon="1.69829">
        <ele>202.4</ele>
        <time>2019-02-06T12:03:15.000Z</time>
      </trkpt>
      <trkpt lat="43.83096" lon="1.69816">
        <ele>202.4</ele>
        <time>2019-02-06T12:03:24.000Z</time>
      </trkpt>
      <trkpt lat="43.83097" lon="1.69803">
        <ele>202.5</ele>
        <time>2019-02-06T12:03:34.000Z</time>
      </trkpt>
      <trkpt lat="43.83093" lon="1.69791">
        <ele>203.1</ele>
        <time>2019-02-06T12:04:37.000Z</time>
      </trkpt>
      <trkpt lat="43.83099" lon="1.69781">
        <ele>203.2</ele>
        <time>2019-02-06T12:04:46.000Z</time>
      </trkpt>
      <trkpt lat="43.83108" lon="1.69775">
        <ele>203.3</ele>
        <time>2019-02-06T12:05:0.000Z</time>
      </trkpt>
      <trkpt lat="43.83119" lon="1.69774">
        <ele>203.2</ele>
        <time>2019-02-06T12:08:11.000Z</time>
      </trkpt>
      <trkpt lat="43.83127" lon="1.69769">
        <ele>203.1</ele>
        <time>2019-02-06T12:08:16.000Z</time>
      </trkpt>
      <trkpt lat="43.83134" lon="1.69762">
        <ele>202.7</ele>
        <time>2019-02-06T12:08:26.000Z</time>
      </trkpt>
      <trkpt lat="43.8314" lon="1.69751">
        <ele>202.1</ele>
        <time>2019-02-06T12:08:38.000Z</time>
      </trkpt>
      <trkpt lat="43.83146" lon="1.69739">
        <ele>201.8</ele>
        <time>2019-02-06T12:08:47.000Z</time>
      </trkpt>
      <trkpt lat="43.83153" lon="1.69729">
        <ele>201.5</ele>
        <time>2019-02-06T12:08:55.000Z</time>
      </trkpt>
      <trkpt lat="43.83161" lon="1.69721">
        <ele>201.5</ele>
        <time>2019-02-06T12:09:4.000Z</time>
      </trkpt>
      <trkpt lat="43.83169" lon="1.69717">
        <ele>201.5</ele>
        <time>2019-02-06T12:09:12.000Z</time>
      </trkpt>
      <trkpt lat="43.83179" lon="1.69715">
        <ele>201.2</ele>
        <time>2019-02-06T12:09:20.000Z</time>
      </trkpt>
      <trkpt lat="43.83188" lon="1.69715">
        <ele>201.1</ele>
        <time>2019-02-06T12:09:29.000Z</time>
      </trkpt>
      <trkpt lat="43.83197" lon="1.69718">
        <ele>201.1</ele>
        <time>2019-02-06T12:09:36.000Z</time>
      </trkpt>
      <trkpt lat="43.83207" lon="1.6972">
        <ele>201.1</ele>
        <time>2019-02-06T12:09:44.000Z</time>
      </trkpt>
      <trkpt lat="43.83216" lon="1.69719">
        <ele>201.3</ele>
        <time>2019-02-06T12:09:54.000Z</time>
      </trkpt>
      <trkpt lat="43.83224" lon="1.69712">
        <ele>201.4</ele>
        <time>2019-02-06T12:10:3.000Z</time>
      </trkpt>
      <trkpt lat="43.83234" lon="1.69711">
        <ele>201.7</ele>
        <time>2019-02-06T12:10:13.000Z</time>
      </trkpt>
      <trkpt lat="43.83241" lon="1.6972">
        <ele>201.5</ele>
        <time>2019-02-06T12:10:21.000Z</time>
      </trkpt>
      <trkpt lat="43.83247" lon="1.69729">
        <ele>201.4</ele>
        <time>2019-02-06T12:10:26.000Z</time>
      </trkpt>
      <trkpt lat="43.83256" lon="1.69733">
        <ele>201.3</ele>
        <time>2019-02-06T12:10:34.000Z</time>
      </trkpt>
      <trkpt lat="43.83265" lon="1.69734">
        <ele>201.3</ele>
        <time>2019-02-06T12:10:45.000Z</time>
      </trkpt>
      <trkpt lat="43.83274" lon="1.6973">
        <ele>201.2</ele>
        <time>2019-02-06T12:10:57.000Z</time>
      </trkpt>
      <trkpt lat="43.83283" lon="1.69731">
        <ele>201</ele>
        <time>2019-02-06T12:11:6.000Z</time>
      </trkpt>
      <trkpt lat="43.83293" lon="1.6973">
        <ele>201</ele>
        <time>2019-02-06T12:11:17.000Z</time>
      </trkpt>
      <trkpt lat="43.83303" lon="1.69729">
        <ele>201</ele>
        <time>2019-02-06T12:11:25.000Z</time>
      </trkpt>
      <trkpt lat="43.83313" lon="1.69727">
        <ele>200.8</ele>
        <time>2019-02-06T12:11:34.000Z</time>
      </trkpt>
      <trkpt lat="43.83321" lon="1.69719">
        <ele>200.4</ele>
        <time>2019-02-06T12:11:47.000Z</time>
      </trkpt>
      <trkpt lat="43.83326" lon="1.69708">
        <ele>200.6</ele>
        <time>2019-02-06T12:11:55.000Z</time>
      </trkpt>
      <trkpt lat="43.83332" lon="1.69699">
        <ele>200.8</ele>
        <time>2019-02-06T12:12:1.000Z</time>
      </trkpt>
      <trkpt lat="43.83338" lon="1.69687">
        <ele>200.9</ele>
        <time>2019-02-06T12:12:11.000Z</time>
      </trkpt>
      <trkpt lat="43.83347" lon="1.69683">
        <ele>200.7</ele>
        <time>2019-02-06T12:12:19.000Z</time>
      </trkpt>
      <trkpt lat="43.83357" lon="1.69686">
        <ele>200.6</ele>
        <time>2019-02-06T12:12:26.000Z</time>
      </trkpt>
      <trkpt lat="43.83366" lon="1.69689">
        <ele>200.6</ele>
        <time>2019-02-06T12:12:32.000Z</time>
      </trkpt>
      <trkpt lat="43.83375" lon="1.69694">
        <ele>200.4</ele>
        <time>2019-02-06T12:12:37.000Z</time>
      </trkpt>
      <trkpt lat="43.83384" lon="1.69701">
        <ele>200</ele>
        <time>2019-02-06T12:12:47.000Z</time>
      </trkpt>
      <trkpt lat="43.83392" lon="1.69706">
        <ele>199.7</ele>
        <time>2019-02-06T12:12:56.000Z</time>
      </trkpt>
      <trkpt lat="43.83401" lon="1.69714">
        <ele>199.8</ele>
        <time>2019-02-06T12:13:4.000Z</time>
      </trkpt>
      <trkpt lat="43.83409" lon="1.69721">
        <ele>199.8</ele>
        <time>2019-02-06T12:13:14.000Z</time>
      </trkpt>
      <trkpt lat="43.83418" lon="1.69727">
        <ele>199.7</ele>
        <time>2019-02-06T12:13:23.000Z</time>
      </trkpt>
      <trkpt lat="43.83426" lon="1.69734">
        <ele>199.8</ele>
        <time>2019-02-06T12:13:33.000Z</time>
      </trkpt>
      <trkpt lat="43.83434" lon="1.69742">
        <ele>199.7</ele>
        <time>2019-02-06T12:13:43.000Z</time>
      </trkpt>
      <trkpt lat="43.83442" lon="1.6975">
        <ele>199.5</ele>
        <time>2019-02-06T12:13:50.000Z</time>
      </trkpt>
      <trkpt lat="43.83451" lon="1.69751">
        <ele>199.3</ele>
        <time>2019-02-06T12:14:0.000Z</time>
      </trkpt>
      <trkpt lat="43.83461" lon="1.69749">
        <ele>198.8</ele>
        <time>2019-02-06T12:14:13.000Z</time>
      </trkpt>
      <trkpt lat="43.83471" lon="1.69746">
        <ele>198.6</ele>
        <time>2019-02-06T12:14:20.000Z</time>
      </trkpt>
      <trkpt lat="43.8348" lon="1.6975">
        <ele>198.4</ele>
        <time>2019-02-06T12:14:28.000Z</time>
      </trkpt>
      <trkpt lat="43.83489" lon="1.6975">
        <ele>198.2</ele>
        <time>2019-02-06T12:14:35.000Z</time>
      </trkpt>
      <trkpt lat="43.83499" lon="1.6975">
        <ele>198.1</ele>
        <time>2019-02-06T12:14:44.000Z</time>
      </trkpt>
      <trkpt lat="43.83508" lon="1.69746">
        <ele>198.1</ele>
        <time>2019-02-06T12:14:53.000Z</time>
      </trkpt>
      <trkpt lat="43.83517" lon="1.69742">
        <ele>198</ele>
        <time>2019-02-06T12:15:3.000Z</time>
      </trkpt>
      <trkpt lat="43.83526" lon="1.69736">
        <ele>198.1</ele>
        <time>2019-02-06T12:15:11.000Z</time>
      </trkpt>
      <trkpt lat="43.83534" lon="1.69729">
        <ele>198.2</ele>
        <time>2019-02-06T12:15:18.000Z</time>
      </trkpt>
      <trkpt lat="43.83542" lon="1.69719">
        <ele>198.3</ele>
        <time>2019-02-06T12:15:26.000Z</time>
      </trkpt>
      <trkpt lat="43.8355" lon="1.69713">
        <ele>198.1</ele>
        <time>2019-02-06T12:15:32.000Z</time>
      </trkpt>
      <trkpt lat="43.83559" lon="1.69713">
        <ele>197.9</ele>
        <time>2019-02-06T12:15:40.000Z</time>
      </trkpt>
      <trkpt lat="43.83568" lon="1.69708">
        <ele>197.9</ele>
        <time>2019-02-06T12:15:49.000Z</time>
      </trkpt>
      <trkpt lat="43.83579" lon="1.69705">
        <ele>198.4</ele>
        <time>2019-02-06T12:16:0.000Z</time>
      </trkpt>
      <trkpt lat="43.83588" lon="1.69703">
        <ele>198.6</ele>
        <time>2019-02-06T12:16:6.000Z</time>
      </trkpt>
      <trkpt lat="43.83597" lon="1.69699">
        <ele>198.9</ele>
        <time>2019-02-06T12:16:16.000Z</time>
      </trkpt>
      <trkpt lat="43.83607" lon="1.697">
        <ele>199.3</ele>
        <time>2019-02-06T12:16:23.000Z</time>
      </trkpt>
      <trkpt lat="43.83616" lon="1.697">
        <ele>199.4</ele>
        <time>2019-02-06T12:16:30.000Z</time>
      </trkpt>
      <trkpt lat="43.83626" lon="1.69698">
        <ele>199.3</ele>
        <time>2019-02-06T12:16:36.000Z</time>
      </trkpt>
      <trkpt lat="43.83635" lon="1.69702">
        <ele>199.2</ele>
        <time>2019-02-06T12:16:44.000Z</time>
      </trkpt>
      <trkpt lat="43.83645" lon="1.697">
        <ele>199</ele>
        <time>2019-02-06T12:16:54.000Z</time>
      </trkpt>
      <trkpt lat="43.83654" lon="1.69706">
        <ele>198.7</ele>
        <time>2019-02-06T12:17:4.000Z</time>
      </trkpt>
      <trkpt lat="43.83662" lon="1.69715">
        <ele>198.3</ele>
        <time>2019-02-06T12:17:11.000Z</time>
      </trkpt>
      <trkpt lat="43.8367" lon="1.69721">
        <ele>198</ele>
        <time>2019-02-06T12:17:18.000Z</time>
      </trkpt>
      <trkpt lat="43.8368" lon="1.69725">
        <ele>197.8</ele>
        <time>2019-02-06T12:17:25.000Z</time>
      </trkpt>
      <trkpt lat="43.83687" lon="1.69734">
        <ele>197.5</ele>
        <time>2019-02-06T12:17:32.000Z</time>
      </trkpt>
      <trkpt lat="43.83695" lon="1.69743">
        <ele>197.2</ele>
        <time>2019-02-06T12:17:39.000Z</time>
      </trkpt>
      <trkpt lat="43.83704" lon="1.69739">
        <ele>196.9</ele>
        <time>2019-02-06T12:17:50.000Z</time>
      </trkpt>
      <trkpt lat="43.83713" lon="1.69741">
        <ele>196.7</ele>
        <time>2019-02-06T12:17:59.000Z</time>
      </trkpt>
      <trkpt lat="43.83722" lon="1.69742">
        <ele>196.5</ele>
        <time>2019-02-06T12:18:7.000Z</time>
      </trkpt>
      <trkpt lat="43.83732" lon="1.69743">
        <ele>196.5</ele>
        <time>2019-02-06T12:18:15.000Z</time>
      </trkpt>
      <trkpt lat="43.83742" lon="1.69744">
        <ele>196.4</ele>
        <time>2019-02-06T12:18:27.000Z</time>
      </trkpt>
      <trkpt lat="43.83751" lon="1.69746">
        <ele>196.3</ele>
        <time>2019-02-06T12:18:35.000Z</time>
      </trkpt>
      <trkpt lat="43.8376" lon="1.69743">
        <ele>196.1</ele>
        <time>2019-02-06T12:18:44.000Z</time>
      </trkpt>
      <trkpt lat="43.83769" lon="1.69741">
        <ele>196</ele>
        <time>2019-02-06T12:18:53.000Z</time>
      </trkpt>
      <trkpt lat="43.83779" lon="1.69744">
        <ele>195.9</ele>
        <time>2019-02-06T12:19:3.000Z</time>
      </trkpt>
      <trkpt lat="43.83788" lon="1.69747">
        <ele>195.8</ele>
        <time>2019-02-06T12:19:12.000Z</time>
      </trkpt>
      <trkpt lat="43.83797" lon="1.69751">
        <ele>195.7</ele>
        <time>2019-02-06T12:19:20.000Z</time>
      </trkpt>
      <trkpt lat="43.83806" lon="1.69755">
        <ele>195.5</ele>
        <time>2019-02-06T12:19:27.000Z</time>
      </trkpt>
      <trkpt lat="43.83815" lon="1.69757">
        <ele>195.7</ele>
        <time>2019-02-06T12:19:37.000Z</time>
      </trkpt>
      <trkpt lat="43.83825" lon="1.69761">
        <ele>195.8</ele>
        <time>2019-02-06T12:19:46.000Z</time>
      </trkpt>
      <trkpt lat="43.83834" lon="1.69762">
        <ele>195.9</ele>
        <time>2019-02-06T12:19:54.000Z</time>
      </trkpt>
      <trkpt lat="43.83843" lon="1.69767">
        <ele>195.8</ele>
        <time>2019-02-06T12:20:5.000Z</time>
      </trkpt>
      <trkpt lat="43.83847" lon="1.69779">
        <ele>195.7</ele>
        <time>2019-02-06T12:20:22.000Z</time>
      </trkpt>
      <trkpt lat="43.83849" lon="1.69791">
        <ele>195.8</ele>
        <time>2019-02-06T12:20:33.000Z</time>
      </trkpt>
      <trkpt lat="43.83851" lon="1.69804">
        <ele>196.4</ele>
        <time>2019-02-06T12:20:55.000Z</time>
      </trkpt>
      <trkpt lat="43.83858" lon="1.69813">
        <ele>196.9</ele>
        <time>2019-02-06T12:21:9.000Z</time>
      </trkpt>
      <trkpt lat="43.83867" lon="1.69824">
        <ele>198.1</ele>
        <time>2019-02-06T12:21:24.000Z</time>
      </trkpt>
      <trkpt lat="43.83879" lon="1.69837">
        <ele>201.3</ele>
        <time>2019-02-06T12:22:17.000Z</time>
      </trkpt>
      <trkpt lat="43.83886" lon="1.69845">
        <ele>201.6</ele>
        <time>2019-02-06T12:22:55.000Z</time>
      </trkpt>
      <trkpt lat="43.83885" lon="1.69859">
        <ele>202.4</ele>
        <time>2019-02-06T12:23:12.000Z</time>
      </trkpt>
      <trkpt lat="43.83884" lon="1.69872">
        <ele>203.1</ele>
        <time>2019-02-06T12:23:29.000Z</time>
      </trkpt>
      <trkpt lat="43.83882" lon="1.69885">
        <ele>203.9</ele>
        <time>2019-02-06T12:23:42.000Z</time>
      </trkpt>
      <trkpt lat="43.8388" lon="1.69897">
        <ele>204.6</ele>
        <time>2019-02-06T12:23:54.000Z</time>
      </trkpt>
      <trkpt lat="43.83877" lon="1.6991">
        <ele>205.5</ele>
        <time>2019-02-06T12:24:7.000Z</time>
      </trkpt>
      <trkpt lat="43.83874" lon="1.69923">
        <ele>206.1</ele>
        <time>2019-02-06T12:24:22.000Z</time>
      </trkpt>
      <trkpt lat="43.83869" lon="1.69933">
        <ele>206.7</ele>
        <time>2019-02-06T12:24:33.000Z</time>
      </trkpt>
      <trkpt lat="43.83863" lon="1.69944">
        <ele>207.6</ele>
        <time>2019-02-06T12:24:53.000Z</time>
      </trkpt>
      <trkpt lat="43.8386" lon="1.69956">
        <ele>208.1</ele>
        <time>2019-02-06T12:25:5.000Z</time>
      </trkpt>
      <trkpt lat="43.83852" lon="1.69962">
        <ele>208.8</ele>
        <time>2019-02-06T12:25:18.000Z</time>
      </trkpt>
      <trkpt lat="43.83842" lon="1.69966">
        <ele>209.6</ele>
        <time>2019-02-06T12:25:29.000Z</time>
      </trkpt>
      <trkpt lat="43.83833" lon="1.69971">
        <ele>210.1</ele>
        <time>2019-02-06T12:25:35.000Z</time>
      </trkpt>
      <trkpt lat="43.83826" lon="1.6998">
        <ele>211</ele>
        <time>2019-02-06T12:25:47.000Z</time>
      </trkpt>
      <trkpt lat="43.83818" lon="1.69989">
        <ele>211.5</ele>
        <time>2019-02-06T12:25:57.000Z</time>
      </trkpt>
      <trkpt lat="43.83813" lon="1.7">
        <ele>211.9</ele>
        <time>2019-02-06T12:26:8.000Z</time>
      </trkpt>
      <trkpt lat="43.83811" lon="1.70012">
        <ele>212.1</ele>
        <time>2019-02-06T12:26:18.000Z</time>
      </trkpt>
      <trkpt lat="43.83807" lon="1.70024">
        <ele>212.5</ele>
        <time>2019-02-06T12:26:27.000Z</time>
      </trkpt>
      <trkpt lat="43.83803" lon="1.70036">
        <ele>213</ele>
        <time>2019-02-06T12:26:37.000Z</time>
      </trkpt>
      <trkpt lat="43.838" lon="1.70048">
        <ele>213.6</ele>
        <time>2019-02-06T12:26:49.000Z</time>
      </trkpt>
      <trkpt lat="43.83795" lon="1.7006">
        <ele>214.2</ele>
        <time>2019-02-06T12:26:58.000Z</time>
      </trkpt>
      <trkpt lat="43.83793" lon="1.70072">
        <ele>214.9</ele>
        <time>2019-02-06T12:27:8.000Z</time>
      </trkpt>
      <trkpt lat="43.8379" lon="1.70084">
        <ele>215.8</ele>
        <time>2019-02-06T12:27:18.000Z</time>
      </trkpt>
      <trkpt lat="43.83786" lon="1.70095">
        <ele>216.4</ele>
        <time>2019-02-06T12:27:26.000Z</time>
      </trkpt>
      <trkpt lat="43.83782" lon="1.70108">
        <ele>216.9</ele>
        <time>2019-02-06T12:27:35.000Z</time>
      </trkpt>
      <trkpt lat="43.83779" lon="1.70119">
        <ele>217.5</ele>
        <time>2019-02-06T12:27:45.000Z</time>
      </trkpt>
      <trkpt lat="43.83776" lon="1.70132">
        <ele>218</ele>
        <time>2019-02-06T12:27:54.000Z</time>
      </trkpt>
      <trkpt lat="43.83772" lon="1.70143">
        <ele>218.6</ele>
        <time>2019-02-06T12:28:3.000Z</time>
      </trkpt>
      <trkpt lat="43.8377" lon="1.70156">
        <ele>219.1</ele>
        <time>2019-02-06T12:28:13.000Z</time>
      </trkpt>
      <trkpt lat="43.83767" lon="1.70169">
        <ele>219.7</ele>
        <time>2019-02-06T12:28:23.000Z</time>
      </trkpt>
      <trkpt lat="43.83763" lon="1.70181">
        <ele>220.1</ele>
        <time>2019-02-06T12:28:34.000Z</time>
      </trkpt>
      <trkpt lat="43.83761" lon="1.70194">
        <ele>220.6</ele>
        <time>2019-02-06T12:28:44.000Z</time>
      </trkpt>
      <trkpt lat="43.83758" lon="1.70206">
        <ele>220.8</ele>
        <time>2019-02-06T12:28:53.000Z</time>
      </trkpt>
      <trkpt lat="43.83757" lon="1.70219">
        <ele>221</ele>
        <time>2019-02-06T12:29:3.000Z</time>
      </trkpt>
      <trkpt lat="43.83758" lon="1.70232">
        <ele>221.2</ele>
        <time>2019-02-06T12:29:12.000Z</time>
      </trkpt>
      <trkpt lat="43.83753" lon="1.70244">
        <ele>221.5</ele>
        <time>2019-02-06T12:29:21.000Z</time>
      </trkpt>
      <trkpt lat="43.8375" lon="1.70256">
        <ele>221.7</ele>
        <time>2019-02-06T12:29:29.000Z</time>
      </trkpt>
      <trkpt lat="43.83747" lon="1.70269">
        <ele>222</ele>
        <time>2019-02-06T12:29:38.000Z</time>
      </trkpt>
      <trkpt lat="43.83743" lon="1.70281">
        <ele>222.2</ele>
        <time>2019-02-06T12:29:46.000Z</time>
      </trkpt>
      <trkpt lat="43.83739" lon="1.70293">
        <ele>222.3</ele>
        <time>2019-02-06T12:29:54.000Z</time>
      </trkpt>
      <trkpt lat="43.83736" lon="1.70306">
        <ele>222.5</ele>
        <time>2019-02-06T12:30:3.000Z</time>
      </trkpt>
      <trkpt lat="43.83732" lon="1.70317">
        <ele>222.5</ele>
        <time>2019-02-06T12:30:11.000Z</time>
      </trkpt>
      <trkpt lat="43.83727" lon="1.70328">
        <ele>222.5</ele>
        <time>2019-02-06T12:30:20.000Z</time>
      </trkpt>
      <trkpt lat="43.83719" lon="1.7034">
        <ele>221.5</ele>
        <time>2019-02-06T12:33:6.000Z</time>
      </trkpt>
      <trkpt lat="43.83714" lon="1.70351">
        <ele>221.1</ele>
        <time>2019-02-06T12:33:17.000Z</time>
      </trkpt>
      <trkpt lat="43.8371" lon="1.70363">
        <ele>221.2</ele>
        <time>2019-02-06T12:33:27.000Z</time>
      </trkpt>
      <trkpt lat="43.83706" lon="1.70376">
        <ele>221.5</ele>
        <time>2019-02-06T12:33:38.000Z</time>
      </trkpt>
      <trkpt lat="43.83703" lon="1.70387">
        <ele>221.9</ele>
        <time>2019-02-06T12:33:48.000Z</time>
      </trkpt>
      <trkpt lat="43.83698" lon="1.70399">
        <ele>220.6</ele>
        <time>2019-02-06T12:33:56.000Z</time>
      </trkpt>
      <trkpt lat="43.83694" lon="1.70411">
        <ele>221.9</ele>
        <time>2019-02-06T12:34:4.000Z</time>
      </trkpt>
      <trkpt lat="43.8369" lon="1.70423">
        <ele>222.6</ele>
        <time>2019-02-06T12:34:12.000Z</time>
      </trkpt>
      <trkpt lat="43.83684" lon="1.70434">
        <ele>223</ele>
        <time>2019-02-06T12:34:20.000Z</time>
      </trkpt>
      <trkpt lat="43.8368" lon="1.70447">
        <ele>223.2</ele>
        <time>2019-02-06T12:34:29.000Z</time>
      </trkpt>
      <trkpt lat="43.83676" lon="1.70458">
        <ele>223.4</ele>
        <time>2019-02-06T12:34:37.000Z</time>
      </trkpt>
      <trkpt lat="43.83672" lon="1.7047">
        <ele>223.6</ele>
        <time>2019-02-06T12:34:45.000Z</time>
      </trkpt>
      <trkpt lat="43.83667" lon="1.70481">
        <ele>223.9</ele>
        <time>2019-02-06T12:34:54.000Z</time>
      </trkpt>
      <trkpt lat="43.83663" lon="1.70493">
        <ele>224.4</ele>
        <time>2019-02-06T12:35:5.000Z</time>
      </trkpt>
      <trkpt lat="43.8366" lon="1.70505">
        <ele>224.8</ele>
        <time>2019-02-06T12:35:14.000Z</time>
      </trkpt>
      <trkpt lat="43.83656" lon="1.70517">
        <ele>224.5</ele>
        <time>2019-02-06T12:35:25.000Z</time>
      </trkpt>
      <trkpt lat="43.83652" lon="1.7053">
        <ele>226.6</ele>
        <time>2019-02-06T12:35:34.000Z</time>
      </trkpt>
      <trkpt lat="43.83647" lon="1.70542">
        <ele>227.3</ele>
        <time>2019-02-06T12:35:43.000Z</time>
      </trkpt>
      <trkpt lat="43.83642" lon="1.70553">
        <ele>227.5</ele>
        <time>2019-02-06T12:35:51.000Z</time>
      </trkpt>
      <trkpt lat="43.83637" lon="1.70565">
        <ele>228</ele>
        <time>2019-02-06T12:36:0.000Z</time>
      </trkpt>
      <trkpt lat="43.83633" lon="1.70577">
        <ele>228.5</ele>
        <time>2019-02-06T12:36:10.000Z</time>
      </trkpt>
      <trkpt lat="43.83629" lon="1.70589">
        <ele>229.2</ele>
        <time>2019-02-06T12:36:20.000Z</time>
      </trkpt>
      <trkpt lat="43.83627" lon="1.70602">
        <ele>229.8</ele>
        <time>2019-02-06T12:36:30.000Z</time>
      </trkpt>
      <trkpt lat="43.83623" lon="1.70613">
        <ele>230.3</ele>
        <time>2019-02-06T12:36:38.000Z</time>
      </trkpt>
      <trkpt lat="43.83619" lon="1.70626">
        <ele>230.8</ele>
        <time>2019-02-06T12:36:47.000Z</time>
      </trkpt>
      <trkpt lat="43.83612" lon="1.70635">
        <ele>231.1</ele>
        <time>2019-02-06T12:36:55.000Z</time>
      </trkpt>
      <trkpt lat="43.83606" lon="1.70646">
        <ele>231.5</ele>
        <time>2019-02-06T12:37:3.000Z</time>
      </trkpt>
      <trkpt lat="43.83602" lon="1.70658">
        <ele>231.8</ele>
        <time>2019-02-06T12:37:12.000Z</time>
      </trkpt>
      <trkpt lat="43.836" lon="1.70671">
        <ele>232.4</ele>
        <time>2019-02-06T12:37:27.000Z</time>
      </trkpt>
      <trkpt lat="43.83607" lon="1.7068">
        <ele>232.5</ele>
        <time>2019-02-06T12:37:40.000Z</time>
      </trkpt>
      <trkpt lat="43.83617" lon="1.70681">
        <ele>232.6</ele>
        <time>2019-02-06T12:37:52.000Z</time>
      </trkpt>
      <trkpt lat="43.83626" lon="1.7068">
        <ele>232.3</ele>
        <time>2019-02-06T12:38:1.000Z</time>
      </trkpt>
      <trkpt lat="43.83635" lon="1.70684">
        <ele>231.7</ele>
        <time>2019-02-06T12:38:20.000Z</time>
      </trkpt>
      <trkpt lat="43.83644" lon="1.70683">
        <ele>230.4</ele>
        <time>2019-02-06T12:38:36.000Z</time>
      </trkpt>
      <trkpt lat="43.83654" lon="1.70684">
        <ele>229.5</ele>
        <time>2019-02-06T12:38:48.000Z</time>
      </trkpt>
      <trkpt lat="43.83662" lon="1.70686">
        <ele>228.6</ele>
        <time>2019-02-06T12:38:57.000Z</time>
      </trkpt>
      <trkpt lat="43.83672" lon="1.70688">
        <ele>228</ele>
        <time>2019-02-06T12:39:7.000Z</time>
      </trkpt>
      <trkpt lat="43.83682" lon="1.70689">
        <ele>227.2</ele>
        <time>2019-02-06T12:39:18.000Z</time>
      </trkpt>
      <trkpt lat="43.83691" lon="1.70688">
        <ele>226.4</ele>
        <time>2019-02-06T12:39:28.000Z</time>
      </trkpt>
      <trkpt lat="43.83701" lon="1.70687">
        <ele>225.9</ele>
        <time>2019-02-06T12:39:37.000Z</time>
      </trkpt>
      <trkpt lat="43.8371" lon="1.70686">
        <ele>225.4</ele>
        <time>2019-02-06T12:39:46.000Z</time>
      </trkpt>
      <trkpt lat="43.8372" lon="1.70684">
        <ele>225</ele>
        <time>2019-02-06T12:39:55.000Z</time>
      </trkpt>
      <trkpt lat="43.83729" lon="1.70684">
        <ele>224.8</ele>
        <time>2019-02-06T12:40:3.000Z</time>
      </trkpt>
      <trkpt lat="43.83739" lon="1.70686">
        <ele>224.6</ele>
        <time>2019-02-06T12:40:10.000Z</time>
      </trkpt>
      <trkpt lat="43.83748" lon="1.70686">
        <ele>224.5</ele>
        <time>2019-02-06T12:40:20.000Z</time>
      </trkpt>
      <trkpt lat="43.83758" lon="1.70687">
        <ele>224.5</ele>
        <time>2019-02-06T12:40:30.000Z</time>
      </trkpt>
      <trkpt lat="43.83766" lon="1.70692">
        <ele>224.7</ele>
        <time>2019-02-06T12:40:38.000Z</time>
      </trkpt>
      <trkpt lat="43.83775" lon="1.70696">
        <ele>224.9</ele>
        <time>2019-02-06T12:40:46.000Z</time>
      </trkpt>
      <trkpt lat="43.83784" lon="1.70702">
        <ele>225</ele>
        <time>2019-02-06T12:40:54.000Z</time>
      </trkpt>
      <trkpt lat="43.83792" lon="1.70707">
        <ele>225.2</ele>
        <time>2019-02-06T12:41:3.000Z</time>
      </trkpt>
      <trkpt lat="43.83801" lon="1.70712">
        <ele>225.7</ele>
        <time>2019-02-06T12:41:11.000Z</time>
      </trkpt>
      <trkpt lat="43.83809" lon="1.70718">
        <ele>226.3</ele>
        <time>2019-02-06T12:41:20.000Z</time>
      </trkpt>
      <trkpt lat="43.83817" lon="1.70723">
        <ele>226.9</ele>
        <time>2019-02-06T12:41:29.000Z</time>
      </trkpt>
      <trkpt lat="43.83826" lon="1.7073">
        <ele>227.6</ele>
        <time>2019-02-06T12:41:38.000Z</time>
      </trkpt>
      <trkpt lat="43.83834" lon="1.70738">
        <ele>228.2</ele>
        <time>2019-02-06T12:41:47.000Z</time>
      </trkpt>
      <trkpt lat="43.83841" lon="1.70746">
        <ele>229.1</ele>
        <time>2019-02-06T12:41:57.000Z</time>
      </trkpt>
      <trkpt lat="43.83849" lon="1.70753">
        <ele>230.5</ele>
        <time>2019-02-06T12:42:12.000Z</time>
      </trkpt>
      <trkpt lat="43.83857" lon="1.70762">
        <ele>231.2</ele>
        <time>2019-02-06T12:42:24.000Z</time>
      </trkpt>
      <trkpt lat="43.83865" lon="1.70768">
        <ele>231.6</ele>
        <time>2019-02-06T12:42:33.000Z</time>
      </trkpt>
      <trkpt lat="43.83874" lon="1.70774">
        <ele>232</ele>
        <time>2019-02-06T12:42:42.000Z</time>
      </trkpt>
      <trkpt lat="43.83882" lon="1.7078">
        <ele>232.1</ele>
        <time>2019-02-06T12:42:50.000Z</time>
      </trkpt>
      <trkpt lat="43.8389" lon="1.70787">
        <ele>232.3</ele>
        <time>2019-02-06T12:43:0.000Z</time>
      </trkpt>
      <trkpt lat="43.83898" lon="1.70795">
        <ele>232.3</ele>
        <time>2019-02-06T12:43:9.000Z</time>
      </trkpt>
      <trkpt lat="43.83907" lon="1.70801">
        <ele>232.4</ele>
        <time>2019-02-06T12:43:18.000Z</time>
      </trkpt>
      <trkpt lat="43.83916" lon="1.70807">
        <ele>232.4</ele>
        <time>2019-02-06T12:43:27.000Z</time>
      </trkpt>
      <trkpt lat="43.83924" lon="1.70814">
        <ele>232.4</ele>
        <time>2019-02-06T12:43:38.000Z</time>
      </trkpt>
      <trkpt lat="43.83932" lon="1.7082">
        <ele>232.2</ele>
        <time>2019-02-06T12:43:47.000Z</time>
      </trkpt>
      <trkpt lat="43.83942" lon="1.70825">
        <ele>232.2</ele>
        <time>2019-02-06T12:43:57.000Z</time>
      </trkpt>
      <trkpt lat="43.8395" lon="1.7083">
        <ele>232.3</ele>
        <time>2019-02-06T12:44:6.000Z</time>
      </trkpt>
      <trkpt lat="43.83959" lon="1.70836">
        <ele>232.5</ele>
        <time>2019-02-06T12:44:15.000Z</time>
      </trkpt>
      <trkpt lat="43.83968" lon="1.7084">
        <ele>232.9</ele>
        <time>2019-02-06T12:44:24.000Z</time>
      </trkpt>
      <trkpt lat="43.83975" lon="1.70849">
        <ele>233.2</ele>
        <time>2019-02-06T12:44:32.000Z</time>
      </trkpt>
      <trkpt lat="43.83985" lon="1.70852">
        <ele>233.4</ele>
        <time>2019-02-06T12:44:40.000Z</time>
      </trkpt>
      <trkpt lat="43.83994" lon="1.70858">
        <ele>233.6</ele>
        <time>2019-02-06T12:44:50.000Z</time>
      </trkpt>
      <trkpt lat="43.84004" lon="1.70862">
        <ele>233.6</ele>
        <time>2019-02-06T12:44:59.000Z</time>
      </trkpt>
      <trkpt lat="43.84013" lon="1.70866">
        <ele>233.6</ele>
        <time>2019-02-06T12:45:7.000Z</time>
      </trkpt>
      <trkpt lat="43.84022" lon="1.70871">
        <ele>233.4</ele>
        <time>2019-02-06T12:45:15.000Z</time>
      </trkpt>
      <trkpt lat="43.8403" lon="1.70879">
        <ele>232.9</ele>
        <time>2019-02-06T12:45:25.000Z</time>
      </trkpt>
      <trkpt lat="43.84039" lon="1.70885">
        <ele>232.6</ele>
        <time>2019-02-06T12:45:33.000Z</time>
      </trkpt>
      <trkpt lat="43.84049" lon="1.70891">
        <ele>232.1</ele>
        <time>2019-02-06T12:45:43.000Z</time>
      </trkpt>
      <trkpt lat="43.84057" lon="1.70896">
        <ele>231.7</ele>
        <time>2019-02-06T12:45:52.000Z</time>
      </trkpt>
      <trkpt lat="43.84067" lon="1.70903">
        <ele>231.5</ele>
        <time>2019-02-06T12:46:2.000Z</time>
      </trkpt>
      <trkpt lat="43.84075" lon="1.7091">
        <ele>231.4</ele>
        <time>2019-02-06T12:46:10.000Z</time>
      </trkpt>
      <trkpt lat="43.84083" lon="1.70915">
        <ele>231.3</ele>
        <time>2019-02-06T12:46:18.000Z</time>
      </trkpt>
      <trkpt lat="43.84092" lon="1.70921">
        <ele>231.3</ele>
        <time>2019-02-06T12:46:26.000Z</time>
      </trkpt>
      <trkpt lat="43.841" lon="1.70927">
        <ele>231.2</ele>
        <time>2019-02-06T12:46:35.000Z</time>
      </trkpt>
      <trkpt lat="43.84109" lon="1.70933">
        <ele>231.2</ele>
        <time>2019-02-06T12:46:43.000Z</time>
      </trkpt>
      <trkpt lat="43.84117" lon="1.70939">
        <ele>231.2</ele>
        <time>2019-02-06T12:46:51.000Z</time>
      </trkpt>
      <trkpt lat="43.84126" lon="1.70945">
        <ele>231.3</ele>
        <time>2019-02-06T12:47:1.000Z</time>
      </trkpt>
      <trkpt lat="43.84134" lon="1.70951">
        <ele>231.2</ele>
        <time>2019-02-06T12:47:11.000Z</time>
      </trkpt>
      <trkpt lat="43.84142" lon="1.7096">
        <ele>231.3</ele>
        <time>2019-02-06T12:47:22.000Z</time>
      </trkpt>
      <trkpt lat="43.84145" lon="1.70972">
        <ele>231.5</ele>
        <time>2019-02-06T12:47:30.000Z</time>
      </trkpt>
      <trkpt lat="43.84142" lon="1.70985">
        <ele>232</ele>
        <time>2019-02-06T12:47:43.000Z</time>
      </trkpt>
      <trkpt lat="43.84134" lon="1.70989">
        <ele>225.8</ele>
        <time>2019-02-06T12:47:56.000Z</time>
      </trkpt>
      <trkpt lat="43.8414" lon="1.70999">
        <ele>232.7</ele>
        <time>2019-02-06T12:49:39.000Z</time>
      </trkpt>
      <trkpt lat="43.8415" lon="1.71002">
        <ele>232.9</ele>
        <time>2019-02-06T12:50:53.000Z</time>
      </trkpt>
      <trkpt lat="43.84159" lon="1.71006">
        <ele>232.9</ele>
        <time>2019-02-06T12:51:0.000Z</time>
      </trkpt>
      <trkpt lat="43.84168" lon="1.7101">
        <ele>233.1</ele>
        <time>2019-02-06T12:51:8.000Z</time>
      </trkpt>
      <trkpt lat="43.84177" lon="1.71015">
        <ele>233.4</ele>
        <time>2019-02-06T12:51:16.000Z</time>
      </trkpt>
      <trkpt lat="43.84186" lon="1.71019">
        <ele>233.8</ele>
        <time>2019-02-06T12:51:23.000Z</time>
      </trkpt>
      <trkpt lat="43.84194" lon="1.71023">
        <ele>234</ele>
        <time>2019-02-06T12:51:31.000Z</time>
      </trkpt>
      <trkpt lat="43.84204" lon="1.71027">
        <ele>234.6</ele>
        <time>2019-02-06T12:51:42.000Z</time>
      </trkpt>
      <trkpt lat="43.84213" lon="1.71032">
        <ele>235</ele>
        <time>2019-02-06T12:51:50.000Z</time>
      </trkpt>
      <trkpt lat="43.84222" lon="1.71035">
        <ele>235.4</ele>
        <time>2019-02-06T12:51:58.000Z</time>
      </trkpt>
      <trkpt lat="43.84232" lon="1.71035">
        <ele>236</ele>
        <time>2019-02-06T12:52:8.000Z</time>
      </trkpt>
      <trkpt lat="43.84241" lon="1.7104">
        <ele>236.4</ele>
        <time>2019-02-06T12:52:16.000Z</time>
      </trkpt>
      <trkpt lat="43.8425" lon="1.71042">
        <ele>237.1</ele>
        <time>2019-02-06T12:52:27.000Z</time>
      </trkpt>
      <trkpt lat="43.84259" lon="1.71042">
        <ele>237.7</ele>
        <time>2019-02-06T12:52:37.000Z</time>
      </trkpt>
      <trkpt lat="43.84269" lon="1.71042">
        <ele>238.3</ele>
        <time>2019-02-06T12:52:47.000Z</time>
      </trkpt>
      <trkpt lat="43.84278" lon="1.71042">
        <ele>239.2</ele>
        <time>2019-02-06T12:52:55.000Z</time>
      </trkpt>
      <trkpt lat="43.84287" lon="1.71041">
        <ele>240.1</ele>
        <time>2019-02-06T12:53:3.000Z</time>
      </trkpt>
      <trkpt lat="43.84296" lon="1.71042">
        <ele>241</ele>
        <time>2019-02-06T12:53:11.000Z</time>
      </trkpt>
      <trkpt lat="43.84305" lon="1.71042">
        <ele>242.1</ele>
        <time>2019-02-06T12:53:21.000Z</time>
      </trkpt>
      <trkpt lat="43.84314" lon="1.71042">
        <ele>243</ele>
        <time>2019-02-06T12:53:30.000Z</time>
      </trkpt>
      <trkpt lat="43.84326" lon="1.7104">
        <ele>246.5</ele>
        <time>2019-02-06T12:53:54.000Z</time>
      </trkpt>
      <trkpt lat="43.84335" lon="1.71044">
        <ele>247</ele>
        <time>2019-02-06T12:54:46.000Z</time>
      </trkpt>
      <trkpt lat="43.84344" lon="1.71046">
        <ele>246.5</ele>
        <time>2019-02-06T12:55:1.000Z</time>
      </trkpt>
      <trkpt lat="43.84352" lon="1.7105">
        <ele>245.6</ele>
        <time>2019-02-06T12:55:21.000Z</time>
      </trkpt>
      <trkpt lat="43.84363" lon="1.71055">
        <ele>244.4</ele>
        <time>2019-02-06T12:55:39.000Z</time>
      </trkpt>
      <trkpt lat="43.84372" lon="1.71057">
        <ele>243.2</ele>
        <time>2019-02-06T12:55:50.000Z</time>
      </trkpt>
      <trkpt lat="43.84381" lon="1.7106">
        <ele>242</ele>
        <time>2019-02-06T12:56:1.000Z</time>
      </trkpt>
      <trkpt lat="43.8439" lon="1.71065">
        <ele>240.8</ele>
        <time>2019-02-06T12:56:12.000Z</time>
      </trkpt>
      <trkpt lat="43.844" lon="1.71067">
        <ele>239.2</ele>
        <time>2019-02-06T12:56:26.000Z</time>
      </trkpt>
      <trkpt lat="43.84408" lon="1.71074">
        <ele>237.4</ele>
        <time>2019-02-06T12:56:39.000Z</time>
      </trkpt>
      <trkpt lat="43.84418" lon="1.71077">
        <ele>236.8</ele>
        <time>2019-02-06T12:56:46.000Z</time>
      </trkpt>
      <trkpt lat="43.84427" lon="1.7108">
        <ele>236.1</ele>
        <time>2019-02-06T12:56:54.000Z</time>
      </trkpt>
      <trkpt lat="43.84435" lon="1.71087">
        <ele>234.9</ele>
        <time>2019-02-06T12:57:8.000Z</time>
      </trkpt>
      <trkpt lat="43.84443" lon="1.71095">
        <ele>234.2</ele>
        <time>2019-02-06T12:57:19.000Z</time>
      </trkpt>
      <trkpt lat="43.84453" lon="1.71098">
        <ele>233.9</ele>
        <time>2019-02-06T12:57:29.000Z</time>
      </trkpt>
      <trkpt lat="43.84462" lon="1.71101">
        <ele>233.3</ele>
        <time>2019-02-06T12:57:37.000Z</time>
      </trkpt>
      <trkpt lat="43.84471" lon="1.71105">
        <ele>232.6</ele>
        <time>2019-02-06T12:57:47.000Z</time>
      </trkpt>
      <trkpt lat="43.8448" lon="1.71104">
        <ele>232.2</ele>
        <time>2019-02-06T12:57:58.000Z</time>
      </trkpt>
      <trkpt lat="43.84489" lon="1.71103">
        <ele>231.6</ele>
        <time>2019-02-06T12:58:7.000Z</time>
      </trkpt>
      <trkpt lat="43.84498" lon="1.71099">
        <ele>230.4</ele>
        <time>2019-02-06T12:58:20.000Z</time>
      </trkpt>
      <trkpt lat="43.84506" lon="1.71093">
        <ele>229.4</ele>
        <time>2019-02-06T12:58:30.000Z</time>
      </trkpt>
      <trkpt lat="43.84514" lon="1.71086">
        <ele>227.3</ele>
        <time>2019-02-06T12:58:42.000Z</time>
      </trkpt>
      <trkpt lat="43.84521" lon="1.71077">
        <ele>224.6</ele>
        <time>2019-02-06T12:58:55.000Z</time>
      </trkpt>
      <trkpt lat="43.84528" lon="1.71068">
        <ele>221.6</ele>
        <time>2019-02-06T12:59:7.000Z</time>
      </trkpt>
      <trkpt lat="43.84534" lon="1.71058">
        <ele>219.3</ele>
        <time>2019-02-06T12:59:19.000Z</time>
      </trkpt>
      <trkpt lat="43.84539" lon="1.71045">
        <ele>217.9</ele>
        <time>2019-02-06T12:59:28.000Z</time>
      </trkpt>
      <trkpt lat="43.84545" lon="1.71036">
        <ele>216.4</ele>
        <time>2019-02-06T12:59:39.000Z</time>
      </trkpt>
      <trkpt lat="43.84554" lon="1.7104">
        <ele>214.2</ele>
        <time>2019-02-06T12:59:53.000Z</time>
      </trkpt>
      <trkpt lat="43.84557" lon="1.71051">
        <ele>192.6</ele>
        <time>2019-02-06T13:00:1.000Z</time>
      </trkpt>
      <trkpt lat="43.8456" lon="1.71062">
        <ele>192.7</ele>
        <time>2019-02-06T13:00:10.000Z</time>
      </trkpt>
      <trkpt lat="43.84562" lon="1.71071">
        <ele>192.8</ele>
        <time>2019-02-06T13:00:19.000Z</time>
      </trkpt>
      <trkpt lat="43.84564" lon="1.71082">
        <ele>213.5</ele>
        <time>2019-02-06T13:00:26.000Z</time>
      </trkpt>
      <trkpt lat="43.84569" lon="1.71095">
        <ele>213.5</ele>
        <time>2019-02-06T13:00:36.000Z</time>
      </trkpt>
      <trkpt lat="43.8457" lon="1.71108">
        <ele>213.6</ele>
        <time>2019-02-06T13:00:44.000Z</time>
      </trkpt>
      <trkpt lat="43.8457" lon="1.71122">
        <ele>213.8</ele>
        <time>2019-02-06T13:00:53.000Z</time>
      </trkpt>
      <trkpt lat="43.84573" lon="1.71135">
        <ele>214</ele>
        <time>2019-02-06T13:01:2.000Z</time>
      </trkpt>
      <trkpt lat="43.84575" lon="1.71148">
        <ele>214.2</ele>
        <time>2019-02-06T13:01:10.000Z</time>
      </trkpt>
      <trkpt lat="43.84577" lon="1.71161">
        <ele>214.3</ele>
        <time>2019-02-06T13:01:20.000Z</time>
      </trkpt>
      <trkpt lat="43.84578" lon="1.71175">
        <ele>214.7</ele>
        <time>2019-02-06T13:01:31.000Z</time>
      </trkpt>
      <trkpt lat="43.84579" lon="1.71188">
        <ele>215</ele>
        <time>2019-02-06T13:01:42.000Z</time>
      </trkpt>
      <trkpt lat="43.84582" lon="1.71201">
        <ele>215.4</ele>
        <time>2019-02-06T13:01:56.000Z</time>
      </trkpt>
      <trkpt lat="43.84586" lon="1.71213">
        <ele>215.7</ele>
        <time>2019-02-06T13:02:3.000Z</time>
      </trkpt>
      <trkpt lat="43.84591" lon="1.71224">
        <ele>215.9</ele>
        <time>2019-02-06T13:02:10.000Z</time>
      </trkpt>
      <trkpt lat="43.84597" lon="1.71234">
        <ele>216.2</ele>
        <time>2019-02-06T13:02:17.000Z</time>
      </trkpt>
      <trkpt lat="43.846" lon="1.71248">
        <ele>216.3</ele>
        <time>2019-02-06T13:02:25.000Z</time>
      </trkpt>
      <trkpt lat="43.84603" lon="1.71259">
        <ele>216.7</ele>
        <time>2019-02-06T13:02:34.000Z</time>
      </trkpt>
      <trkpt lat="43.84605" lon="1.71272">
        <ele>216.9</ele>
        <time>2019-02-06T13:02:42.000Z</time>
      </trkpt>
      <trkpt lat="43.84604" lon="1.71285">
        <ele>217</ele>
        <time>2019-02-06T13:02:49.000Z</time>
      </trkpt>
      <trkpt lat="43.84605" lon="1.71297">
        <ele>217.3</ele>
        <time>2019-02-06T13:03:0.000Z</time>
      </trkpt>
      <trkpt lat="43.84602" lon="1.7131">
        <ele>214.8</ele>
        <time>2019-02-06T13:03:13.000Z</time>
      </trkpt>
      <trkpt lat="43.84599" lon="1.71326">
        <ele>216.2</ele>
        <time>2019-02-06T13:03:32.000Z</time>
      </trkpt>
      <trkpt lat="43.846" lon="1.71335">
        <ele>216.8</ele>
        <time>2019-02-06T13:03:45.000Z</time>
      </trkpt>
      <trkpt lat="43.84598" lon="1.71347">
        <ele>216.7</ele>
        <time>2019-02-06T13:03:56.000Z</time>
      </trkpt>
      <trkpt lat="43.846" lon="1.71362">
        <ele>216.3</ele>
        <time>2019-02-06T13:04:10.000Z</time>
      </trkpt>
      <trkpt lat="43.84603" lon="1.71369">
        <ele>215.9</ele>
        <time>2019-02-06T13:04:21.000Z</time>
      </trkpt>
      <trkpt lat="43.84603" lon="1.71378">
        <ele>215.8</ele>
        <time>2019-02-06T13:04:33.000Z</time>
      </trkpt>
      <trkpt lat="43.84605" lon="1.71389">
        <ele>215.4</ele>
        <time>2019-02-06T13:04:44.000Z</time>
      </trkpt>
      <trkpt lat="43.84609" lon="1.714">
        <ele>214.8</ele>
        <time>2019-02-06T13:05:6.000Z</time>
      </trkpt>
      <trkpt lat="43.84612" lon="1.71408">
        <ele>214.5</ele>
        <time>2019-02-06T13:05:19.000Z</time>
      </trkpt>
      <trkpt lat="43.84617" lon="1.7142">
        <ele>213.6</ele>
        <time>2019-02-06T13:05:31.000Z</time>
      </trkpt>
      <trkpt lat="43.84622" lon="1.7143">
        <ele>212.6</ele>
        <time>2019-02-06T13:05:40.000Z</time>
      </trkpt>
      <trkpt lat="43.84625" lon="1.71441">
        <ele>211.6</ele>
        <time>2019-02-06T13:05:49.000Z</time>
      </trkpt>
      <trkpt lat="43.84627" lon="1.7145">
        <ele>226.2</ele>
        <time>2019-02-06T13:05:58.000Z</time>
      </trkpt>
      <trkpt lat="43.8463" lon="1.71463">
        <ele>227.4</ele>
        <time>2019-02-06T13:06:9.000Z</time>
      </trkpt>
      <trkpt lat="43.84628" lon="1.71476">
        <ele>228.2</ele>
        <time>2019-02-06T13:06:20.000Z</time>
      </trkpt>
      <trkpt lat="43.84626" lon="1.71489">
        <ele>229</ele>
        <time>2019-02-06T13:06:33.000Z</time>
      </trkpt>
      <trkpt lat="43.84624" lon="1.71502">
        <ele>229.5</ele>
        <time>2019-02-06T13:06:43.000Z</time>
      </trkpt>
      <trkpt lat="43.84623" lon="1.71515">
        <ele>229.8</ele>
        <time>2019-02-06T13:06:53.000Z</time>
      </trkpt>
      <trkpt lat="43.84625" lon="1.71527">
        <ele>229.7</ele>
        <time>2019-02-06T13:07:6.000Z</time>
      </trkpt>
      <trkpt lat="43.84626" lon="1.71541">
        <ele>229.2</ele>
        <time>2019-02-06T13:07:16.000Z</time>
      </trkpt>
      <trkpt lat="43.84628" lon="1.71554">
        <ele>228.5</ele>
        <time>2019-02-06T13:07:26.000Z</time>
      </trkpt>
      <trkpt lat="43.84628" lon="1.71568">
        <ele>227.9</ele>
        <time>2019-02-06T13:07:35.000Z</time>
      </trkpt>
      <trkpt lat="43.84626" lon="1.71581">
        <ele>227.2</ele>
        <time>2019-02-06T13:07:44.000Z</time>
      </trkpt>
      <trkpt lat="43.84624" lon="1.71593">
        <ele>226.7</ele>
        <time>2019-02-06T13:07:52.000Z</time>
      </trkpt>
      <trkpt lat="43.84623" lon="1.71606">
        <ele>225.8</ele>
        <time>2019-02-06T13:08:5.000Z</time>
      </trkpt>
      <trkpt lat="43.84623" lon="1.71619">
        <ele>225.4</ele>
        <time>2019-02-06T13:08:14.000Z</time>
      </trkpt>
      <trkpt lat="43.84625" lon="1.71632">
        <ele>225</ele>
        <time>2019-02-06T13:08:24.000Z</time>
      </trkpt>
      <trkpt lat="43.84624" lon="1.71645">
        <ele>224.6</ele>
        <time>2019-02-06T13:08:33.000Z</time>
      </trkpt>
      <trkpt lat="43.84621" lon="1.71658">
        <ele>224.3</ele>
        <time>2019-02-06T13:08:42.000Z</time>
      </trkpt>
      <trkpt lat="43.84617" lon="1.7167">
        <ele>224.3</ele>
        <time>2019-02-06T13:08:50.000Z</time>
      </trkpt>
      <trkpt lat="43.84613" lon="1.71682">
        <ele>224.2</ele>
        <time>2019-02-06T13:09:0.000Z</time>
      </trkpt>
      <trkpt lat="43.84608" lon="1.71694">
        <ele>224.6</ele>
        <time>2019-02-06T13:09:10.000Z</time>
      </trkpt>
      <trkpt lat="43.84604" lon="1.71707">
        <ele>225.1</ele>
        <time>2019-02-06T13:09:20.000Z</time>
      </trkpt>
      <trkpt lat="43.84597" lon="1.71718">
        <ele>225.6</ele>
        <time>2019-02-06T13:09:27.000Z</time>
      </trkpt>
      <trkpt lat="43.84593" lon="1.71731">
        <ele>226</ele>
        <time>2019-02-06T13:09:35.000Z</time>
      </trkpt>
      <trkpt lat="43.84591" lon="1.71744">
        <ele>226.4</ele>
        <time>2019-02-06T13:09:44.000Z</time>
      </trkpt>
      <trkpt lat="43.84591" lon="1.71757">
        <ele>226.8</ele>
        <time>2019-02-06T13:09:55.000Z</time>
      </trkpt>
      <trkpt lat="43.84589" lon="1.7177">
        <ele>227.3</ele>
        <time>2019-02-06T13:10:3.000Z</time>
      </trkpt>
      <trkpt lat="43.84587" lon="1.71783">
        <ele>228</ele>
        <time>2019-02-06T13:10:13.000Z</time>
      </trkpt>
      <trkpt lat="43.84596" lon="1.71786">
        <ele>228.1</ele>
        <time>2019-02-06T13:12:35.000Z</time>
      </trkpt>
      <trkpt lat="43.84605" lon="1.71786">
        <ele>226.9</ele>
        <time>2019-02-06T13:12:52.000Z</time>
      </trkpt>
      <trkpt lat="43.84614" lon="1.71786">
        <ele>225.6</ele>
        <time>2019-02-06T13:13:5.000Z</time>
      </trkpt>
      <trkpt lat="43.84623" lon="1.71788">
        <ele>224.2</ele>
        <time>2019-02-06T13:13:17.000Z</time>
      </trkpt>
      <trkpt lat="43.84632" lon="1.71784">
        <ele>222.7</ele>
        <time>2019-02-06T13:13:30.000Z</time>
      </trkpt>
      <trkpt lat="43.84642" lon="1.71781">
        <ele>221.6</ele>
        <time>2019-02-06T13:13:40.000Z</time>
      </trkpt>
      <trkpt lat="43.8465" lon="1.71778">
        <ele>220.1</ele>
        <time>2019-02-06T13:13:52.000Z</time>
      </trkpt>
      <trkpt lat="43.8466" lon="1.71776">
        <ele>219</ele>
        <time>2019-02-06T13:14:3.000Z</time>
      </trkpt>
      <trkpt lat="43.8467" lon="1.71775">
        <ele>217.9</ele>
        <time>2019-02-06T13:14:12.000Z</time>
      </trkpt>
      <trkpt lat="43.84679" lon="1.71774">
        <ele>216.8</ele>
        <time>2019-02-06T13:14:21.000Z</time>
      </trkpt>
      <trkpt lat="43.84688" lon="1.71771">
        <ele>215.9</ele>
        <time>2019-02-06T13:14:31.000Z</time>
      </trkpt>
      <trkpt lat="43.84698" lon="1.71771">
        <ele>215</ele>
        <time>2019-02-06T13:14:39.000Z</time>
      </trkpt>
      <trkpt lat="43.84708" lon="1.71771">
        <ele>214.1</ele>
        <time>2019-02-06T13:14:47.000Z</time>
      </trkpt>
      <trkpt lat="43.84718" lon="1.71773">
        <ele>213.4</ele>
        <time>2019-02-06T13:14:55.000Z</time>
      </trkpt>
      <trkpt lat="43.84727" lon="1.71774">
        <ele>212.4</ele>
        <time>2019-02-06T13:15:3.000Z</time>
      </trkpt>
      <trkpt lat="43.84737" lon="1.71771">
        <ele>211.9</ele>
        <time>2019-02-06T13:15:11.000Z</time>
      </trkpt>
      <trkpt lat="43.84747" lon="1.71773">
        <ele>211.2</ele>
        <time>2019-02-06T13:15:20.000Z</time>
      </trkpt>
      <trkpt lat="43.84756" lon="1.71775">
        <ele>210.5</ele>
        <time>2019-02-06T13:15:28.000Z</time>
      </trkpt>
      <trkpt lat="43.84765" lon="1.71778">
        <ele>210.3</ele>
        <time>2019-02-06T13:15:36.000Z</time>
      </trkpt>
      <trkpt lat="43.84773" lon="1.71783">
        <ele>209.9</ele>
        <time>2019-02-06T13:15:43.000Z</time>
      </trkpt>
      <trkpt lat="43.84783" lon="1.71788">
        <ele>209.5</ele>
        <time>2019-02-06T13:15:51.000Z</time>
      </trkpt>
      <trkpt lat="43.84791" lon="1.71792">
        <ele>209.3</ele>
        <time>2019-02-06T13:15:59.000Z</time>
      </trkpt>
      <trkpt lat="43.848" lon="1.71796">
        <ele>209.2</ele>
        <time>2019-02-06T13:16:8.000Z</time>
      </trkpt>
      <trkpt lat="43.84809" lon="1.71802">
        <ele>209.5</ele>
        <time>2019-02-06T13:16:19.000Z</time>
      </trkpt>
      <trkpt lat="43.84818" lon="1.71806">
        <ele>209.8</ele>
        <time>2019-02-06T13:16:27.000Z</time>
      </trkpt>
      <trkpt lat="43.84827" lon="1.71811">
        <ele>210.2</ele>
        <time>2019-02-06T13:16:37.000Z</time>
      </trkpt>
      <trkpt lat="43.84835" lon="1.71817">
        <ele>210.6</ele>
        <time>2019-02-06T13:16:46.000Z</time>
      </trkpt>
      <trkpt lat="43.84845" lon="1.7182">
        <ele>211.1</ele>
        <time>2019-02-06T13:16:55.000Z</time>
      </trkpt>
      <trkpt lat="43.84853" lon="1.71826">
        <ele>211.9</ele>
        <time>2019-02-06T13:17:5.000Z</time>
      </trkpt>
      <trkpt lat="43.84861" lon="1.71834">
        <ele>212.3</ele>
        <time>2019-02-06T13:17:15.000Z</time>
      </trkpt>
      <trkpt lat="43.84872" lon="1.71835">
        <ele>212.8</ele>
        <time>2019-02-06T13:17:24.000Z</time>
      </trkpt>
      <trkpt lat="43.84881" lon="1.71837">
        <ele>213.2</ele>
        <time>2019-02-06T13:17:32.000Z</time>
      </trkpt>
      <trkpt lat="43.84889" lon="1.7184">
        <ele>213.7</ele>
        <time>2019-02-06T13:17:40.000Z</time>
      </trkpt>
      <trkpt lat="43.84899" lon="1.7184">
        <ele>214</ele>
        <time>2019-02-06T13:17:46.000Z</time>
      </trkpt>
      <trkpt lat="43.84908" lon="1.71842">
        <ele>214.4</ele>
        <time>2019-02-06T13:17:54.000Z</time>
      </trkpt>
      <trkpt lat="43.84918" lon="1.71843">
        <ele>214.8</ele>
        <time>2019-02-06T13:18:2.000Z</time>
      </trkpt>
      <trkpt lat="43.84927" lon="1.71847">
        <ele>215.1</ele>
        <time>2019-02-06T13:18:10.000Z</time>
      </trkpt>
      <trkpt lat="43.84936" lon="1.71849">
        <ele>215.2</ele>
        <time>2019-02-06T13:18:19.000Z</time>
      </trkpt>
      <trkpt lat="43.84946" lon="1.71847">
        <ele>214.9</ele>
        <time>2019-02-06T13:18:29.000Z</time>
      </trkpt>
      <trkpt lat="43.84955" lon="1.71842">
        <ele>214.4</ele>
        <time>2019-02-06T13:18:41.000Z</time>
      </trkpt>
      <trkpt lat="43.84963" lon="1.71838">
        <ele>213.9</ele>
        <time>2019-02-06T13:18:50.000Z</time>
      </trkpt>
      <trkpt lat="43.84972" lon="1.71836">
        <ele>213.6</ele>
        <time>2019-02-06T13:18:59.000Z</time>
      </trkpt>
      <trkpt lat="43.84982" lon="1.71833">
        <ele>213.2</ele>
        <time>2019-02-06T13:19:8.000Z</time>
      </trkpt>
      <trkpt lat="43.84992" lon="1.71835">
        <ele>212.9</ele>
        <time>2019-02-06T13:19:16.000Z</time>
      </trkpt>
      <trkpt lat="43.85002" lon="1.71834">
        <ele>212.7</ele>
        <time>2019-02-06T13:19:25.000Z</time>
      </trkpt>
      <trkpt lat="43.85012" lon="1.71835">
        <ele>212.6</ele>
        <time>2019-02-06T13:19:34.000Z</time>
      </trkpt>
      <trkpt lat="43.85021" lon="1.71834">
        <ele>212.5</ele>
        <time>2019-02-06T13:19:42.000Z</time>
      </trkpt>
      <trkpt lat="43.8503" lon="1.71831">
        <ele>212.4</ele>
        <time>2019-02-06T13:19:52.000Z</time>
      </trkpt>
      <trkpt lat="43.8504" lon="1.7183">
        <ele>212.3</ele>
        <time>2019-02-06T13:20:1.000Z</time>
      </trkpt>
      <trkpt lat="43.85049" lon="1.71829">
        <ele>212.2</ele>
        <time>2019-02-06T13:20:13.000Z</time>
      </trkpt>
      <trkpt lat="43.85059" lon="1.71827">
        <ele>212.1</ele>
        <time>2019-02-06T13:20:24.000Z</time>
      </trkpt>
      <trkpt lat="43.85068" lon="1.71825">
        <ele>212</ele>
        <time>2019-02-06T13:20:33.000Z</time>
      </trkpt>
      <trkpt lat="43.85077" lon="1.71823">
        <ele>212</ele>
        <time>2019-02-06T13:20:40.000Z</time>
      </trkpt>
      <trkpt lat="43.85086" lon="1.71823">
        <ele>211.9</ele>
        <time>2019-02-06T13:20:48.000Z</time>
      </trkpt>
      <trkpt lat="43.85096" lon="1.71823">
        <ele>211.6</ele>
        <time>2019-02-06T13:20:58.000Z</time>
      </trkpt>
      <trkpt lat="43.85106" lon="1.71821">
        <ele>211.3</ele>
        <time>2019-02-06T13:21:7.000Z</time>
      </trkpt>
      <trkpt lat="43.85115" lon="1.71818">
        <ele>211.2</ele>
        <time>2019-02-06T13:21:16.000Z</time>
      </trkpt>
      <trkpt lat="43.85124" lon="1.71818">
        <ele>211</ele>
        <time>2019-02-06T13:21:25.000Z</time>
      </trkpt>
      <trkpt lat="43.85134" lon="1.71817">
        <ele>211</ele>
        <time>2019-02-06T13:21:32.000Z</time>
      </trkpt>
      <trkpt lat="43.85143" lon="1.71814">
        <ele>210.9</ele>
        <time>2019-02-06T13:21:42.000Z</time>
      </trkpt>
      <trkpt lat="43.85152" lon="1.71812">
        <ele>210.5</ele>
        <time>2019-02-06T13:21:52.000Z</time>
      </trkpt>
      <trkpt lat="43.85161" lon="1.71809">
        <ele>210.4</ele>
        <time>2019-02-06T13:22:5.000Z</time>
      </trkpt>
      <trkpt lat="43.85171" lon="1.71809">
        <ele>210.3</ele>
        <time>2019-02-06T13:22:14.000Z</time>
      </trkpt>
      <trkpt lat="43.8518" lon="1.71805">
        <ele>210.3</ele>
        <time>2019-02-06T13:22:22.000Z</time>
      </trkpt>
      <trkpt lat="43.85189" lon="1.71805">
        <ele>210.3</ele>
        <time>2019-02-06T13:22:31.000Z</time>
      </trkpt>
      <trkpt lat="43.85198" lon="1.71801">
        <ele>210.3</ele>
        <time>2019-02-06T13:22:42.000Z</time>
      </trkpt>
      <trkpt lat="43.85207" lon="1.71798">
        <ele>210.3</ele>
        <time>2019-02-06T13:22:53.000Z</time>
      </trkpt>
      <trkpt lat="43.85216" lon="1.71798">
        <ele>210.4</ele>
        <time>2019-02-06T13:23:1.000Z</time>
      </trkpt>
      <trkpt lat="43.85225" lon="1.71798">
        <ele>210.2</ele>
        <time>2019-02-06T13:23:10.000Z</time>
      </trkpt>
      <trkpt lat="43.85235" lon="1.71795">
        <ele>210.2</ele>
        <time>2019-02-06T13:23:19.000Z</time>
      </trkpt>
      <trkpt lat="43.85245" lon="1.71795">
        <ele>210.2</ele>
        <time>2019-02-06T13:23:30.000Z</time>
      </trkpt>
      <trkpt lat="43.85254" lon="1.71795">
        <ele>210.2</ele>
        <time>2019-02-06T13:23:39.000Z</time>
      </trkpt>
      <trkpt lat="43.85264" lon="1.71792">
        <ele>210.3</ele>
        <time>2019-02-06T13:23:48.000Z</time>
      </trkpt>
      <trkpt lat="43.85275" lon="1.71795">
        <ele>210.6</ele>
        <time>2019-02-06T13:23:57.000Z</time>
      </trkpt>
      <trkpt lat="43.85284" lon="1.71798">
        <ele>210.8</ele>
        <time>2019-02-06T13:24:4.000Z</time>
      </trkpt>
      <trkpt lat="43.85293" lon="1.71802">
        <ele>210.9</ele>
        <time>2019-02-06T13:24:12.000Z</time>
      </trkpt>
      <trkpt lat="43.85302" lon="1.71806">
        <ele>211.1</ele>
        <time>2019-02-06T13:24:22.000Z</time>
      </trkpt>
      <trkpt lat="43.85311" lon="1.7181">
        <ele>211.3</ele>
        <time>2019-02-06T13:24:33.000Z</time>
      </trkpt>
      <trkpt lat="43.85319" lon="1.71815">
        <ele>211.6</ele>
        <time>2019-02-06T13:24:48.000Z</time>
      </trkpt>
      <trkpt lat="43.85329" lon="1.71817">
        <ele>211.9</ele>
        <time>2019-02-06T13:24:58.000Z</time>
      </trkpt>
      <trkpt lat="43.85338" lon="1.71818">
        <ele>212.2</ele>
        <time>2019-02-06T13:25:8.000Z</time>
      </trkpt>
      <trkpt lat="43.85348" lon="1.7182">
        <ele>212.6</ele>
        <time>2019-02-06T13:25:18.000Z</time>
      </trkpt>
      <trkpt lat="43.85357" lon="1.71822">
        <ele>212.9</ele>
        <time>2019-02-06T13:25:27.000Z</time>
      </trkpt>
      <trkpt lat="43.85367" lon="1.71822">
        <ele>213.4</ele>
        <time>2019-02-06T13:25:36.000Z</time>
      </trkpt>
      <trkpt lat="43.85376" lon="1.71823">
        <ele>213.8</ele>
        <time>2019-02-06T13:25:44.000Z</time>
      </trkpt>
      <trkpt lat="43.85386" lon="1.71823">
        <ele>214.4</ele>
        <time>2019-02-06T13:25:52.000Z</time>
      </trkpt>
      <trkpt lat="43.85395" lon="1.71826">
        <ele>214.8</ele>
        <time>2019-02-06T13:26:1.000Z</time>
      </trkpt>
      <trkpt lat="43.85404" lon="1.71834">
        <ele>215.2</ele>
        <time>2019-02-06T13:26:9.000Z</time>
      </trkpt>
      <trkpt lat="43.85413" lon="1.71834">
        <ele>215.8</ele>
        <time>2019-02-06T13:26:18.000Z</time>
      </trkpt>
      <trkpt lat="43.85422" lon="1.71832">
        <ele>216.6</ele>
        <time>2019-02-06T13:26:28.000Z</time>
      </trkpt>
      <trkpt lat="43.85431" lon="1.71828">
        <ele>217.2</ele>
        <time>2019-02-06T13:26:40.000Z</time>
      </trkpt>
      <trkpt lat="43.85441" lon="1.71828">
        <ele>217.6</ele>
        <time>2019-02-06T13:26:50.000Z</time>
      </trkpt>
      <trkpt lat="43.85451" lon="1.71829">
        <ele>217.9</ele>
        <time>2019-02-06T13:26:59.000Z</time>
      </trkpt>
      <trkpt lat="43.8546" lon="1.71834">
        <ele>218.1</ele>
        <time>2019-02-06T13:27:14.000Z</time>
      </trkpt>
      <trkpt lat="43.85459" lon="1.71854">
        <ele>219.1</ele>
        <time>2019-02-06T13:32:29.000Z</time>
      </trkpt>
      <trkpt lat="43.85457" lon="1.71868">
        <ele>218.9</ele>
        <time>2019-02-06T13:32:40.000Z</time>
      </trkpt>
      <trkpt lat="43.85453" lon="1.7188">
        <ele>218.9</ele>
        <time>2019-02-06T13:32:50.000Z</time>
      </trkpt>
      <trkpt lat="43.85448" lon="1.71891">
        <ele>218.9</ele>
        <time>2019-02-06T13:33:0.000Z</time>
      </trkpt>
      <trkpt lat="43.85442" lon="1.71903">
        <ele>219.3</ele>
        <time>2019-02-06T13:33:9.000Z</time>
      </trkpt>
      <trkpt lat="43.85439" lon="1.71916">
        <ele>220</ele>
        <time>2019-02-06T13:33:19.000Z</time>
      </trkpt>
      <trkpt lat="43.85436" lon="1.71929">
        <ele>220.7</ele>
        <time>2019-02-06T13:33:28.000Z</time>
      </trkpt>
      <trkpt lat="43.85433" lon="1.71941">
        <ele>221.1</ele>
        <time>2019-02-06T13:33:37.000Z</time>
      </trkpt>
      <trkpt lat="43.85428" lon="1.71952">
        <ele>221.7</ele>
        <time>2019-02-06T13:33:47.000Z</time>
      </trkpt>
      <trkpt lat="43.85425" lon="1.71964">
        <ele>222.3</ele>
        <time>2019-02-06T13:33:56.000Z</time>
      </trkpt>
      <trkpt lat="43.85428" lon="1.71976">
        <ele>222.6</ele>
        <time>2019-02-06T13:34:4.000Z</time>
      </trkpt>
      <trkpt lat="43.85433" lon="1.71987">
        <ele>222.8</ele>
        <time>2019-02-06T13:34:13.000Z</time>
      </trkpt>
      <trkpt lat="43.85434" lon="1.72">
        <ele>222.5</ele>
        <time>2019-02-06T13:34:22.000Z</time>
      </trkpt>
      <trkpt lat="43.85436" lon="1.72012">
        <ele>222.2</ele>
        <time>2019-02-06T13:34:31.000Z</time>
      </trkpt>
      <trkpt lat="43.85439" lon="1.72024">
        <ele>221.7</ele>
        <time>2019-02-06T13:34:41.000Z</time>
      </trkpt>
      <trkpt lat="43.85443" lon="1.72036">
        <ele>220.7</ele>
        <time>2019-02-06T13:34:50.000Z</time>
      </trkpt>
      <trkpt lat="43.85447" lon="1.72048">
        <ele>219.2</ele>
        <time>2019-02-06T13:35:0.000Z</time>
      </trkpt>
      <trkpt lat="43.85449" lon="1.72061">
        <ele>218.2</ele>
        <time>2019-02-06T13:35:9.000Z</time>
      </trkpt>
      <trkpt lat="43.85448" lon="1.72074">
        <ele>217.5</ele>
        <time>2019-02-06T13:35:17.000Z</time>
      </trkpt>
      <trkpt lat="43.85455" lon="1.72083">
        <ele>216.4</ele>
        <time>2019-02-06T13:35:26.000Z</time>
      </trkpt>
      <trkpt lat="43.8546" lon="1.72093">
        <ele>215.3</ele>
        <time>2019-02-06T13:35:34.000Z</time>
      </trkpt>
      <trkpt lat="43.85466" lon="1.72104">
        <ele>214.6</ele>
        <time>2019-02-06T13:35:42.000Z</time>
      </trkpt>
      <trkpt lat="43.85471" lon="1.72114">
        <ele>214</ele>
        <time>2019-02-06T13:35:49.000Z</time>
      </trkpt>
      <trkpt lat="43.85477" lon="1.72123">
        <ele>213.3</ele>
        <time>2019-02-06T13:35:57.000Z</time>
      </trkpt>
      <trkpt lat="43.85483" lon="1.72134">
        <ele>212.6</ele>
        <time>2019-02-06T13:36:6.000Z</time>
      </trkpt>
      <trkpt lat="43.85489" lon="1.72144">
        <ele>211.6</ele>
        <time>2019-02-06T13:36:16.000Z</time>
      </trkpt>
      <trkpt lat="43.85494" lon="1.72155">
        <ele>210.5</ele>
        <time>2019-02-06T13:36:26.000Z</time>
      </trkpt>
      <trkpt lat="43.85501" lon="1.72163">
        <ele>209.5</ele>
        <time>2019-02-06T13:36:34.000Z</time>
      </trkpt>
      <trkpt lat="43.8551" lon="1.72169">
        <ele>208.8</ele>
        <time>2019-02-06T13:36:42.000Z</time>
      </trkpt>
      <trkpt lat="43.85518" lon="1.72176">
        <ele>208.1</ele>
        <time>2019-02-06T13:36:52.000Z</time>
      </trkpt>
      <trkpt lat="43.85527" lon="1.72184">
        <ele>207.6</ele>
        <time>2019-02-06T13:37:2.000Z</time>
      </trkpt>
      <trkpt lat="43.85535" lon="1.7219">
        <ele>207.5</ele>
        <time>2019-02-06T13:37:10.000Z</time>
      </trkpt>
      <trkpt lat="43.85545" lon="1.72195">
        <ele>207.4</ele>
        <time>2019-02-06T13:37:18.000Z</time>
      </trkpt>
      <trkpt lat="43.85554" lon="1.722">
        <ele>207.4</ele>
        <time>2019-02-06T13:37:25.000Z</time>
      </trkpt>
      <trkpt lat="43.85562" lon="1.72205">
        <ele>207.8</ele>
        <time>2019-02-06T13:37:37.000Z</time>
      </trkpt>
      <trkpt lat="43.85571" lon="1.7221">
        <ele>208.3</ele>
        <time>2019-02-06T13:37:47.000Z</time>
      </trkpt>
      <trkpt lat="43.85578" lon="1.72218">
        <ele>209.3</ele>
        <time>2019-02-06T13:38:3.000Z</time>
      </trkpt>
      <trkpt lat="43.85585" lon="1.72228">
        <ele>210.3</ele>
        <time>2019-02-06T13:38:15.000Z</time>
      </trkpt>
      <trkpt lat="43.85593" lon="1.72235">
        <ele>211.5</ele>
        <time>2019-02-06T13:38:28.000Z</time>
      </trkpt>
      <trkpt lat="43.85602" lon="1.72242">
        <ele>212.3</ele>
        <time>2019-02-06T13:38:39.000Z</time>
      </trkpt>
      <trkpt lat="43.85611" lon="1.72244">
        <ele>213</ele>
        <time>2019-02-06T13:38:49.000Z</time>
      </trkpt>
      <trkpt lat="43.8562" lon="1.72247">
        <ele>213.7</ele>
        <time>2019-02-06T13:38:58.000Z</time>
      </trkpt>
      <trkpt lat="43.8563" lon="1.72248">
        <ele>214</ele>
        <time>2019-02-06T13:39:4.000Z</time>
      </trkpt>
      <trkpt lat="43.8564" lon="1.72251">
        <ele>214.4</ele>
        <time>2019-02-06T13:39:12.000Z</time>
      </trkpt>
      <trkpt lat="43.85649" lon="1.72252">
        <ele>214.6</ele>
        <time>2019-02-06T13:39:21.000Z</time>
      </trkpt>
      <trkpt lat="43.85659" lon="1.72252">
        <ele>214.8</ele>
        <time>2019-02-06T13:39:31.000Z</time>
      </trkpt>
      <trkpt lat="43.85668" lon="1.72251">
        <ele>214.8</ele>
        <time>2019-02-06T13:39:39.000Z</time>
      </trkpt>
      <trkpt lat="43.85677" lon="1.72254">
        <ele>214.8</ele>
        <time>2019-02-06T13:39:49.000Z</time>
      </trkpt>
      <trkpt lat="43.85686" lon="1.72253">
        <ele>214.9</ele>
        <time>2019-02-06T13:39:57.000Z</time>
      </trkpt>
      <trkpt lat="43.85696" lon="1.72255">
        <ele>214.9</ele>
        <time>2019-02-06T13:40:6.000Z</time>
      </trkpt>
      <trkpt lat="43.85705" lon="1.72252">
        <ele>214.9</ele>
        <time>2019-02-06T13:40:17.000Z</time>
      </trkpt>
      <trkpt lat="43.85713" lon="1.72246">
        <ele>215.2</ele>
        <time>2019-02-06T13:40:28.000Z</time>
      </trkpt>
      <trkpt lat="43.85721" lon="1.72238">
        <ele>215.4</ele>
        <time>2019-02-06T13:40:39.000Z</time>
      </trkpt>
      <trkpt lat="43.85728" lon="1.7223">
        <ele>215.4</ele>
        <time>2019-02-06T13:40:48.000Z</time>
      </trkpt>
      <trkpt lat="43.85736" lon="1.72223">
        <ele>215.4</ele>
        <time>2019-02-06T13:40:57.000Z</time>
      </trkpt>
      <trkpt lat="43.85743" lon="1.72214">
        <ele>215.2</ele>
        <time>2019-02-06T13:41:7.000Z</time>
      </trkpt>
      <trkpt lat="43.8575" lon="1.72205">
        <ele>214.9</ele>
        <time>2019-02-06T13:41:16.000Z</time>
      </trkpt>
      <trkpt lat="43.85757" lon="1.72197">
        <ele>214.7</ele>
        <time>2019-02-06T13:41:24.000Z</time>
      </trkpt>
      <trkpt lat="43.85765" lon="1.72189">
        <ele>214.5</ele>
        <time>2019-02-06T13:41:33.000Z</time>
      </trkpt>
      <trkpt lat="43.85772" lon="1.72179">
        <ele>214.4</ele>
        <time>2019-02-06T13:41:42.000Z</time>
      </trkpt>
      <trkpt lat="43.8578" lon="1.72173">
        <ele>214.2</ele>
        <time>2019-02-06T13:41:50.000Z</time>
      </trkpt>
      <trkpt lat="43.85795" lon="1.72161">
        <ele>210.7</ele>
        <time>2019-02-06T13:41:59.000Z</time>
      </trkpt>
      <trkpt lat="43.85808" lon="1.72153">
        <ele>210.3</ele>
        <time>2019-02-06T13:42:7.000Z</time>
      </trkpt>
      <trkpt lat="43.85821" lon="1.72139">
        <ele>210.1</ele>
        <time>2019-02-06T13:42:15.000Z</time>
      </trkpt>
      <trkpt lat="43.85837" lon="1.72127">
        <ele>209.5</ele>
        <time>2019-02-06T13:42:24.000Z</time>
      </trkpt>
      <trkpt lat="43.85853" lon="1.72129">
        <ele>207</ele>
        <time>2019-02-06T13:42:40.000Z</time>
      </trkpt>
      <trkpt lat="43.85854" lon="1.72144">
        <ele>207.1</ele>
        <time>2019-02-06T13:43:0.000Z</time>
      </trkpt>
      <trkpt lat="43.85848" lon="1.72164">
        <ele>208.4</ele>
        <time>2019-02-06T13:43:10.000Z</time>
      </trkpt>
      <trkpt lat="43.85842" lon="1.7218">
        <ele>208.8</ele>
        <time>2019-02-06T13:43:23.000Z</time>
      </trkpt>
      <trkpt lat="43.85835" lon="1.72193">
        <ele>209.2</ele>
        <time>2019-02-06T13:43:36.000Z</time>
      </trkpt>
      <trkpt lat="43.85829" lon="1.7221">
        <ele>220.2</ele>
        <time>2019-02-06T13:43:48.000Z</time>
      </trkpt>
      <trkpt lat="43.85826" lon="1.72223">
        <ele>221</ele>
        <time>2019-02-06T13:43:57.000Z</time>
      </trkpt>
      <trkpt lat="43.85822" lon="1.72235">
        <ele>222</ele>
        <time>2019-02-06T13:44:9.000Z</time>
      </trkpt>
      <trkpt lat="43.85817" lon="1.72247">
        <ele>222.9</ele>
        <time>2019-02-06T13:44:20.000Z</time>
      </trkpt>
      <trkpt lat="43.85813" lon="1.72259">
        <ele>223.8</ele>
        <time>2019-02-06T13:44:32.000Z</time>
      </trkpt>
      <trkpt lat="43.85809" lon="1.72271">
        <ele>224.3</ele>
        <time>2019-02-06T13:44:42.000Z</time>
      </trkpt>
      <trkpt lat="43.85806" lon="1.72283">
        <ele>224.8</ele>
        <time>2019-02-06T13:44:55.000Z</time>
      </trkpt>
      <trkpt lat="43.85802" lon="1.72295">
        <ele>225.3</ele>
        <time>2019-02-06T13:45:6.000Z</time>
      </trkpt>
      <trkpt lat="43.85798" lon="1.72306">
        <ele>225.7</ele>
        <time>2019-02-06T13:45:23.000Z</time>
      </trkpt>
      <trkpt lat="43.85798" lon="1.72319">
        <ele>225.6</ele>
        <time>2019-02-06T13:45:34.000Z</time>
      </trkpt>
      <trkpt lat="43.858" lon="1.72332">
        <ele>225.4</ele>
        <time>2019-02-06T13:45:44.000Z</time>
      </trkpt>
      <trkpt lat="43.85802" lon="1.72345">
        <ele>225.2</ele>
        <time>2019-02-06T13:45:54.000Z</time>
      </trkpt>
      <trkpt lat="43.85803" lon="1.72358">
        <ele>224.7</ele>
        <time>2019-02-06T13:46:7.000Z</time>
      </trkpt>
      <trkpt lat="43.85808" lon="1.72369">
        <ele>223.5</ele>
        <time>2019-02-06T13:46:20.000Z</time>
      </trkpt>
      <trkpt lat="43.85817" lon="1.72375">
        <ele>222.4</ele>
        <time>2019-02-06T13:46:28.000Z</time>
      </trkpt>
      <trkpt lat="43.85824" lon="1.72385">
        <ele>221.2</ele>
        <time>2019-02-06T13:46:38.000Z</time>
      </trkpt>
      <trkpt lat="43.8583" lon="1.72395">
        <ele>220.3</ele>
        <time>2019-02-06T13:46:46.000Z</time>
      </trkpt>
      <trkpt lat="43.85837" lon="1.72404">
        <ele>219.5</ele>
        <time>2019-02-06T13:46:54.000Z</time>
      </trkpt>
      <trkpt lat="43.85843" lon="1.72414">
        <ele>218.8</ele>
        <time>2019-02-06T13:47:2.000Z</time>
      </trkpt>
      <trkpt lat="43.85847" lon="1.72426">
        <ele>217.9</ele>
        <time>2019-02-06T13:47:12.000Z</time>
      </trkpt>
      <trkpt lat="43.85849" lon="1.72439">
        <ele>217.1</ele>
        <time>2019-02-06T13:47:25.000Z</time>
      </trkpt>
      <trkpt lat="43.85848" lon="1.72452">
        <ele>216.5</ele>
        <time>2019-02-06T13:47:38.000Z</time>
      </trkpt>
      <trkpt lat="43.85842" lon="1.72462">
        <ele>216.3</ele>
        <time>2019-02-06T13:47:47.000Z</time>
      </trkpt>
      <trkpt lat="43.85835" lon="1.7247">
        <ele>216.4</ele>
        <time>2019-02-06T13:47:56.000Z</time>
      </trkpt>
      <trkpt lat="43.85829" lon="1.72479">
        <ele>216.3</ele>
        <time>2019-02-06T13:48:5.000Z</time>
      </trkpt>
      <trkpt lat="43.85822" lon="1.72489">
        <ele>215.9</ele>
        <time>2019-02-06T13:48:13.000Z</time>
      </trkpt>
      <trkpt lat="43.85814" lon="1.72498">
        <ele>214.8</ele>
        <time>2019-02-06T13:48:23.000Z</time>
      </trkpt>
      <trkpt lat="43.85807" lon="1.72505">
        <ele>213.7</ele>
        <time>2019-02-06T13:48:33.000Z</time>
      </trkpt>
      <trkpt lat="43.85801" lon="1.72515">
        <ele>212.3</ele>
        <time>2019-02-06T13:48:43.000Z</time>
      </trkpt>
      <trkpt lat="43.85793" lon="1.72522">
        <ele>210.6</ele>
        <time>2019-02-06T13:48:54.000Z</time>
      </trkpt>
      <trkpt lat="43.85786" lon="1.72531">
        <ele>209.1</ele>
        <time>2019-02-06T13:49:3.000Z</time>
      </trkpt>
      <trkpt lat="43.85779" lon="1.72541">
        <ele>207.9</ele>
        <time>2019-02-06T13:49:12.000Z</time>
      </trkpt>
      <trkpt lat="43.85773" lon="1.72551">
        <ele>206.7</ele>
        <time>2019-02-06T13:49:22.000Z</time>
      </trkpt>
      <trkpt lat="43.85765" lon="1.72559">
        <ele>205.6</ele>
        <time>2019-02-06T13:49:31.000Z</time>
      </trkpt>
      <trkpt lat="43.85757" lon="1.72568">
        <ele>204.1</ele>
        <time>2019-02-06T13:49:41.000Z</time>
      </trkpt>
      <trkpt lat="43.8575" lon="1.72576">
        <ele>203.3</ele>
        <time>2019-02-06T13:49:48.000Z</time>
      </trkpt>
      <trkpt lat="43.85744" lon="1.72585">
        <ele>202.3</ele>
        <time>2019-02-06T13:49:58.000Z</time>
      </trkpt>
      <trkpt lat="43.85736" lon="1.72594">
        <ele>201.4</ele>
        <time>2019-02-06T13:50:7.000Z</time>
      </trkpt>
      <trkpt lat="43.8573" lon="1.72604">
        <ele>200.7</ele>
        <time>2019-02-06T13:50:16.000Z</time>
      </trkpt>
      <trkpt lat="43.85723" lon="1.72613">
        <ele>199.6</ele>
        <time>2019-02-06T13:50:27.000Z</time>
      </trkpt>
      <trkpt lat="43.85715" lon="1.72621">
        <ele>198.1</ele>
        <time>2019-02-06T13:50:38.000Z</time>
      </trkpt>
      <trkpt lat="43.85707" lon="1.72627">
        <ele>196.8</ele>
        <time>2019-02-06T13:50:51.000Z</time>
      </trkpt>
      <trkpt lat="43.85699" lon="1.72635">
        <ele>195.8</ele>
        <time>2019-02-06T13:51:2.000Z</time>
      </trkpt>
      <trkpt lat="43.85693" lon="1.72644">
        <ele>194.4</ele>
        <time>2019-02-06T13:51:13.000Z</time>
      </trkpt>
      <trkpt lat="43.85685" lon="1.72652">
        <ele>192.9</ele>
        <time>2019-02-06T13:51:25.000Z</time>
      </trkpt>
      <trkpt lat="43.85676" lon="1.72655">
        <ele>191.3</ele>
        <time>2019-02-06T13:51:36.000Z</time>
      </trkpt>
      <trkpt lat="43.85669" lon="1.72664">
        <ele>190.3</ele>
        <time>2019-02-06T13:51:44.000Z</time>
      </trkpt>
      <trkpt lat="43.85661" lon="1.72671">
        <ele>189.5</ele>
        <time>2019-02-06T13:51:52.000Z</time>
      </trkpt>
      <trkpt lat="43.85653" lon="1.7268">
        <ele>188.6</ele>
        <time>2019-02-06T13:52:1.000Z</time>
      </trkpt>
      <trkpt lat="43.85645" lon="1.72687">
        <ele>187.7</ele>
        <time>2019-02-06T13:52:10.000Z</time>
      </trkpt>
      <trkpt lat="43.85637" lon="1.72694">
        <ele>187.1</ele>
        <time>2019-02-06T13:52:18.000Z</time>
      </trkpt>
      <trkpt lat="43.85628" lon="1.72699">
        <ele>186</ele>
        <time>2019-02-06T13:52:27.000Z</time>
      </trkpt>
      <trkpt lat="43.85619" lon="1.72705">
        <ele>185.1</ele>
        <time>2019-02-06T13:52:35.000Z</time>
      </trkpt>
      <trkpt lat="43.85611" lon="1.72709">
        <ele>184</ele>
        <time>2019-02-06T13:52:44.000Z</time>
      </trkpt>
      <trkpt lat="43.85601" lon="1.72713">
        <ele>183</ele>
        <time>2019-02-06T13:52:52.000Z</time>
      </trkpt>
      <trkpt lat="43.85591" lon="1.72714">
        <ele>181.8</ele>
        <time>2019-02-06T13:53:0.000Z</time>
      </trkpt>
      <trkpt lat="43.85582" lon="1.72717">
        <ele>180.9</ele>
        <time>2019-02-06T13:53:8.000Z</time>
      </trkpt>
      <trkpt lat="43.85573" lon="1.72721">
        <ele>179.9</ele>
        <time>2019-02-06T13:53:17.000Z</time>
      </trkpt>
      <trkpt lat="43.85563" lon="1.72724">
        <ele>178.7</ele>
        <time>2019-02-06T13:53:27.000Z</time>
      </trkpt>
      <trkpt lat="43.85555" lon="1.72728">
        <ele>177.7</ele>
        <time>2019-02-06T13:53:36.000Z</time>
      </trkpt>
      <trkpt lat="43.85545" lon="1.72729">
        <ele>177</ele>
        <time>2019-02-06T13:53:44.000Z</time>
      </trkpt>
      <trkpt lat="43.85535" lon="1.72731">
        <ele>176.2</ele>
        <time>2019-02-06T13:53:52.000Z</time>
      </trkpt>
      <trkpt lat="43.85525" lon="1.72734">
        <ele>175</ele>
        <time>2019-02-06T13:54:4.000Z</time>
      </trkpt>
      <trkpt lat="43.85516" lon="1.72738">
        <ele>174.2</ele>
        <time>2019-02-06T13:54:15.000Z</time>
      </trkpt>
      <trkpt lat="43.85507" lon="1.72742">
        <ele>173.3</ele>
        <time>2019-02-06T13:54:24.000Z</time>
      </trkpt>
      <trkpt lat="43.855" lon="1.72749">
        <ele>172.8</ele>
        <time>2019-02-06T13:54:33.000Z</time>
      </trkpt>
      <trkpt lat="43.85491" lon="1.72755">
        <ele>172.1</ele>
        <time>2019-02-06T13:54:42.000Z</time>
      </trkpt>
      <trkpt lat="43.85482" lon="1.72761">
        <ele>171.5</ele>
        <time>2019-02-06T13:54:51.000Z</time>
      </trkpt>
      <trkpt lat="43.85473" lon="1.72766">
        <ele>171.1</ele>
        <time>2019-02-06T13:55:0.000Z</time>
      </trkpt>
      <trkpt lat="43.85464" lon="1.72771">
        <ele>170.7</ele>
        <time>2019-02-06T13:55:9.000Z</time>
      </trkpt>
      <trkpt lat="43.85455" lon="1.72776">
        <ele>170.1</ele>
        <time>2019-02-06T13:55:18.000Z</time>
      </trkpt>
      <trkpt lat="43.85446" lon="1.72782">
        <ele>169.4</ele>
        <time>2019-02-06T13:55:26.000Z</time>
      </trkpt>
      <trkpt lat="43.85439" lon="1.7279">
        <ele>168.8</ele>
        <time>2019-02-06T13:55:36.000Z</time>
      </trkpt>
      <trkpt lat="43.8543" lon="1.72795">
        <ele>168.5</ele>
        <time>2019-02-06T13:55:47.000Z</time>
      </trkpt>
      <trkpt lat="43.85421" lon="1.728">
        <ele>168.3</ele>
        <time>2019-02-06T13:55:57.000Z</time>
      </trkpt>
      <trkpt lat="43.85412" lon="1.72803">
        <ele>167.9</ele>
        <time>2019-02-06T13:56:5.000Z</time>
      </trkpt>
      <trkpt lat="43.85402" lon="1.72805">
        <ele>167</ele>
        <time>2019-02-06T13:56:15.000Z</time>
      </trkpt>
      <trkpt lat="43.85393" lon="1.72804">
        <ele>166.6</ele>
        <time>2019-02-06T13:56:23.000Z</time>
      </trkpt>
      <trkpt lat="43.85384" lon="1.72807">
        <ele>166.3</ele>
        <time>2019-02-06T13:56:32.000Z</time>
      </trkpt>
      <trkpt lat="43.85374" lon="1.72811">
        <ele>166</ele>
        <time>2019-02-06T13:56:42.000Z</time>
      </trkpt>
      <trkpt lat="43.85366" lon="1.72817">
        <ele>165.7</ele>
        <time>2019-02-06T13:56:50.000Z</time>
      </trkpt>
      <trkpt lat="43.85357" lon="1.72819">
        <ele>165.1</ele>
        <time>2019-02-06T13:57:0.000Z</time>
      </trkpt>
      <trkpt lat="43.85348" lon="1.72824">
        <ele>164.5</ele>
        <time>2019-02-06T13:57:9.000Z</time>
      </trkpt>
      <trkpt lat="43.8534" lon="1.72831">
        <ele>164.2</ele>
        <time>2019-02-06T13:57:19.000Z</time>
      </trkpt>
      <trkpt lat="43.85331" lon="1.72836">
        <ele>164.2</ele>
        <time>2019-02-06T13:57:26.000Z</time>
      </trkpt>
      <trkpt lat="43.85322" lon="1.72838">
        <ele>164.2</ele>
        <time>2019-02-06T13:57:35.000Z</time>
      </trkpt>
      <trkpt lat="43.85313" lon="1.72843">
        <ele>163.7</ele>
        <time>2019-02-06T13:57:44.000Z</time>
      </trkpt>
      <trkpt lat="43.85304" lon="1.72848">
        <ele>163.3</ele>
        <time>2019-02-06T13:57:53.000Z</time>
      </trkpt>
      <trkpt lat="43.85295" lon="1.72853">
        <ele>163.2</ele>
        <time>2019-02-06T13:58:0.000Z</time>
      </trkpt>
      <trkpt lat="43.85286" lon="1.72857">
        <ele>163</ele>
        <time>2019-02-06T13:58:7.000Z</time>
      </trkpt>
      <trkpt lat="43.85278" lon="1.72864">
        <ele>162.6</ele>
        <time>2019-02-06T13:58:17.000Z</time>
      </trkpt>
      <trkpt lat="43.85269" lon="1.72867">
        <ele>162.1</ele>
        <time>2019-02-06T13:58:27.000Z</time>
      </trkpt>
      <trkpt lat="43.8526" lon="1.72874">
        <ele>161.5</ele>
        <time>2019-02-06T13:58:38.000Z</time>
      </trkpt>
      <trkpt lat="43.85252" lon="1.7288">
        <ele>160.7</ele>
        <time>2019-02-06T13:58:50.000Z</time>
      </trkpt>
      <trkpt lat="43.85243" lon="1.72884">
        <ele>160.4</ele>
        <time>2019-02-06T13:59:1.000Z</time>
      </trkpt>
      <trkpt lat="43.85237" lon="1.72876">
        <ele>158.9</ele>
        <time>2019-02-06T14:04:2.000Z</time>
      </trkpt>
      <trkpt lat="43.85229" lon="1.72882">
        <ele>159</ele>
        <time>2019-02-06T14:04:13.000Z</time>
      </trkpt>
      <trkpt lat="43.8522" lon="1.72887">
        <ele>159</ele>
        <time>2019-02-06T14:04:23.000Z</time>
      </trkpt>
      <trkpt lat="43.85212" lon="1.72893">
        <ele>158.8</ele>
        <time>2019-02-06T14:04:34.000Z</time>
      </trkpt>
      <trkpt lat="43.85204" lon="1.72899">
        <ele>158.6</ele>
        <time>2019-02-06T14:04:43.000Z</time>
      </trkpt>
      <trkpt lat="43.85195" lon="1.72901">
        <ele>158.5</ele>
        <time>2019-02-06T14:04:52.000Z</time>
      </trkpt>
      <trkpt lat="43.85185" lon="1.72905">
        <ele>158.4</ele>
        <time>2019-02-06T14:05:1.000Z</time>
      </trkpt>
      <trkpt lat="43.85176" lon="1.72909">
        <ele>158.3</ele>
        <time>2019-02-06T14:05:10.000Z</time>
      </trkpt>
      <trkpt lat="43.85167" lon="1.72913">
        <ele>157.7</ele>
        <time>2019-02-06T14:05:24.000Z</time>
      </trkpt>
      <trkpt lat="43.85159" lon="1.72922">
        <ele>157.4</ele>
        <time>2019-02-06T14:05:36.000Z</time>
      </trkpt>
      <trkpt lat="43.85152" lon="1.72929">
        <ele>157.2</ele>
        <time>2019-02-06T14:05:48.000Z</time>
      </trkpt>
      <trkpt lat="43.85147" lon="1.72941">
        <ele>157</ele>
        <time>2019-02-06T14:05:59.000Z</time>
      </trkpt>
      <trkpt lat="43.85139" lon="1.7295">
        <ele>156.8</ele>
        <time>2019-02-06T14:06:7.000Z</time>
      </trkpt>
      <trkpt lat="43.85128" lon="1.72954">
        <ele>156.6</ele>
        <time>2019-02-06T14:06:13.000Z</time>
      </trkpt>
      <trkpt lat="43.85124" lon="1.72965">
        <ele>156.5</ele>
        <time>2019-02-06T14:06:22.000Z</time>
      </trkpt>
      <trkpt lat="43.85117" lon="1.72975">
        <ele>156.3</ele>
        <time>2019-02-06T14:06:32.000Z</time>
      </trkpt>
      <trkpt lat="43.8511" lon="1.72985">
        <ele>156.1</ele>
        <time>2019-02-06T14:06:41.000Z</time>
      </trkpt>
      <trkpt lat="43.85104" lon="1.72996">
        <ele>155.8</ele>
        <time>2019-02-06T14:06:50.000Z</time>
      </trkpt>
      <trkpt lat="43.85099" lon="1.73006">
        <ele>155.5</ele>
        <time>2019-02-06T14:06:58.000Z</time>
      </trkpt>
      <trkpt lat="43.85095" lon="1.73018">
        <ele>155.2</ele>
        <time>2019-02-06T14:07:7.000Z</time>
      </trkpt>
      <trkpt lat="43.85091" lon="1.73031">
        <ele>155.1</ele>
        <time>2019-02-06T14:07:18.000Z</time>
      </trkpt>
      <trkpt lat="43.85086" lon="1.73043">
        <ele>154.9</ele>
        <time>2019-02-06T14:07:27.000Z</time>
      </trkpt>
      <trkpt lat="43.85079" lon="1.73051">
        <ele>154.8</ele>
        <time>2019-02-06T14:07:36.000Z</time>
      </trkpt>
      <trkpt lat="43.85073" lon="1.73062">
        <ele>154.5</ele>
        <time>2019-02-06T14:07:46.000Z</time>
      </trkpt>
      <trkpt lat="43.85063" lon="1.73069">
        <ele>154</ele>
        <time>2019-02-06T14:07:53.000Z</time>
      </trkpt>
      <trkpt lat="43.85055" lon="1.73075">
        <ele>153.5</ele>
        <time>2019-02-06T14:07:59.000Z</time>
      </trkpt>
      <trkpt lat="43.85048" lon="1.73083">
        <ele>153.1</ele>
        <time>2019-02-06T14:08:8.000Z</time>
      </trkpt>
      <trkpt lat="43.8504" lon="1.73084">
        <ele>153.5</ele>
        <time>2019-02-06T14:09:48.000Z</time>
      </trkpt>
      <trkpt lat="43.85031" lon="1.73086">
        <ele>152.3</ele>
        <time>2019-02-06T14:10:1.000Z</time>
      </trkpt>
      <trkpt lat="43.85022" lon="1.73094">
        <ele>151.9</ele>
        <time>2019-02-06T14:10:10.000Z</time>
      </trkpt>
      <trkpt lat="43.85015" lon="1.73103">
        <ele>151.8</ele>
        <time>2019-02-06T14:10:21.000Z</time>
      </trkpt>
      <trkpt lat="43.85006" lon="1.73109">
        <ele>151.6</ele>
        <time>2019-02-06T14:10:30.000Z</time>
      </trkpt>
      <trkpt lat="43.85" lon="1.73119">
        <ele>150.2</ele>
        <time>2019-02-06T14:11:5.000Z</time>
      </trkpt>
      <trkpt lat="43.84994" lon="1.7313">
        <ele>150</ele>
        <time>2019-02-06T14:11:13.000Z</time>
      </trkpt>
      <trkpt lat="43.84988" lon="1.73141">
        <ele>149.9</ele>
        <time>2019-02-06T14:11:21.000Z</time>
      </trkpt>
      <trkpt lat="43.84983" lon="1.73152">
        <ele>149.5</ele>
        <time>2019-02-06T14:11:29.000Z</time>
      </trkpt>
      <trkpt lat="43.84977" lon="1.73161">
        <ele>149.4</ele>
        <time>2019-02-06T14:11:37.000Z</time>
      </trkpt>
      <trkpt lat="43.84971" lon="1.73171">
        <ele>149.1</ele>
        <time>2019-02-06T14:11:49.000Z</time>
      </trkpt>
      <trkpt lat="43.84965" lon="1.73182">
        <ele>148.7</ele>
        <time>2019-02-06T14:11:57.000Z</time>
      </trkpt>
      <trkpt lat="43.84958" lon="1.73192">
        <ele>148.5</ele>
        <time>2019-02-06T14:12:4.000Z</time>
      </trkpt>
      <trkpt lat="43.84951" lon="1.732">
        <ele>148.4</ele>
        <time>2019-02-06T14:12:11.000Z</time>
      </trkpt>
      <trkpt lat="43.84941" lon="1.73203">
        <ele>148</ele>
        <time>2019-02-06T14:12:19.000Z</time>
      </trkpt>
      <trkpt lat="43.84931" lon="1.73203">
        <ele>147.7</ele>
        <time>2019-02-06T14:12:27.000Z</time>
      </trkpt>
      <trkpt lat="43.84922" lon="1.73207">
        <ele>147.2</ele>
        <time>2019-02-06T14:12:37.000Z</time>
      </trkpt>
      <trkpt lat="43.84915" lon="1.73216">
        <ele>146.7</ele>
        <time>2019-02-06T14:12:46.000Z</time>
      </trkpt>
      <trkpt lat="43.84911" lon="1.73228">
        <ele>146.3</ele>
        <time>2019-02-06T14:12:55.000Z</time>
      </trkpt>
      <trkpt lat="43.84907" lon="1.7324">
        <ele>146</ele>
        <time>2019-02-06T14:13:4.000Z</time>
      </trkpt>
      <trkpt lat="43.84904" lon="1.73254">
        <ele>145.7</ele>
        <time>2019-02-06T14:13:11.000Z</time>
      </trkpt>
      <trkpt lat="43.849" lon="1.73266">
        <ele>145.6</ele>
        <time>2019-02-06T14:13:19.000Z</time>
      </trkpt>
      <trkpt lat="43.84896" lon="1.73277">
        <ele>145.4</ele>
        <time>2019-02-06T14:13:26.000Z</time>
      </trkpt>
      <trkpt lat="43.84891" lon="1.73289">
        <ele>145.1</ele>
        <time>2019-02-06T14:13:34.000Z</time>
      </trkpt>
      <trkpt lat="43.84888" lon="1.73301">
        <ele>145.1</ele>
        <time>2019-02-06T14:13:44.000Z</time>
      </trkpt>
      <trkpt lat="43.84884" lon="1.73313">
        <ele>145</ele>
        <time>2019-02-06T14:13:52.000Z</time>
      </trkpt>
      <trkpt lat="43.84878" lon="1.73323">
        <ele>145</ele>
        <time>2019-02-06T14:14:0.000Z</time>
      </trkpt>
      <trkpt lat="43.84868" lon="1.73326">
        <ele>144.4</ele>
        <time>2019-02-06T14:14:15.000Z</time>
      </trkpt>
      <trkpt lat="43.84859" lon="1.73323">
        <ele>143.9</ele>
        <time>2019-02-06T14:14:30.000Z</time>
      </trkpt>
      <trkpt lat="43.84849" lon="1.73321">
        <ele>143.5</ele>
        <time>2019-02-06T14:14:40.000Z</time>
      </trkpt>
      <trkpt lat="43.84839" lon="1.73317">
        <ele>143.5</ele>
        <time>2019-02-06T14:14:51.000Z</time>
      </trkpt>
      <trkpt lat="43.84831" lon="1.73312">
        <ele>143.5</ele>
        <time>2019-02-06T14:15:0.000Z</time>
      </trkpt>
      <trkpt lat="43.84821" lon="1.73308">
        <ele>143.4</ele>
        <time>2019-02-06T14:15:10.000Z</time>
      </trkpt>
      <trkpt lat="43.84811" lon="1.73305">
        <ele>143.5</ele>
        <time>2019-02-06T14:15:19.000Z</time>
      </trkpt>
      <trkpt lat="43.84802" lon="1.73303">
        <ele>143.1</ele>
        <time>2019-02-06T14:15:30.000Z</time>
      </trkpt>
      <trkpt lat="43.84793" lon="1.73301">
        <ele>143</ele>
        <time>2019-02-06T14:15:40.000Z</time>
      </trkpt>
      <trkpt lat="43.84783" lon="1.73304">
        <ele>142.8</ele>
        <time>2019-02-06T14:15:51.000Z</time>
      </trkpt>
      <trkpt lat="43.84773" lon="1.73302">
        <ele>142.9</ele>
        <time>2019-02-06T14:16:0.000Z</time>
      </trkpt>
      <trkpt lat="43.84763" lon="1.733">
        <ele>142.8</ele>
        <time>2019-02-06T14:16:13.000Z</time>
      </trkpt>
      <trkpt lat="43.84754" lon="1.733">
        <ele>142.8</ele>
        <time>2019-02-06T14:16:21.000Z</time>
      </trkpt>
      <trkpt lat="43.84745" lon="1.73302">
        <ele>142.8</ele>
        <time>2019-02-06T14:16:29.000Z</time>
      </trkpt>
      <trkpt lat="43.84735" lon="1.73305">
        <ele>142.7</ele>
        <time>2019-02-06T14:16:37.000Z</time>
      </trkpt>
      <trkpt lat="43.84725" lon="1.73306">
        <ele>142.5</ele>
        <time>2019-02-06T14:16:45.000Z</time>
      </trkpt>
      <trkpt lat="43.84715" lon="1.73307">
        <ele>142.4</ele>
        <time>2019-02-06T14:16:53.000Z</time>
      </trkpt>
      <trkpt lat="43.84706" lon="1.73305">
        <ele>142.1</ele>
        <time>2019-02-06T14:17:2.000Z</time>
      </trkpt>
      <trkpt lat="43.84696" lon="1.73301">
        <ele>142.4</ele>
        <time>2019-02-06T14:17:14.000Z</time>
      </trkpt>
      <trkpt lat="43.84687" lon="1.73298">
        <ele>142.2</ele>
        <time>2019-02-06T14:17:22.000Z</time>
      </trkpt>
      <trkpt lat="43.84677" lon="1.733">
        <ele>142</ele>
        <time>2019-02-06T14:17:29.000Z</time>
      </trkpt>
      <trkpt lat="43.84667" lon="1.73298">
        <ele>141.9</ele>
        <time>2019-02-06T14:17:38.000Z</time>
      </trkpt>
      <trkpt lat="43.84658" lon="1.73296">
        <ele>141.5</ele>
        <time>2019-02-06T14:17:47.000Z</time>
      </trkpt>
      <trkpt lat="43.84649" lon="1.73296">
        <ele>141.4</ele>
        <time>2019-02-06T14:17:54.000Z</time>
      </trkpt>
      <trkpt lat="43.84641" lon="1.73288">
        <ele>141.3</ele>
        <time>2019-02-06T14:18:2.000Z</time>
      </trkpt>
      <trkpt lat="43.84631" lon="1.73283">
        <ele>141.4</ele>
        <time>2019-02-06T14:18:12.000Z</time>
      </trkpt>
      <trkpt lat="43.84623" lon="1.73278">
        <ele>141.5</ele>
        <time>2019-02-06T14:18:22.000Z</time>
      </trkpt>
      <trkpt lat="43.84613" lon="1.73273">
        <ele>141.3</ele>
        <time>2019-02-06T14:18:31.000Z</time>
      </trkpt>
      <trkpt lat="43.84605" lon="1.73267">
        <ele>141.1</ele>
        <time>2019-02-06T14:18:40.000Z</time>
      </trkpt>
      <trkpt lat="43.84596" lon="1.73262">
        <ele>140.9</ele>
        <time>2019-02-06T14:18:48.000Z</time>
      </trkpt>
      <trkpt lat="43.84588" lon="1.73258">
        <ele>141</ele>
        <time>2019-02-06T14:18:58.000Z</time>
      </trkpt>
      <trkpt lat="43.84579" lon="1.73252">
        <ele>141</ele>
        <time>2019-02-06T14:19:5.000Z</time>
      </trkpt>
      <trkpt lat="43.84571" lon="1.73246">
        <ele>140.9</ele>
        <time>2019-02-06T14:19:13.000Z</time>
      </trkpt>
      <trkpt lat="43.84562" lon="1.7324">
        <ele>140.8</ele>
        <time>2019-02-06T14:19:21.000Z</time>
      </trkpt>
      <trkpt lat="43.84555" lon="1.73232">
        <ele>140.7</ele>
        <time>2019-02-06T14:19:29.000Z</time>
      </trkpt>
      <trkpt lat="43.84546" lon="1.73226">
        <ele>140.4</ele>
        <time>2019-02-06T14:19:38.000Z</time>
      </trkpt>
      <trkpt lat="43.84539" lon="1.73219">
        <ele>140.5</ele>
        <time>2019-02-06T14:19:45.000Z</time>
      </trkpt>
      <trkpt lat="43.84531" lon="1.73212">
        <ele>140.6</ele>
        <time>2019-02-06T14:19:53.000Z</time>
      </trkpt>
      <trkpt lat="43.84523" lon="1.73204">
        <ele>140.5</ele>
        <time>2019-02-06T14:20:0.000Z</time>
      </trkpt>
      <trkpt lat="43.84517" lon="1.73195">
        <ele>140.4</ele>
        <time>2019-02-06T14:20:17.000Z</time>
      </trkpt>
      <trkpt lat="43.84509" lon="1.73187">
        <ele>140.4</ele>
        <time>2019-02-06T14:20:25.000Z</time>
      </trkpt>
      <trkpt lat="43.84501" lon="1.7318">
        <ele>140.4</ele>
        <time>2019-02-06T14:20:33.000Z</time>
      </trkpt>
      <trkpt lat="43.84493" lon="1.73172">
        <ele>140.2</ele>
        <time>2019-02-06T14:20:43.000Z</time>
      </trkpt>
      <trkpt lat="43.84485" lon="1.73166">
        <ele>140.1</ele>
        <time>2019-02-06T14:20:52.000Z</time>
      </trkpt>
      <trkpt lat="43.84477" lon="1.73159">
        <ele>139.9</ele>
        <time>2019-02-06T14:21:0.000Z</time>
      </trkpt>
      <trkpt lat="43.84468" lon="1.73153">
        <ele>139.9</ele>
        <time>2019-02-06T14:21:9.000Z</time>
      </trkpt>
      <trkpt lat="43.8446" lon="1.73147">
        <ele>139.7</ele>
        <time>2019-02-06T14:21:18.000Z</time>
      </trkpt>
      <trkpt lat="43.84451" lon="1.73142">
        <ele>140.7</ele>
        <time>2019-02-06T14:21:28.000Z</time>
      </trkpt>
      <trkpt lat="43.84442" lon="1.73138">
        <ele>140.9</ele>
        <time>2019-02-06T14:21:35.000Z</time>
      </trkpt>
      <trkpt lat="43.84433" lon="1.73133">
        <ele>140.8</ele>
        <time>2019-02-06T14:21:43.000Z</time>
      </trkpt>
      <trkpt lat="43.84424" lon="1.73129">
        <ele>140.7</ele>
        <time>2019-02-06T14:21:51.000Z</time>
      </trkpt>
      <trkpt lat="43.84415" lon="1.73126">
        <ele>140.6</ele>
        <time>2019-02-06T14:22:0.000Z</time>
      </trkpt>
      <trkpt lat="43.84405" lon="1.73124">
        <ele>140.5</ele>
        <time>2019-02-06T14:22:9.000Z</time>
      </trkpt>
      <trkpt lat="43.84395" lon="1.73122">
        <ele>140.6</ele>
        <time>2019-02-06T14:22:17.000Z</time>
      </trkpt>
      <trkpt lat="43.84385" lon="1.7312">
        <ele>140.5</ele>
        <time>2019-02-06T14:22:25.000Z</time>
      </trkpt>
      <trkpt lat="43.84376" lon="1.73117">
        <ele>140.5</ele>
        <time>2019-02-06T14:22:34.000Z</time>
      </trkpt>
      <trkpt lat="43.84366" lon="1.73116">
        <ele>140.4</ele>
        <time>2019-02-06T14:22:42.000Z</time>
      </trkpt>
      <trkpt lat="43.84357" lon="1.73113">
        <ele>140.3</ele>
        <time>2019-02-06T14:22:50.000Z</time>
      </trkpt>
      <trkpt lat="43.84348" lon="1.7311">
        <ele>140.4</ele>
        <time>2019-02-06T14:22:57.000Z</time>
      </trkpt>
      <trkpt lat="43.84338" lon="1.73107">
        <ele>140.4</ele>
        <time>2019-02-06T14:23:5.000Z</time>
      </trkpt>
      <trkpt lat="43.8433" lon="1.73099">
        <ele>140.5</ele>
        <time>2019-02-06T14:23:14.000Z</time>
      </trkpt>
      <trkpt lat="43.84323" lon="1.73091">
        <ele>140.7</ele>
        <time>2019-02-06T14:23:29.000Z</time>
      </trkpt>
      <trkpt lat="43.84316" lon="1.73082">
        <ele>140.7</ele>
        <time>2019-02-06T14:23:39.000Z</time>
      </trkpt>
      <trkpt lat="43.84308" lon="1.73074">
        <ele>140.6</ele>
        <time>2019-02-06T14:23:53.000Z</time>
      </trkpt>
      <trkpt lat="43.843" lon="1.73066">
        <ele>141</ele>
        <time>2019-02-06T14:24:3.000Z</time>
      </trkpt>
      <trkpt lat="43.84293" lon="1.73059">
        <ele>141.3</ele>
        <time>2019-02-06T14:24:14.000Z</time>
      </trkpt>
      <trkpt lat="43.84285" lon="1.73049">
        <ele>141.1</ele>
        <time>2019-02-06T14:24:22.000Z</time>
      </trkpt>
      <trkpt lat="43.84279" lon="1.7304">
        <ele>141.2</ele>
        <time>2019-02-06T14:24:30.000Z</time>
      </trkpt>
      <trkpt lat="43.84272" lon="1.73031">
        <ele>141.5</ele>
        <time>2019-02-06T14:24:38.000Z</time>
      </trkpt>
      <trkpt lat="43.84267" lon="1.7302">
        <ele>141.7</ele>
        <time>2019-02-06T14:24:44.000Z</time>
      </trkpt>
      <trkpt lat="43.84261" lon="1.73011">
        <ele>141.9</ele>
        <time>2019-02-06T14:24:52.000Z</time>
      </trkpt>
      <trkpt lat="43.84254" lon="1.73001">
        <ele>142</ele>
        <time>2019-02-06T14:25:1.000Z</time>
      </trkpt>
      <trkpt lat="43.84249" lon="1.7299">
        <ele>142.1</ele>
        <time>2019-02-06T14:25:10.000Z</time>
      </trkpt>
      <trkpt lat="43.84244" lon="1.72979">
        <ele>142.1</ele>
        <time>2019-02-06T14:25:18.000Z</time>
      </trkpt>
      <trkpt lat="43.84237" lon="1.72969">
        <ele>141.9</ele>
        <time>2019-02-06T14:25:28.000Z</time>
      </trkpt>
      <trkpt lat="43.8423" lon="1.7296">
        <ele>141.7</ele>
        <time>2019-02-06T14:25:37.000Z</time>
      </trkpt>
      <trkpt lat="43.84223" lon="1.72951">
        <ele>141.8</ele>
        <time>2019-02-06T14:25:47.000Z</time>
      </trkpt>
      <trkpt lat="43.84217" lon="1.72941">
        <ele>141.6</ele>
        <time>2019-02-06T14:25:56.000Z</time>
      </trkpt>
      <trkpt lat="43.8421" lon="1.72932">
        <ele>141.5</ele>
        <time>2019-02-06T14:26:4.000Z</time>
      </trkpt>
      <trkpt lat="43.84203" lon="1.72922">
        <ele>141.3</ele>
        <time>2019-02-06T14:26:13.000Z</time>
      </trkpt>
      <trkpt lat="43.84196" lon="1.72914">
        <ele>141</ele>
        <time>2019-02-06T14:26:21.000Z</time>
      </trkpt>
      <trkpt lat="43.84189" lon="1.72905">
        <ele>140.6</ele>
        <time>2019-02-06T14:26:31.000Z</time>
      </trkpt>
      <trkpt lat="43.84181" lon="1.72897">
        <ele>140.4</ele>
        <time>2019-02-06T14:26:39.000Z</time>
      </trkpt>
      <trkpt lat="43.84174" lon="1.72888">
        <ele>140.1</ele>
        <time>2019-02-06T14:26:47.000Z</time>
      </trkpt>
      <trkpt lat="43.84167" lon="1.72881">
        <ele>139.6</ele>
        <time>2019-02-06T14:26:55.000Z</time>
      </trkpt>
      <trkpt lat="43.84159" lon="1.72874">
        <ele>139.2</ele>
        <time>2019-02-06T14:27:8.000Z</time>
      </trkpt>
      <trkpt lat="43.84151" lon="1.72866">
        <ele>138.8</ele>
        <time>2019-02-06T14:27:20.000Z</time>
      </trkpt>
      <trkpt lat="43.84144" lon="1.72859">
        <ele>138.8</ele>
        <time>2019-02-06T14:27:27.000Z</time>
      </trkpt>
      <trkpt lat="43.84135" lon="1.72851">
        <ele>138.8</ele>
        <time>2019-02-06T14:27:35.000Z</time>
      </trkpt>
      <trkpt lat="43.84126" lon="1.72846">
        <ele>138.8</ele>
        <time>2019-02-06T14:27:43.000Z</time>
      </trkpt>
      <trkpt lat="43.84118" lon="1.72839">
        <ele>138.7</ele>
        <time>2019-02-06T14:27:52.000Z</time>
      </trkpt>
      <trkpt lat="43.84109" lon="1.72834">
        <ele>138.7</ele>
        <time>2019-02-06T14:28:2.000Z</time>
      </trkpt>
      <trkpt lat="43.84102" lon="1.72827">
        <ele>138.6</ele>
        <time>2019-02-06T14:28:10.000Z</time>
      </trkpt>
      <trkpt lat="43.84093" lon="1.7282">
        <ele>138.6</ele>
        <time>2019-02-06T14:28:17.000Z</time>
      </trkpt>
      <trkpt lat="43.84084" lon="1.72814">
        <ele>138.4</ele>
        <time>2019-02-06T14:28:27.000Z</time>
      </trkpt>
      <trkpt lat="43.84076" lon="1.72805">
        <ele>138.2</ele>
        <time>2019-02-06T14:28:35.000Z</time>
      </trkpt>
      <trkpt lat="43.84068" lon="1.72799">
        <ele>138.1</ele>
        <time>2019-02-06T14:28:43.000Z</time>
      </trkpt>
      <trkpt lat="43.84059" lon="1.72793">
        <ele>138.1</ele>
        <time>2019-02-06T14:28:51.000Z</time>
      </trkpt>
      <trkpt lat="43.8405" lon="1.72789">
        <ele>137.9</ele>
        <time>2019-02-06T14:29:1.000Z</time>
      </trkpt>
      <trkpt lat="43.84042" lon="1.72782">
        <ele>138.1</ele>
        <time>2019-02-06T14:29:10.000Z</time>
      </trkpt>
      <trkpt lat="43.84034" lon="1.72776">
        <ele>137.9</ele>
        <time>2019-02-06T14:29:19.000Z</time>
      </trkpt>
      <trkpt lat="43.84028" lon="1.72766">
        <ele>137.8</ele>
        <time>2019-02-06T14:29:26.000Z</time>
      </trkpt>
      <trkpt lat="43.84018" lon="1.72764">
        <ele>137.6</ele>
        <time>2019-02-06T14:29:34.000Z</time>
      </trkpt>
      <trkpt lat="43.84009" lon="1.7276">
        <ele>137.6</ele>
        <time>2019-02-06T14:29:42.000Z</time>
      </trkpt>
      <trkpt lat="43.84" lon="1.72756">
        <ele>137.5</ele>
        <time>2019-02-06T14:29:50.000Z</time>
      </trkpt>
      <trkpt lat="43.83992" lon="1.72751">
        <ele>137.4</ele>
        <time>2019-02-06T14:29:57.000Z</time>
      </trkpt>
      <trkpt lat="43.83983" lon="1.72745">
        <ele>137.5</ele>
        <time>2019-02-06T14:30:5.000Z</time>
      </trkpt>
      <trkpt lat="43.83974" lon="1.72743">
        <ele>137.3</ele>
        <time>2019-02-06T14:30:13.000Z</time>
      </trkpt>
      <trkpt lat="43.83965" lon="1.72738">
        <ele>137</ele>
        <time>2019-02-06T14:30:21.000Z</time>
      </trkpt>
      <trkpt lat="43.83956" lon="1.72735">
        <ele>137</ele>
        <time>2019-02-06T14:30:30.000Z</time>
      </trkpt>
      <trkpt lat="43.83946" lon="1.72732">
        <ele>136.7</ele>
        <time>2019-02-06T14:30:39.000Z</time>
      </trkpt>
      <trkpt lat="43.83937" lon="1.72728">
        <ele>136.9</ele>
        <time>2019-02-06T14:30:47.000Z</time>
      </trkpt>
      <trkpt lat="43.83929" lon="1.72724">
        <ele>136.8</ele>
        <time>2019-02-06T14:30:55.000Z</time>
      </trkpt>
      <trkpt lat="43.83919" lon="1.72721">
        <ele>136.7</ele>
        <time>2019-02-06T14:31:4.000Z</time>
      </trkpt>
      <trkpt lat="43.8391" lon="1.72718">
        <ele>136.7</ele>
        <time>2019-02-06T14:31:13.000Z</time>
      </trkpt>
      <trkpt lat="43.839" lon="1.72715">
        <ele>136.8</ele>
        <time>2019-02-06T14:31:21.000Z</time>
      </trkpt>
      <trkpt lat="43.83891" lon="1.72712">
        <ele>136.9</ele>
        <time>2019-02-06T14:31:30.000Z</time>
      </trkpt>
      <trkpt lat="43.83881" lon="1.72713">
        <ele>136.7</ele>
        <time>2019-02-06T14:31:40.000Z</time>
      </trkpt>
      <trkpt lat="43.83872" lon="1.72708">
        <ele>136.8</ele>
        <time>2019-02-06T14:31:48.000Z</time>
      </trkpt>
      <trkpt lat="43.83862" lon="1.72704">
        <ele>136.8</ele>
        <time>2019-02-06T14:31:56.000Z</time>
      </trkpt>
      <trkpt lat="43.83853" lon="1.72702">
        <ele>136.8</ele>
        <time>2019-02-06T14:32:2.000Z</time>
      </trkpt>
      <trkpt lat="43.83843" lon="1.72697">
        <ele>136.6</ele>
        <time>2019-02-06T14:32:9.000Z</time>
      </trkpt>
      <trkpt lat="43.83834" lon="1.72694">
        <ele>136.7</ele>
        <time>2019-02-06T14:32:17.000Z</time>
      </trkpt>
      <trkpt lat="43.83825" lon="1.72687">
        <ele>136.5</ele>
        <time>2019-02-06T14:32:25.000Z</time>
      </trkpt>
      <trkpt lat="43.83816" lon="1.72681">
        <ele>136.6</ele>
        <time>2019-02-06T14:32:32.000Z</time>
      </trkpt>
      <trkpt lat="43.83808" lon="1.72675">
        <ele>136.6</ele>
        <time>2019-02-06T14:32:40.000Z</time>
      </trkpt>
      <trkpt lat="43.83799" lon="1.72669">
        <ele>136.5</ele>
        <time>2019-02-06T14:32:49.000Z</time>
      </trkpt>
      <trkpt lat="43.8379" lon="1.72664">
        <ele>136.5</ele>
        <time>2019-02-06T14:32:57.000Z</time>
      </trkpt>
      <trkpt lat="43.8378" lon="1.72658">
        <ele>136.7</ele>
        <time>2019-02-06T14:33:5.000Z</time>
      </trkpt>
      <trkpt lat="43.8377" lon="1.72656">
        <ele>136.7</ele>
        <time>2019-02-06T14:33:13.000Z</time>
      </trkpt>
      <trkpt lat="43.83761" lon="1.72651">
        <ele>136.8</ele>
        <time>2019-02-06T14:33:21.000Z</time>
      </trkpt>
      <trkpt lat="43.83752" lon="1.7265">
        <ele>137.1</ele>
        <time>2019-02-06T14:33:28.000Z</time>
      </trkpt>
      <trkpt lat="43.83742" lon="1.72645">
        <ele>137.4</ele>
        <time>2019-02-06T14:33:36.000Z</time>
      </trkpt>
      <trkpt lat="43.83734" lon="1.72641">
        <ele>137.3</ele>
        <time>2019-02-06T14:33:43.000Z</time>
      </trkpt>
      <trkpt lat="43.83724" lon="1.72639">
        <ele>137.5</ele>
        <time>2019-02-06T14:33:51.000Z</time>
      </trkpt>
      <trkpt lat="43.83715" lon="1.72636">
        <ele>137.8</ele>
        <time>2019-02-06T14:33:58.000Z</time>
      </trkpt>
      <trkpt lat="43.83705" lon="1.72635">
        <ele>137.8</ele>
        <time>2019-02-06T14:34:5.000Z</time>
      </trkpt>
      <trkpt lat="43.83696" lon="1.72631">
        <ele>137.9</ele>
        <time>2019-02-06T14:34:12.000Z</time>
      </trkpt>
      <trkpt lat="43.83687" lon="1.72625">
        <ele>138.1</ele>
        <time>2019-02-06T14:34:20.000Z</time>
      </trkpt>
      <trkpt lat="43.83678" lon="1.72622">
        <ele>138.5</ele>
        <time>2019-02-06T14:34:28.000Z</time>
      </trkpt>
      <trkpt lat="43.8367" lon="1.72615">
        <ele>138.6</ele>
        <time>2019-02-06T14:34:34.000Z</time>
      </trkpt>
      <trkpt lat="43.83663" lon="1.72607">
        <ele>139.1</ele>
        <time>2019-02-06T14:34:40.000Z</time>
      </trkpt>
      <trkpt lat="43.83654" lon="1.72602">
        <ele>139.3</ele>
        <time>2019-02-06T14:34:48.000Z</time>
      </trkpt>
      <trkpt lat="43.83645" lon="1.72598">
        <ele>139.5</ele>
        <time>2019-02-06T14:34:58.000Z</time>
      </trkpt>
      <trkpt lat="43.83635" lon="1.72595">
        <ele>139.7</ele>
        <time>2019-02-06T14:35:5.000Z</time>
      </trkpt>
      <trkpt lat="43.83626" lon="1.72592">
        <ele>140</ele>
        <time>2019-02-06T14:35:12.000Z</time>
      </trkpt>
      <trkpt lat="43.83616" lon="1.72589">
        <ele>140.1</ele>
        <time>2019-02-06T14:35:20.000Z</time>
      </trkpt>
      <trkpt lat="43.83607" lon="1.72587">
        <ele>140.1</ele>
        <time>2019-02-06T14:35:28.000Z</time>
      </trkpt>
      <trkpt lat="43.83597" lon="1.72584">
        <ele>140.1</ele>
        <time>2019-02-06T14:35:35.000Z</time>
      </trkpt>
      <trkpt lat="43.83588" lon="1.7258">
        <ele>140.2</ele>
        <time>2019-02-06T14:35:42.000Z</time>
      </trkpt>
      <trkpt lat="43.83578" lon="1.72577">
        <ele>139.8</ele>
        <time>2019-02-06T14:35:50.000Z</time>
      </trkpt>
      <trkpt lat="43.83568" lon="1.72574">
        <ele>139.4</ele>
        <time>2019-02-06T14:35:58.000Z</time>
      </trkpt>
      <trkpt lat="43.83559" lon="1.72569">
        <ele>139.3</ele>
        <time>2019-02-06T14:36:5.000Z</time>
      </trkpt>
      <trkpt lat="43.8355" lon="1.72562">
        <ele>139.4</ele>
        <time>2019-02-06T14:36:12.000Z</time>
      </trkpt>
      <trkpt lat="43.83541" lon="1.72555">
        <ele>139.2</ele>
        <time>2019-02-06T14:36:19.000Z</time>
      </trkpt>
      <trkpt lat="43.83533" lon="1.72549">
        <ele>139.1</ele>
        <time>2019-02-06T14:36:27.000Z</time>
      </trkpt>
      <trkpt lat="43.83524" lon="1.72541">
        <ele>138.8</ele>
        <time>2019-02-06T14:36:35.000Z</time>
      </trkpt>
      <trkpt lat="43.83516" lon="1.72534">
        <ele>138.7</ele>
        <time>2019-02-06T14:36:42.000Z</time>
      </trkpt>
      <trkpt lat="43.83509" lon="1.72524">
        <ele>138.6</ele>
        <time>2019-02-06T14:36:49.000Z</time>
      </trkpt>
      <trkpt lat="43.835" lon="1.72517">
        <ele>138.4</ele>
        <time>2019-02-06T14:36:57.000Z</time>
      </trkpt>
      <trkpt lat="43.83491" lon="1.7251">
        <ele>138.3</ele>
        <time>2019-02-06T14:37:5.000Z</time>
      </trkpt>
      <trkpt lat="43.83484" lon="1.72501">
        <ele>138.2</ele>
        <time>2019-02-06T14:37:12.000Z</time>
      </trkpt>
      <trkpt lat="43.83476" lon="1.72494">
        <ele>138.2</ele>
        <time>2019-02-06T14:37:20.000Z</time>
      </trkpt>
      <trkpt lat="43.83466" lon="1.7249">
        <ele>138</ele>
        <time>2019-02-06T14:37:28.000Z</time>
      </trkpt>
      <trkpt lat="43.83458" lon="1.72485">
        <ele>138</ele>
        <time>2019-02-06T14:37:36.000Z</time>
      </trkpt>
      <trkpt lat="43.83449" lon="1.72482">
        <ele>138</ele>
        <time>2019-02-06T14:37:43.000Z</time>
      </trkpt>
      <trkpt lat="43.8344" lon="1.72477">
        <ele>137.9</ele>
        <time>2019-02-06T14:37:50.000Z</time>
      </trkpt>
      <trkpt lat="43.83431" lon="1.72472">
        <ele>137.7</ele>
        <time>2019-02-06T14:37:57.000Z</time>
      </trkpt>
      <trkpt lat="43.83423" lon="1.72465">
        <ele>137.5</ele>
        <time>2019-02-06T14:38:4.000Z</time>
      </trkpt>
      <trkpt lat="43.83415" lon="1.72458">
        <ele>137.4</ele>
        <time>2019-02-06T14:38:10.000Z</time>
      </trkpt>
      <trkpt lat="43.83406" lon="1.72451">
        <ele>137.3</ele>
        <time>2019-02-06T14:38:17.000Z</time>
      </trkpt>
      <trkpt lat="43.83398" lon="1.72447">
        <ele>137</ele>
        <time>2019-02-06T14:38:24.000Z</time>
      </trkpt>
      <trkpt lat="43.8339" lon="1.7244">
        <ele>137</ele>
        <time>2019-02-06T14:38:31.000Z</time>
      </trkpt>
      <trkpt lat="43.83382" lon="1.72434">
        <ele>137.1</ele>
        <time>2019-02-06T14:38:38.000Z</time>
      </trkpt>
      <trkpt lat="43.83373" lon="1.72428">
        <ele>137</ele>
        <time>2019-02-06T14:38:46.000Z</time>
      </trkpt>
      <trkpt lat="43.83365" lon="1.72422">
        <ele>137</ele>
        <time>2019-02-06T14:38:53.000Z</time>
      </trkpt>
      <trkpt lat="43.83356" lon="1.72417">
        <ele>137</ele>
        <time>2019-02-06T14:39:0.000Z</time>
      </trkpt>
      <trkpt lat="43.83346" lon="1.72413">
        <ele>137</ele>
        <time>2019-02-06T14:39:8.000Z</time>
      </trkpt>
      <trkpt lat="43.83337" lon="1.72409">
        <ele>136.8</ele>
        <time>2019-02-06T14:39:16.000Z</time>
      </trkpt>
      <trkpt lat="43.83328" lon="1.72403">
        <ele>136.9</ele>
        <time>2019-02-06T14:39:23.000Z</time>
      </trkpt>
      <trkpt lat="43.83319" lon="1.72402">
        <ele>136.9</ele>
        <time>2019-02-06T14:39:30.000Z</time>
      </trkpt>
      <trkpt lat="43.8331" lon="1.72405">
        <ele>136.9</ele>
        <time>2019-02-06T14:39:38.000Z</time>
      </trkpt>
      <trkpt lat="43.83301" lon="1.72407">
        <ele>136.3</ele>
        <time>2019-02-06T14:39:46.000Z</time>
      </trkpt>
      <trkpt lat="43.83291" lon="1.72408">
        <ele>136</ele>
        <time>2019-02-06T14:39:53.000Z</time>
      </trkpt>
      <trkpt lat="43.83282" lon="1.72408">
        <ele>136</ele>
        <time>2019-02-06T14:40:1.000Z</time>
      </trkpt>
      <trkpt lat="43.83272" lon="1.7241">
        <ele>136</ele>
        <time>2019-02-06T14:40:9.000Z</time>
      </trkpt>
      <trkpt lat="43.83262" lon="1.72409">
        <ele>136</ele>
        <time>2019-02-06T14:40:20.000Z</time>
      </trkpt>
      <trkpt lat="43.83257" lon="1.7241">
        <ele>134.6</ele>
        <time>2019-02-06T14:45:31.000Z</time>
      </trkpt>
      <trkpt lat="43.83252" lon="1.72399">
        <ele>132.9</ele>
        <time>2019-02-06T14:46:27.000Z</time>
      </trkpt>
      <trkpt lat="43.83244" lon="1.72392">
        <ele>132.9</ele>
        <time>2019-02-06T14:46:37.000Z</time>
      </trkpt>
      <trkpt lat="43.83236" lon="1.72385">
        <ele>133.1</ele>
        <time>2019-02-06T14:46:46.000Z</time>
      </trkpt>
      <trkpt lat="43.83228" lon="1.72377">
        <ele>133.6</ele>
        <time>2019-02-06T14:46:56.000Z</time>
      </trkpt>
      <trkpt lat="43.83219" lon="1.72372">
        <ele>134</ele>
        <time>2019-02-06T14:47:3.000Z</time>
      </trkpt>
      <trkpt lat="43.83211" lon="1.72364">
        <ele>134.4</ele>
        <time>2019-02-06T14:47:13.000Z</time>
      </trkpt>
      <trkpt lat="43.83203" lon="1.72358">
        <ele>134.8</ele>
        <time>2019-02-06T14:47:20.000Z</time>
      </trkpt>
      <trkpt lat="43.83195" lon="1.72353">
        <ele>134.9</ele>
        <time>2019-02-06T14:47:30.000Z</time>
      </trkpt>
      <trkpt lat="43.83187" lon="1.72344">
        <ele>135.1</ele>
        <time>2019-02-06T14:47:38.000Z</time>
      </trkpt>
      <trkpt lat="43.8318" lon="1.72336">
        <ele>135.5</ele>
        <time>2019-02-06T14:47:48.000Z</time>
      </trkpt>
      <trkpt lat="43.83173" lon="1.72327">
        <ele>135.8</ele>
        <time>2019-02-06T14:47:57.000Z</time>
      </trkpt>
      <trkpt lat="43.83165" lon="1.72319">
        <ele>135.9</ele>
        <time>2019-02-06T14:48:5.000Z</time>
      </trkpt>
      <trkpt lat="43.83156" lon="1.72314">
        <ele>136</ele>
        <time>2019-02-06T14:48:12.000Z</time>
      </trkpt>
      <trkpt lat="43.8315" lon="1.72305">
        <ele>136</ele>
        <time>2019-02-06T14:48:20.000Z</time>
      </trkpt>
      <trkpt lat="43.83143" lon="1.72296">
        <ele>136.2</ele>
        <time>2019-02-06T14:48:29.000Z</time>
      </trkpt>
      <trkpt lat="43.83136" lon="1.72287">
        <ele>136.4</ele>
        <time>2019-02-06T14:48:38.000Z</time>
      </trkpt>
      <trkpt lat="43.83128" lon="1.72278">
        <ele>136.4</ele>
        <time>2019-02-06T14:48:47.000Z</time>
      </trkpt>
      <trkpt lat="43.83119" lon="1.72273">
        <ele>136.4</ele>
        <time>2019-02-06T14:48:55.000Z</time>
      </trkpt>
      <trkpt lat="43.83111" lon="1.72269">
        <ele>136.5</ele>
        <time>2019-02-06T14:49:2.000Z</time>
      </trkpt>
      <trkpt lat="43.83102" lon="1.72261">
        <ele>136.6</ele>
        <time>2019-02-06T14:49:9.000Z</time>
      </trkpt>
      <trkpt lat="43.83094" lon="1.72252">
        <ele>136.7</ele>
        <time>2019-02-06T14:49:17.000Z</time>
      </trkpt>
      <trkpt lat="43.83086" lon="1.72245">
        <ele>136.5</ele>
        <time>2019-02-06T14:49:24.000Z</time>
      </trkpt>
      <trkpt lat="43.83078" lon="1.72238">
        <ele>136.9</ele>
        <time>2019-02-06T14:49:31.000Z</time>
      </trkpt>
      <trkpt lat="43.8307" lon="1.72229">
        <ele>137</ele>
        <time>2019-02-06T14:49:38.000Z</time>
      </trkpt>
      <trkpt lat="43.83062" lon="1.72223">
        <ele>136.9</ele>
        <time>2019-02-06T14:49:46.000Z</time>
      </trkpt>
      <trkpt lat="43.83053" lon="1.72217">
        <ele>136.7</ele>
        <time>2019-02-06T14:49:56.000Z</time>
      </trkpt>
      <trkpt lat="43.83046" lon="1.72208">
        <ele>136.9</ele>
        <time>2019-02-06T14:50:7.000Z</time>
      </trkpt>
      <trkpt lat="43.83039" lon="1.722">
        <ele>137</ele>
        <time>2019-02-06T14:50:13.000Z</time>
      </trkpt>
      <trkpt lat="43.83031" lon="1.72193">
        <ele>137</ele>
        <time>2019-02-06T14:50:21.000Z</time>
      </trkpt>
      <trkpt lat="43.83025" lon="1.72183">
        <ele>137.3</ele>
        <time>2019-02-06T14:50:29.000Z</time>
      </trkpt>
      <trkpt lat="43.83018" lon="1.72173">
        <ele>137.4</ele>
        <time>2019-02-06T14:50:37.000Z</time>
      </trkpt>
      <trkpt lat="43.83011" lon="1.72163">
        <ele>137.6</ele>
        <time>2019-02-06T14:50:46.000Z</time>
      </trkpt>
      <trkpt lat="43.83005" lon="1.72152">
        <ele>137.6</ele>
        <time>2019-02-06T14:50:54.000Z</time>
      </trkpt>
      <trkpt lat="43.82998" lon="1.72142">
        <ele>137.5</ele>
        <time>2019-02-06T14:51:2.000Z</time>
      </trkpt>
      <trkpt lat="43.8299" lon="1.72135">
        <ele>137.6</ele>
        <time>2019-02-06T14:51:9.000Z</time>
      </trkpt>
      <trkpt lat="43.82982" lon="1.72128">
        <ele>137.8</ele>
        <time>2019-02-06T14:51:17.000Z</time>
      </trkpt>
      <trkpt lat="43.82974" lon="1.72122">
        <ele>137.6</ele>
        <time>2019-02-06T14:51:29.000Z</time>
      </trkpt>
      <trkpt lat="43.82965" lon="1.72119">
        <ele>137.5</ele>
        <time>2019-02-06T14:51:36.000Z</time>
      </trkpt>
      <trkpt lat="43.82956" lon="1.72115">
        <ele>137.5</ele>
        <time>2019-02-06T14:51:43.000Z</time>
      </trkpt>
      <trkpt lat="43.82946" lon="1.72109">
        <ele>137.5</ele>
        <time>2019-02-06T14:51:50.000Z</time>
      </trkpt>
      <trkpt lat="43.82938" lon="1.72103">
        <ele>137.5</ele>
        <time>2019-02-06T14:51:57.000Z</time>
      </trkpt>
      <trkpt lat="43.82929" lon="1.72096">
        <ele>137.6</ele>
        <time>2019-02-06T14:52:4.000Z</time>
      </trkpt>
      <trkpt lat="43.8292" lon="1.72091">
        <ele>137.6</ele>
        <time>2019-02-06T14:52:12.000Z</time>
      </trkpt>
      <trkpt lat="43.82912" lon="1.72086">
        <ele>137.7</ele>
        <time>2019-02-06T14:52:20.000Z</time>
      </trkpt>
      <trkpt lat="43.82904" lon="1.72079">
        <ele>137.7</ele>
        <time>2019-02-06T14:52:28.000Z</time>
      </trkpt>
      <trkpt lat="43.82896" lon="1.72072">
        <ele>137.7</ele>
        <time>2019-02-06T14:52:36.000Z</time>
      </trkpt>
      <trkpt lat="43.82889" lon="1.72063">
        <ele>137.7</ele>
        <time>2019-02-06T14:52:44.000Z</time>
      </trkpt>
      <trkpt lat="43.82881" lon="1.72056">
        <ele>137.2</ele>
        <time>2019-02-06T14:52:55.000Z</time>
      </trkpt>
      <trkpt lat="43.82874" lon="1.72048">
        <ele>136.3</ele>
        <time>2019-02-06T14:53:2.000Z</time>
      </trkpt>
      <trkpt lat="43.82866" lon="1.72041">
        <ele>136.8</ele>
        <time>2019-02-06T14:53:10.000Z</time>
      </trkpt>
      <trkpt lat="43.8286" lon="1.72031">
        <ele>136.8</ele>
        <time>2019-02-06T14:53:17.000Z</time>
      </trkpt>
      <trkpt lat="43.82851" lon="1.72023">
        <ele>136.7</ele>
        <time>2019-02-06T14:53:25.000Z</time>
      </trkpt>
      <trkpt lat="43.82842" lon="1.72017">
        <ele>136.3</ele>
        <time>2019-02-06T14:53:32.000Z</time>
      </trkpt>
      <trkpt lat="43.82833" lon="1.72015">
        <ele>136.1</ele>
        <time>2019-02-06T14:53:40.000Z</time>
      </trkpt>
      <trkpt lat="43.82823" lon="1.72013">
        <ele>135.9</ele>
        <time>2019-02-06T14:53:48.000Z</time>
      </trkpt>
      <trkpt lat="43.82814" lon="1.72008">
        <ele>136</ele>
        <time>2019-02-06T14:53:55.000Z</time>
      </trkpt>
      <trkpt lat="43.82806" lon="1.72003">
        <ele>135.8</ele>
        <time>2019-02-06T14:54:2.000Z</time>
      </trkpt>
      <trkpt lat="43.82797" lon="1.71997">
        <ele>135.6</ele>
        <time>2019-02-06T14:54:12.000Z</time>
      </trkpt>
      <trkpt lat="43.8279" lon="1.71988">
        <ele>135.6</ele>
        <time>2019-02-06T14:54:19.000Z</time>
      </trkpt>
      <trkpt lat="43.82782" lon="1.71981">
        <ele>135.6</ele>
        <time>2019-02-06T14:54:31.000Z</time>
      </trkpt>
      <trkpt lat="43.82772" lon="1.71981">
        <ele>135.7</ele>
        <time>2019-02-06T14:54:40.000Z</time>
      </trkpt>
      <trkpt lat="43.82763" lon="1.71976">
        <ele>135.8</ele>
        <time>2019-02-06T14:54:51.000Z</time>
      </trkpt>
      <trkpt lat="43.82754" lon="1.71976">
        <ele>135.7</ele>
        <time>2019-02-06T14:55:0.000Z</time>
      </trkpt>
      <trkpt lat="43.82744" lon="1.71972">
        <ele>135.2</ele>
        <time>2019-02-06T14:55:9.000Z</time>
      </trkpt>
      <trkpt lat="43.82734" lon="1.71969">
        <ele>135.2</ele>
        <time>2019-02-06T14:55:16.000Z</time>
      </trkpt>
      <trkpt lat="43.82725" lon="1.71968">
        <ele>135.6</ele>
        <time>2019-02-06T14:55:23.000Z</time>
      </trkpt>
      <trkpt lat="43.82715" lon="1.71967">
        <ele>135.6</ele>
        <time>2019-02-06T14:55:30.000Z</time>
      </trkpt>
      <trkpt lat="43.82705" lon="1.71965">
        <ele>135.7</ele>
        <time>2019-02-06T14:55:38.000Z</time>
      </trkpt>
      <trkpt lat="43.82696" lon="1.71961">
        <ele>135.9</ele>
        <time>2019-02-06T14:55:46.000Z</time>
      </trkpt>
      <trkpt lat="43.82687" lon="1.7196">
        <ele>136.1</ele>
        <time>2019-02-06T14:55:54.000Z</time>
      </trkpt>
      <trkpt lat="43.82678" lon="1.71956">
        <ele>136.1</ele>
        <time>2019-02-06T14:56:2.000Z</time>
      </trkpt>
      <trkpt lat="43.82669" lon="1.71954">
        <ele>136.1</ele>
        <time>2019-02-06T14:56:10.000Z</time>
      </trkpt>
      <trkpt lat="43.82658" lon="1.71952">
        <ele>136.2</ele>
        <time>2019-02-06T14:56:19.000Z</time>
      </trkpt>
      <trkpt lat="43.82649" lon="1.71953">
        <ele>135.9</ele>
        <time>2019-02-06T14:56:27.000Z</time>
      </trkpt>
      <trkpt lat="43.8264" lon="1.71954">
        <ele>136.1</ele>
        <time>2019-02-06T14:56:36.000Z</time>
      </trkpt>
      <trkpt lat="43.8263" lon="1.71956">
        <ele>136.3</ele>
        <time>2019-02-06T14:56:44.000Z</time>
      </trkpt>
      <trkpt lat="43.8262" lon="1.71955">
        <ele>136.4</ele>
        <time>2019-02-06T14:56:52.000Z</time>
      </trkpt>
      <trkpt lat="43.8261" lon="1.71958">
        <ele>136</ele>
        <time>2019-02-06T14:57:1.000Z</time>
      </trkpt>
      <trkpt lat="43.82601" lon="1.71959">
        <ele>135.6</ele>
        <time>2019-02-06T14:57:10.000Z</time>
      </trkpt>
      <trkpt lat="43.8259" lon="1.7196">
        <ele>135.7</ele>
        <time>2019-02-06T14:57:18.000Z</time>
      </trkpt>
      <trkpt lat="43.82581" lon="1.71959">
        <ele>135.7</ele>
        <time>2019-02-06T14:57:27.000Z</time>
      </trkpt>
      <trkpt lat="43.82571" lon="1.71962">
        <ele>135.6</ele>
        <time>2019-02-06T14:57:34.000Z</time>
      </trkpt>
      <trkpt lat="43.82562" lon="1.71963">
        <ele>135.3</ele>
        <time>2019-02-06T14:57:43.000Z</time>
      </trkpt>
      <trkpt lat="43.82552" lon="1.71964">
        <ele>135.1</ele>
        <time>2019-02-06T14:57:53.000Z</time>
      </trkpt>
      <trkpt lat="43.82542" lon="1.71965">
        <ele>134.9</ele>
        <time>2019-02-06T14:57:59.000Z</time>
      </trkpt>
      <trkpt lat="43.82532" lon="1.71963">
        <ele>134.6</ele>
        <time>2019-02-06T14:58:7.000Z</time>
      </trkpt>
      <trkpt lat="43.82523" lon="1.71964">
        <ele>135.7</ele>
        <time>2019-02-06T14:58:14.000Z</time>
      </trkpt>
      <trkpt lat="43.82513" lon="1.71966">
        <ele>135.5</ele>
        <time>2019-02-06T14:58:20.000Z</time>
      </trkpt>
      <trkpt lat="43.82503" lon="1.71967">
        <ele>135.3</ele>
        <time>2019-02-06T14:58:26.000Z</time>
      </trkpt>
      <trkpt lat="43.82494" lon="1.71969">
        <ele>134.9</ele>
        <time>2019-02-06T14:58:33.000Z</time>
      </trkpt>
      <trkpt lat="43.82483" lon="1.71969">
        <ele>134.6</ele>
        <time>2019-02-06T14:58:41.000Z</time>
      </trkpt>
      <trkpt lat="43.82474" lon="1.7197">
        <ele>134.3</ele>
        <time>2019-02-06T14:58:48.000Z</time>
      </trkpt>
      <trkpt lat="43.82464" lon="1.7197">
        <ele>134.1</ele>
        <time>2019-02-06T14:58:56.000Z</time>
      </trkpt>
      <trkpt lat="43.82455" lon="1.71966">
        <ele>134</ele>
        <time>2019-02-06T14:59:4.000Z</time>
      </trkpt>
      <trkpt lat="43.82446" lon="1.71967">
        <ele>134</ele>
        <time>2019-02-06T14:59:12.000Z</time>
      </trkpt>
      <trkpt lat="43.82436" lon="1.71966">
        <ele>134</ele>
        <time>2019-02-06T14:59:20.000Z</time>
      </trkpt>
      <trkpt lat="43.82426" lon="1.71965">
        <ele>134</ele>
        <time>2019-02-06T14:59:28.000Z</time>
      </trkpt>
      <trkpt lat="43.82418" lon="1.71959">
        <ele>134</ele>
        <time>2019-02-06T14:59:36.000Z</time>
      </trkpt>
      <trkpt lat="43.82408" lon="1.71963">
        <ele>133.7</ele>
        <time>2019-02-06T14:59:45.000Z</time>
      </trkpt>
      <trkpt lat="43.82399" lon="1.71963">
        <ele>133.6</ele>
        <time>2019-02-06T14:59:53.000Z</time>
      </trkpt>
      <trkpt lat="43.82389" lon="1.71962">
        <ele>133.5</ele>
        <time>2019-02-06T15:00:1.000Z</time>
      </trkpt>
      <trkpt lat="43.82379" lon="1.71963">
        <ele>133.4</ele>
        <time>2019-02-06T15:00:9.000Z</time>
      </trkpt>
      <trkpt lat="43.82369" lon="1.71962">
        <ele>133.3</ele>
        <time>2019-02-06T15:00:17.000Z</time>
      </trkpt>
      <trkpt lat="43.82359" lon="1.71959">
        <ele>133.4</ele>
        <time>2019-02-06T15:00:25.000Z</time>
      </trkpt>
      <trkpt lat="43.8235" lon="1.71958">
        <ele>133.5</ele>
        <time>2019-02-06T15:00:33.000Z</time>
      </trkpt>
      <trkpt lat="43.82343" lon="1.71951">
        <ele>133.5</ele>
        <time>2019-02-06T15:00:40.000Z</time>
      </trkpt>
      <trkpt lat="43.82333" lon="1.71948">
        <ele>133.5</ele>
        <time>2019-02-06T15:00:56.000Z</time>
      </trkpt>
      <trkpt lat="43.82324" lon="1.71946">
        <ele>133.5</ele>
        <time>2019-02-06T15:01:6.000Z</time>
      </trkpt>
      <trkpt lat="43.82315" lon="1.71942">
        <ele>133.6</ele>
        <time>2019-02-06T15:01:13.000Z</time>
      </trkpt>
      <trkpt lat="43.82308" lon="1.71934">
        <ele>133.6</ele>
        <time>2019-02-06T15:01:20.000Z</time>
      </trkpt>
      <trkpt lat="43.82299" lon="1.71929">
        <ele>133.7</ele>
        <time>2019-02-06T15:01:28.000Z</time>
      </trkpt>
      <trkpt lat="43.82289" lon="1.71927">
        <ele>133.5</ele>
        <time>2019-02-06T15:01:37.000Z</time>
      </trkpt>
      <trkpt lat="43.82283" lon="1.71918">
        <ele>133.4</ele>
        <time>2019-02-06T15:01:45.000Z</time>
      </trkpt>
      <trkpt lat="43.82273" lon="1.71918">
        <ele>133.3</ele>
        <time>2019-02-06T15:01:53.000Z</time>
      </trkpt>
      <trkpt lat="43.82264" lon="1.71918">
        <ele>133.5</ele>
        <time>2019-02-06T15:02:5.000Z</time>
      </trkpt>
      <trkpt lat="43.82255" lon="1.71915">
        <ele>133.6</ele>
        <time>2019-02-06T15:02:12.000Z</time>
      </trkpt>
      <trkpt lat="43.82246" lon="1.71917">
        <ele>133.6</ele>
        <time>2019-02-06T15:02:18.000Z</time>
      </trkpt>
      <trkpt lat="43.82244" lon="1.71904">
        <ele>133.7</ele>
        <time>2019-02-06T15:02:28.000Z</time>
      </trkpt>
      <trkpt lat="43.82246" lon="1.71891">
        <ele>133.7</ele>
        <time>2019-02-06T15:02:34.000Z</time>
      </trkpt>
      <trkpt lat="43.82247" lon="1.71877">
        <ele>133.9</ele>
        <time>2019-02-06T15:02:41.000Z</time>
      </trkpt>
      <trkpt lat="43.8225" lon="1.71865">
        <ele>134.1</ele>
        <time>2019-02-06T15:02:48.000Z</time>
      </trkpt>
      <trkpt lat="43.82253" lon="1.71853">
        <ele>134.2</ele>
        <time>2019-02-06T15:02:57.000Z</time>
      </trkpt>
      <trkpt lat="43.8225" lon="1.71841">
        <ele>134.5</ele>
        <time>2019-02-06T15:03:9.000Z</time>
      </trkpt>
      <trkpt lat="43.82242" lon="1.71835">
        <ele>134.7</ele>
        <time>2019-02-06T15:03:16.000Z</time>
      </trkpt>
      <trkpt lat="43.82233" lon="1.71832">
        <ele>135</ele>
        <time>2019-02-06T15:03:23.000Z</time>
      </trkpt>
      <trkpt lat="43.82224" lon="1.71829">
        <ele>135.3</ele>
        <time>2019-02-06T15:03:31.000Z</time>
      </trkpt>
      <trkpt lat="43.82216" lon="1.71826">
        <ele>135.5</ele>
        <time>2019-02-06T15:03:39.000Z</time>
      </trkpt>
      <trkpt lat="43.82206" lon="1.71824">
        <ele>135.7</ele>
        <time>2019-02-06T15:03:48.000Z</time>
      </trkpt>
      <trkpt lat="43.82197" lon="1.71819">
        <ele>135.5</ele>
        <time>2019-02-06T15:03:56.000Z</time>
      </trkpt>
      <trkpt lat="43.82189" lon="1.71812">
        <ele>135.4</ele>
        <time>2019-02-06T15:04:3.000Z</time>
      </trkpt>
      <trkpt lat="43.82179" lon="1.71807">
        <ele>136.2</ele>
        <time>2019-02-06T15:04:11.000Z</time>
      </trkpt>
      <trkpt lat="43.8217" lon="1.71803">
        <ele>136.8</ele>
        <time>2019-02-06T15:04:19.000Z</time>
      </trkpt>
      <trkpt lat="43.82161" lon="1.718">
        <ele>137.8</ele>
        <time>2019-02-06T15:04:27.000Z</time>
      </trkpt>
      <trkpt lat="43.82154" lon="1.71796">
        <ele>138</ele>
        <time>2019-02-06T15:05:56.000Z</time>
      </trkpt>
    </trkseg>
  </trk>
</gpx>